GFSSW_500_rhum_000.txt.gz
RH
9 8 7 6 6 6 7 6 6 6 5 5 5 6 8 8 10 12 12 15 17 13 13 15 16 17 16 16 17 16 11 8 13 20 46 54 40 34 38 31 29 28 24 24 25
14 13 11 8 7 7 7 7 6 6 5 6 5 6 8 8 8 14 14 14 19 22 13 15 16 17 17 17 18 17 11 7 14 18 25 50 46 35 30 33 36 30 25 17 26
14 14 13 12 9 9 9 8 8 6 6 6 5 5 7 8 11 19 15 14 14 22 24 17 16 15 16 17 17 18 10 12 11 12 18 25 30 39 34 37 38 36 30 23 19
12 12 12 12 12 11 10 10 9 8 7 7 6 5 6 9 12 20 22 18 17 17 22 22 18 15 14 14 18 15 16 15 14 13 12 15 23 20 35 41 43 38 33 26 24
13 12 12 11 10 10 11 10 9 9 8 7 7 6 7 7 12 10 23 27 22 24 24 26 24 19 16 14 15 12 12 17 18 14 12 12 11 14 15 35 51 43 38 33 28
17 14 13 12 11 10 9 10 8 8 7 7 6 6 6 7 7 8 17 32 37 29 29 28 30 22 15 14 14 12 13 19 20 21 17 14 11 9 12 21 42 43 40 37 35
20 18 15 14 13 11 9 8 8 7 6 6 6 6 7 7 8 10 15 29 29 39 36 41 41 33 27 22 21 16 22 26 24 26 27 22 14 11 12 20 26 39 39 38 35
16 21 20 18 15 13 11 9 8 7 7 6 6 5 6 8 8 10 12 29 27 26 40 50 54 49 47 41 35 32 30 24 23 22 24 28 9 15 13 16 22 32 41 37 34
40 18 18 21 20 17 17 15 12 9 8 8 8 8 7 11 11 14 15 24 28 31 33 40 55 54 50 44 40 36 30 26 24 29 28 24 12 18 16 14 17 31 40 41 36
30 41 26 12 20 21 20 19 18 16 13 12 11 10 10 12 14 16 20 24 25 31 38 43 40 45 38 38 26 31 33 38 34 42 39 31 19 21 27 18 17 21 25 38 40
22 32 37 34 20 11 18 20 20 19 18 14 13 14 12 11 13 16 22 27 30 30 46 59 43 32 46 61 61 52 42 38 45 48 50 34 26 23 26 25 14 18 21 34 46
29 17 27 34 38 30 12 8 18 19 18 17 15 15 15 13 17 25 27 31 35 38 38 44 47 56 64 64 58 51 42 36 36 48 48 44 31 30 26 22 14 16 23 32 49
24 25 14 18 34 41 36 28 8 9 17 17 17 19 23 18 19 28 28 31 45 47 58 60 58 59 60 63 58 50 44 46 44 60 44 46 29 27 32 27 16 14 22 31 51
5 8 12 8 14 32 46 40 25 6 8 12 17 26 26 25 22 26 27 40 44 66 71 59 55 55 56 55 69 44 63 69 69 68 48 73 32 34 42 38 25 18 20 27 52
9 3 3 8 8 22 42 46 28 6 7 8 14 30 32 26 23 25 36 62 72 76 72 66 64 68 52 71 91 60 94 85 80 77 71 61 48 27 35 38 25 22 25 31 55
100 93 12 4 8 22 39 47 32 37 29 16 22 32 29 25 22 30 69 78 62 47 44 70 74 81 84 85 77 90 95 99 87 89 66 47 54 27 35 26 40 30 31 36 57
100 94 61 13 35 27 38 40 33 46 30 21 27 29 24 26 39 73 73 42 38 37 45 81 86 84 100 99 98 100 99 100 98 81 56 58 53 21 33 41 45 32 31 41 57
97 97 100 51 47 43 44 32 42 43 17 17 25 23 25 53 82 59 48 63 53 46 83 96 78 100 97 98 100 100 100 100 96 85 72 69 43 25 27 78 55 56 39 41 59
98 86 80 67 60 59 38 36 49 36 18 21 25 24 49 92 74 56 81 84 72 61 98 92 100 100 98 100 100 93 98 87 100 98 86 57 41 41 46 87 62 50 38 38 50
96 96 82 95 66 52 36 52 54 27 20 27 25 30 90 69 39 52 80 83 91 80 100 87 63 76 93 90 88 75 81 100 93 85 74 56 40 40 44 66 58 55 62 59 54
89 100 99 97 70 45 46 68 48 29 22 22 31 72 90 34 41 38 55 74 84 74 62 60 51 62 76 86 86 67 76 78 75 69 73 51 37 24 28 87 71 72 73 61 50
100 100 98 85 54 45 81 57 21 14 20 27 44 91 48 41 67 33 27 38 58 44 53 67 76 95 99 100 100 79 66 65 66 50 64 72 51 29 94 96 86 95 74 56 48
95 100 97 79 54 55 90 23 13 17 23 32 79 85 32 50 68 65 40 59 75 74 85 84 96 100 100 76 55 77 44 48 57 45 93 98 79 56 92 82 70 65 52 46 44
100 98 99 66 72 92 78 19 19 23 30 35 89 73 26 47 74 98 99 98 96 100 98 99 100 99 98 100 81 46 23 32 39 36 98 96 99 88 96 73 73 69 63 58 50
100 98 71 48 64 91 44 23 25 25 35 56 98 74 25 42 56 68 80 94 99 99 99 100 100 99 99 99 100 90 92 88 68 79 96 100 95 81 98 78 77 66 57 53 48
100 98 97 98 76 89 30 30 40 50 40 73 100 86 31 35 47 58 84 98 100 100 99 99 100 99 93 95 87 66 81 92 96 96 96 95 99 95 96 79 62 58 54 54 52
100 100 98 87 98 68 36 34 36 44 52 89 100 92 58 30 39 50 77 78 93 95 100 99 98 98 92 97 96 94 98 97 98 98 97 95 88 100 86 68 54 56 56 54 56

GFSSW_500_rhum_003.txt.gz
RH
20 18 13 10 8 7 7 7 8 9 7 7 8 7 6 6 6 8 9 10 11 13 14 14 12 9 12 14 15 15 11 10 12 16 22 32 52 49 38 30 28 25 23 20 20
20 16 14 13 9 9 8 8 8 9 8 8 8 6 5 5 6 9 7 9 11 13 14 16 15 11 13 16 17 15 11 10 16 18 22 25 25 49 47 39 34 30 25 24 22
20 18 18 17 16 13 11 10 9 9 10 9 8 5 5 6 6 9 8 10 13 13 13 14 16 17 13 16 16 15 9 14 17 20 18 20 18 22 41 45 46 35 28 24 23
21 17 15 15 15 16 15 15 13 11 11 10 9 7 7 7 7 11 10 10 11 14 14 14 14 16 20 14 15 14 14 15 18 21 18 14 16 14 18 34 47 43 35 25 25
23 20 15 13 13 12 14 15 15 14 12 11 11 9 8 8 8 6 8 10 12 15 16 15 19 19 19 22 18 13 14 13 16 20 20 16 11 9 8 17 31 46 43 37 28
20 23 20 16 14 13 11 12 13 13 12 11 11 9 8 7 7 7 8 8 9 10 14 16 17 16 27 26 23 18 13 13 12 14 16 18 16 11 9 11 17 29 45 44 42
46 20 23 21 17 15 14 12 11 12 12 10 10 8 7 6 6 7 7 8 9 12 12 18 20 22 30 36 28 24 18 13 12 12 15 22 17 17 14 14 13 15 32 49 47
45 46 22 24 23 19 16 15 14 11 11 11 10 8 7 6 6 7 7 7 8 11 13 16 20 21 24 46 40 31 25 18 16 20 22 34 12 18 20 20 17 14 17 31 51
33 42 44 27 23 25 22 18 16 14 12 10 10 10 9 9 8 9 10 9 9 11 17 18 19 22 25 34 48 40 35 36 23 30 28 31 17 22 26 23 20 18 15 15 29
31 24 37 38 33 18 25 25 21 18 16 15 14 12 12 12 12 11 10 10 10 10 11 18 21 20 21 30 28 51 50 48 43 45 47 31 18 24 29 22 20 20 17 15 15
68 35 19 34 33 38 20 19 25 23 21 19 18 16 16 15 15 14 14 14 14 15 18 21 20 19 31 43 38 30 42 42 41 39 38 37 27 21 22 23 19 17 17 14 16
30 50 37 18 32 31 36 26 18 19 22 22 21 20 19 18 18 18 19 19 18 19 23 22 20 29 35 36 44 46 37 32 28 29 32 37 23 22 19 20 20 21 19 15 12
3 20 27 35 20 24 33 38 34 25 15 15 19 20 20 19 19 23 26 24 23 22 22 21 20 22 26 37 43 46 51 50 44 53 52 43 27 26 24 26 29 26 21 17 12
0 3 9 10 28 23 18 33 38 40 35 22 11 10 15 16 16 21 31 30 27 24 22 19 19 35 49 48 62 58 66 68 64 62 53 55 23 30 25 24 27 28 25 20 16
74 18 10 7 14 16 27 22 27 42 40 35 30 19 10 10 14 22 31 29 24 21 23 28 33 49 47 53 67 52 68 64 62 61 53 48 43 18 30 23 22 24 26 21 20
72 72 86 69 9 7 17 19 22 32 33 39 33 29 23 18 18 24 28 27 23 35 55 64 62 54 50 54 60 62 65 69 72 72 42 45 50 19 24 26 24 24 26 27 23
100 99 100 100 72 16 7 22 26 19 26 30 33 34 40 33 22 26 28 27 61 70 59 53 46 39 35 33 35 53 81 97 100 82 47 44 55 20 23 25 27 30 32 32 29
100 83 85 100 99 81 12 18 18 18 24 30 33 36 28 17 25 28 39 73 22 27 66 71 62 57 48 69 99 100 100 100 100 91 86 86 35 23 20 26 33 37 40 35 30
100 100 100 100 100 92 31 14 20 26 26 28 32 38 32 27 28 50 62 18 23 32 90 89 72 70 93 100 100 96 93 84 100 100 100 68 42 35 33 29 37 41 40 37 36
100 100 100 100 96 74 31 19 34 33 28 31 41 34 26 28 42 62 18 28 25 32 72 86 77 74 83 98 85 81 90 100 100 97 100 66 46 40 32 38 40 47 38 45 40
100 100 100 100 96 88 33 34 40 32 32 41 41 23 23 29 70 39 31 28 40 39 46 54 74 73 81 60 73 92 92 93 90 87 71 53 54 44 48 47 41 82 64 58 51
100 100 100 100 84 57 48 56 40 33 43 42 29 20 24 59 65 39 50 37 65 85 79 77 61 52 71 96 81 95 100 99 94 59 56 57 59 67 53 46 52 66 65 73 61
100 100 100 96 69 83 78 52 37 50 47 18 12 24 43 66 31 55 83 98 100 91 94 98 91 99 99 96 85 62 83 63 57 81 46 49 76 97 44 35 52 50 72 93 80
100 100 100 95 88 99 68 47 63 52 8 9 25 28 59 67 31 57 75 68 87 99 100 100 100 100 100 100 95 76 51 38 48 45 30 57 100 62 96 100 100 99 93 90 68
87 78 81 52 76 67 55 70 84 20 22 27 30 52 77 49 42 63 70 95 97 100 99 99 100 100 100 100 100 50 28 23 36 33 51 99 100 92 90 96 97 94 97 79 64
96 79 94 100 100 74 68 96 50 44 49 42 41 63 78 41 40 53 87 98 100 99 99 100 99 100 99 100 86 27 19 40 75 84 96 99 98 98 98 96 93 79 87 84 70
99 100 100 79 100 73 81 100 54 51 64 74 55 71 96 53 30 51 76 85 98 98 100 98 100 98 98 95 82 57 79 92 94 95 98 100 99 98 97 82 76 79 93 90 74

GFSSW_500_rhum_006.txt.gz
RH
35 26 34 20 20 19 20 14 9 8 7 6 10 12 12 11 7 8 9 6 8 10 11 10 12 15 13 12 10 10 9 12 16 17 19 24 20 22 45 49 40 33 32 30 27
43 18 17 23 20 16 13 11 9 8 8 8 8 10 10 8 8 8 5 7 8 11 11 10 11 13 15 13 11 10 9 13 13 16 20 21 18 19 22 44 46 41 37 30 27
47 20 22 23 19 16 16 13 10 9 9 9 11 11 10 11 8 9 7 6 9 10 11 10 12 12 12 15 13 12 10 15 15 17 20 22 22 19 19 26 54 46 40 31 26
47 30 24 24 19 19 20 20 17 13 10 9 10 11 11 11 9 10 6 6 8 9 10 10 11 12 12 12 18 14 14 14 15 15 18 21 19 13 11 17 27 50 45 38 31
45 47 22 25 19 17 17 19 21 19 16 13 12 13 12 12 10 9 7 7 8 9 10 11 11 12 12 12 12 10 16 18 14 14 15 20 19 13 7 10 17 24 47 44 38
29 46 42 24 22 16 15 15 18 19 19 17 15 14 14 13 9 9 8 8 8 8 8 8 8 10 13 15 14 15 16 16 21 14 15 16 18 18 13 12 11 14 22 47 44
24 32 51 34 24 20 17 15 13 15 16 16 16 15 14 12 9 9 8 7 7 7 7 7 8 10 12 16 13 17 17 19 21 24 15 16 14 16 19 21 18 13 13 19 41
51 34 32 51 29 23 21 18 16 12 13 14 14 14 13 10 8 7 6 6 7 7 7 7 7 7 8 13 12 14 16 21 28 24 21 18 10 13 12 19 20 20 14 13 15
23 52 37 37 48 30 23 23 19 16 14 12 12 13 12 9 8 7 8 8 8 9 9 8 8 9 10 12 16 17 17 20 31 34 26 20 12 14 17 20 23 21 20 17 15
7 31 51 41 43 44 37 22 24 21 17 16 13 11 10 9 9 10 10 11 11 10 10 9 9 9 9 13 14 18 15 18 18 32 39 23 14 15 16 19 19 24 20 18 17
4 7 51 59 32 42 42 43 21 25 24 20 15 13 12 11 11 13 13 14 14 14 14 14 14 13 17 19 18 15 15 15 23 27 30 35 20 19 15 18 19 21 20 18 18
3 4 13 64 60 24 39 41 40 20 24 26 22 18 17 16 16 16 17 16 17 17 19 20 18 19 18 18 18 18 17 17 21 35 33 31 25 25 17 14 17 18 22 18 16
3 4 8 36 47 59 21 37 38 39 26 20 24 23 22 20 19 19 19 20 20 20 22 26 26 26 24 22 20 19 18 19 25 37 36 34 16 30 30 21 21 20 22 19 17
2 3 4 6 46 47 36 24 36 36 42 33 20 19 21 21 20 20 19 18 17 18 23 24 26 26 26 25 25 23 24 25 23 27 28 50 17 17 22 21 21 22 20 23 20
2 3 3 6 90 73 47 28 29 35 39 40 37 29 22 16 12 12 12 11 12 16 22 25 26 29 28 28 33 30 31 35 33 37 38 35 41 12 21 17 15 17 25 27 27
3 3 72 97 100 89 86 42 30 28 30 32 34 38 36 33 30 27 20 16 21 25 28 31 37 38 43 61 68 71 65 61 60 59 43 34 48 14 23 21 22 27 26 29 31
5 3 76 100 100 97 99 40 38 29 27 26 24 26 30 31 31 30 34 35 24 31 36 36 23 17 19 45 62 60 62 74 78 68 47 45 45 20 24 32 26 32 31 29 29
6 5 14 42 100 98 100 83 38 33 26 27 25 22 22 29 34 37 30 33 37 35 27 20 19 20 37 75 92 99 100 99 71 63 52 45 30 23 30 34 32 33 40 35 32
6 100 100 100 92 82 93 81 23 18 23 24 21 17 20 32 34 39 42 34 33 50 21 27 34 39 40 86 100 100 100 97 100 100 97 50 22 19 25 33 39 34 40 34 35
81 100 100 93 100 91 98 61 36 12 13 22 20 21 26 29 40 39 33 34 60 40 29 56 54 49 47 68 68 74 96 92 94 95 86 69 43 27 34 45 43 36 29 34 34
80 100 100 100 100 100 90 58 36 12 14 18 18 18 29 41 41 32 27 64 38 46 56 81 58 62 63 51 88 100 84 92 100 99 80 55 38 48 38 35 38 35 30 31 31
61 99 100 98 100 100 91 61 75 28 25 21 20 24 40 41 33 23 66 39 70 93 70 80 69 83 89 90 74 64 60 65 58 51 66 63 29 55 63 49 34 41 38 38 42
100 100 87 100 99 75 68 95 68 36 30 27 27 37 39 32 23 59 38 57 72 72 72 98 91 96 99 100 100 99 100 98 97 86 54 48 48 75 90 91 55 50 46 48 49
100 100 100 100 82 100 100 98 54 42 39 36 38 47 32 18 56 47 41 69 87 92 97 100 100 100 100 100 100 100 100 100 91 56 35 45 88 100 100 94 70 57 100 100 76
100 100 72 60 77 98 100 89 60 50 43 44 49 20 23 45 70 35 56 86 99 100 100 98 99 100 100 100 100 100 100 29 18 30 44 49 94 100 100 99 82 78 83 88 80
100 92 100 100 100 99 99 74 56 56 60 39 32 31 37 80 61 40 66 94 100 98 94 99 98 100 98 99 82 50 27 20 22 36 78 92 100 97 100 71 76 65 75 84 98
99 97 90 100 93 84 68 73 100 88 49 32 55 42 75 78 57 42 68 93 99 97 97 100 98 97 98 99 78 33 56 91 80 88 92 100 96 99 99 97 99 99 100 98 97

GFSSW_500_rhum_009.txt.gz
RH
45 29 28 29 26 27 25 24 22 24 22 16 9 7 7 6 6 8 12 11 11 9 7 10 9 9 11 12 10 10 8 10 15 17 18 19 19 18 17 19 43 40 36 32 33
33 31 32 36 33 21 28 23 21 19 19 12 10 8 7 6 6 10 12 12 9 7 8 8 8 9 10 11 9 10 10 10 11 17 20 21 21 18 14 15 21 41 42 36 36
63 17 41 45 41 21 18 22 20 16 14 14 11 9 9 8 9 19 14 11 9 7 6 7 8 9 10 11 11 10 12 12 11 13 14 15 16 15 11 13 17 20 40 41 36
54 28 17 46 45 23 21 22 18 17 15 13 12 11 10 10 12 15 12 11 8 6 7 7 8 9 11 12 11 8 13 15 14 13 14 15 14 13 10 13 14 15 17 40 42
32 43 18 31 46 28 24 22 20 20 22 20 16 12 12 13 15 14 12 11 8 7 8 7 9 9 10 12 11 10 12 12 14 16 14 15 15 15 12 10 12 12 14 20 42
27 26 44 18 48 40 24 24 18 18 22 23 23 17 13 16 14 16 13 11 10 8 8 8 9 9 10 12 11 12 13 14 14 13 14 16 16 14 16 16 11 11 10 13 19
6 14 26 49 31 50 26 25 20 16 18 21 22 21 20 17 16 17 14 12 10 8 7 7 7 8 9 10 10 10 11 13 18 19 13 14 12 12 18 20 13 12 16 13 13
6 6 10 46 40 40 49 24 24 17 15 16 20 20 20 17 17 16 14 13 10 8 8 7 7 7 7 7 7 9 10 13 16 20 19 17 11 15 15 15 18 15 15 18 16
7 5 5 14 51 41 46 43 24 21 16 14 15 16 16 18 17 16 14 10 9 8 7 7 7 7 7 8 8 12 10 12 15 17 18 16 12 16 16 14 14 16 12 11 17
3 6 4 5 39 54 41 50 34 23 20 17 15 13 14 14 14 10 8 7 7 7 8 8 8 8 8 13 11 9 7 8 10 14 14 14 10 14 15 15 15 15 14 10 13
3 3 4 4 8 64 60 37 50 26 24 23 18 15 12 13 12 10 9 10 10 12 12 10 9 11 14 14 13 12 12 11 12 15 16 15 12 11 15 13 15 15 14 12 12
3 3 3 4 7 23 62 54 42 46 24 25 22 19 16 12 11 10 10 13 15 14 14 14 14 17 19 19 20 19 18 17 17 17 17 16 14 13 13 14 15 18 17 14 14
3 2 3 4 7 40 52 59 46 46 43 24 25 24 20 16 13 14 15 16 16 17 18 18 19 19 20 21 23 25 24 24 23 22 21 19 14 16 15 14 16 19 23 24 20
5 3 3 4 4 11 22 56 59 36 47 42 24 23 25 24 20 19 18 18 18 19 19 18 18 16 16 18 25 23 24 26 25 24 21 23 15 14 18 17 17 17 25 27 29
6 4 4 3 4 84 77 56 48 44 44 46 41 28 21 23 24 24 22 21 20 18 15 12 12 12 16 27 33 32 32 32 39 34 27 23 23 10 15 17 17 29 23 31 30
5 6 4 3 68 100 100 94 98 84 30 40 43 43 37 26 19 19 18 17 18 20 19 19 26 31 32 35 21 15 19 24 16 23 44 33 30 16 16 19 18 26 38 29 26
18 7 5 4 63 100 100 100 100 90 61 30 35 39 43 40 37 36 33 32 32 30 29 30 32 36 38 21 24 37 29 20 21 37 42 58 57 24 21 20 21 21 38 41 28
67 6 5 61 100 100 100 100 100 91 77 34 29 28 29 29 31 34 31 30 32 34 34 36 35 41 36 29 44 25 30 26 90 100 97 98 67 31 29 28 28 29 38 42 38
71 7 5 50 96 100 100 100 92 89 64 50 28 24 25 23 22 22 29 34 34 36 36 32 35 38 34 51 52 31 29 48 96 100 100 92 64 43 37 38 37 39 38 44 36
74 6 4 90 82 100 99 93 100 88 59 54 31 27 26 23 21 28 27 28 36 33 30 37 36 44 61 69 64 41 37 40 55 95 98 83 58 46 46 48 39 33 33 41 39
48 7 88 100 100 100 99 100 77 71 56 47 41 34 30 23 26 26 33 35 31 28 44 55 55 65 75 73 70 53 54 77 64 79 100 80 65 50 41 36 32 29 24 35 40
30 9 99 100 100 100 100 90 77 58 57 36 22 22 23 25 25 35 37 34 29 47 64 82 67 53 50 73 91 94 99 100 98 92 63 64 33 45 40 53 52 26 26 24 38
98 89 66 82 82 99 62 87 92 90 50 21 14 14 20 28 30 38 34 32 47 81 85 79 65 68 65 86 100 100 100 100 100 100 82 76 34 66 62 52 78 46 31 24 36
100 100 100 70 94 98 91 100 96 82 54 17 12 16 30 33 36 33 26 49 88 76 61 64 73 84 84 97 100 100 100 100 100 82 95 63 67 68 78 67 80 99 49 35 40
100 85 85 88 100 100 98 100 100 88 65 25 25 34 36 40 34 22 46 77 90 74 89 74 85 81 93 100 97 92 58 46 39 40 54 64 70 99 61 72 100 89 65 60 48
100 68 69 89 99 94 73 82 89 87 53 49 46 39 44 35 24 36 45 77 88 94 93 88 96 93 100 97 88 68 60 27 26 35 66 68 78 65 99 94 85 97 72 69 64
92 72 68 80 100 100 99 100 85 63 62 53 49 46 34 19 22 59 40 76 100 92 90 92 89 84 93 99 99 96 100 83 79 94 97 99 95 100 100 99 93 93 100 100 96

GFSSW_500_rhum_012.txt.gz
RH
94 80 62 31 35 30 30 26 25 21 19 19 18 17 15 10 8 9 9 9 7 8 8 10 11 11 8 9 10 10 8 8 11 16 16 17 16 14 14 14 15 22 35 33 32
50 71 79 54 67 67 49 34 25 27 20 19 20 20 18 13 9 8 7 6 7 8 12 12 12 9 7 10 9 8 8 12 11 13 15 17 16 15 14 13 14 15 17 27 36
14 43 62 78 47 36 42 41 24 21 27 21 21 23 22 17 10 8 6 7 7 8 15 12 10 6 7 9 8 8 10 12 12 10 9 12 13 14 12 10 15 15 14 15 34
6 12 35 50 80 74 46 44 31 19 22 22 21 18 16 12 10 11 7 8 8 8 16 12 8 7 7 7 8 8 11 12 13 12 10 9 9 10 11 10 11 11 11 12 14
8 6 14 29 40 41 22 46 34 23 21 20 17 15 14 14 12 13 11 12 13 9 15 12 8 6 6 8 8 8 12 12 13 14 12 11 11 11 10 13 11 12 12 12 13
10 8 7 7 29 33 31 39 40 24 24 20 18 17 17 14 17 14 14 14 16 14 13 12 7 6 8 9 8 9 11 13 14 14 12 12 13 10 14 15 11 11 12 13 12
13 12 8 8 8 22 42 25 47 25 26 20 19 20 23 21 21 20 19 20 16 15 12 10 8 7 10 10 9 9 12 12 16 16 12 12 11 10 15 15 12 11 11 13 10
10 8 10 8 6 9 22 43 42 36 26 22 18 20 23 23 26 30 25 21 19 16 14 10 10 10 11 11 12 10 10 12 17 14 12 12 12 13 16 16 15 15 12 12 14
8 8 7 7 7 6 8 53 41 56 26 25 18 17 20 22 23 28 32 25 19 15 12 11 10 10 12 12 10 11 9 10 12 12 10 10 9 14 14 14 14 14 14 10 14
5 5 5 5 6 5 5 34 53 70 36 26 24 17 17 19 20 24 30 27 20 15 12 10 9 8 12 12 11 9 7 7 9 10 10 10 6 11 13 12 13 13 13 13 10
3 3 3 4 5 22 73 10 58 56 50 24 27 20 17 17 16 19 23 24 19 15 12 9 8 11 13 12 11 11 10 9 10 12 10 10 6 8 11 12 11 12 15 14 13
4 3 3 3 4 55 81 36 51 81 55 30 27 24 17 15 15 15 14 13 10 9 8 9 11 12 13 14 14 14 14 14 14 14 14 11 7 9 10 13 15 14 13 17 19
24 4 4 3 4 72 65 15 55 69 54 50 24 26 22 17 14 14 14 12 13 12 13 13 13 17 16 17 17 18 17 18 18 17 16 16 8 13 13 13 15 16 14 16 19
85 11 5 4 4 16 63 100 61 97 67 52 33 26 26 22 18 14 12 12 13 14 15 16 17 18 19 18 17 15 16 14 14 14 15 14 12 12 13 13 16 18 18 17 20
100 35 6 5 4 24 100 100 97 99 100 63 47 28 26 27 23 19 16 15 15 16 18 17 18 18 16 14 12 12 14 20 28 31 27 21 22 14 14 12 12 15 20 22 19
100 100 11 6 6 100 100 100 100 94 99 81 50 44 27 25 27 25 23 21 21 21 21 18 13 14 16 20 26 27 30 36 34 20 18 20 16 14 13 16 17 17 18 21 22
100 96 10 5 6 100 100 100 100 99 94 88 44 46 42 29 24 24 24 24 22 18 16 24 28 28 29 28 32 36 38 38 30 32 32 24 14 10 8 7 13 23 26 22 23
81 48 6 5 47 100 99 100 99 62 73 65 40 36 45 44 37 32 24 20 23 31 32 31 30 30 36 40 41 42 40 40 58 50 38 22 17 22 14 12 18 44 40 30 25
97 74 6 4 61 96 78 100 86 82 98 95 62 29 38 41 42 40 38 36 35 34 33 29 31 34 35 38 41 42 52 70 68 60 61 41 31 47 23 28 63 84 91 47 32
100 24 5 7 63 96 100 100 99 100 100 100 84 33 32 33 31 27 26 27 29 29 29 31 33 34 38 49 61 67 62 81 99 98 97 69 80 46 34 57 100 87 72 69 47
100 8 6 98 100 100 100 100 100 100 100 94 93 37 28 28 27 27 28 28 28 28 34 30 29 38 57 61 56 52 75 78 99 100 100 97 75 95 42 52 95 62 54 50 48
43 11 33 100 100 95 100 100 100 100 94 87 87 55 32 30 30 30 25 26 30 33 30 36 43 53 51 57 55 68 88 100 100 100 93 99 35 100 92 78 69 84 59 44 39
16 6 95 89 99 98 100 100 96 97 81 75 76 70 48 35 33 30 27 28 37 30 39 58 54 47 51 70 81 66 95 99 97 86 60 100 55 90 98 100 66 46 67 46 34
14 21 99 86 94 100 98 97 94 96 75 64 50 61 46 35 29 26 27 33 29 40 68 55 55 53 71 87 79 69 76 40 49 25 71 71 75 92 95 82 39 30 55 35 29
64 69 70 59 100 100 94 97 91 98 87 55 37 36 28 21 25 26 33 27 38 75 71 65 66 73 78 87 85 88 82 86 50 26 37 73 70 97 100 65 53 32 64 32 21
60 78 73 63 85 69 81 100 100 100 95 70 36 27 22 31 30 34 32 35 76 82 74 82 87 91 91 97 96 98 94 83 79 82 63 92 100 96 100 92 62 88 100 36 20
50 41 42 36 71 89 99 100 99 94 84 66 42 30 38 37 33 34 23 48 76 85 90 98 98 92 91 98 97 83 75 69 75 82 88 83 89 99 100 100 100 87 58 44 49

GFSSW_500_rhum_015.txt.gz
RH
12 38 74 96 75 68 87 40 27 26 24 21 21 18 16 15 12 10 9 10 10 12 13 14 14 12 10 12 13 13 8 7 10 13 15 14 11 14 12 12 12 14 23 20 27
6 8 22 57 95 60 49 52 36 35 29 27 23 20 17 16 17 15 10 8 9 11 12 12 13 12 10 11 12 11 8 10 14 13 11 11 12 13 9 12 12 14 15 16 21
8 7 6 8 43 76 82 53 51 43 39 28 26 22 21 19 18 19 15 11 8 9 10 10 8 8 10 12 11 9 8 13 10 13 11 9 10 11 10 11 13 14 16 15 15
14 9 7 6 10 38 59 80 58 68 55 39 26 24 22 21 19 18 16 14 9 8 8 7 7 8 11 13 12 7 9 10 11 11 12 11 10 10 8 10 10 12 13 10 16
19 18 13 8 7 8 31 47 73 67 48 39 20 24 24 21 21 19 17 15 11 8 8 8 8 7 12 13 10 7 9 8 10 11 12 11 10 9 8 11 10 9 9 10 11
20 18 17 15 9 7 9 25 52 58 78 40 24 22 23 21 19 18 16 15 12 10 9 9 8 8 13 12 10 7 8 9 10 11 11 10 11 8 10 12 10 9 9 10 10
19 17 15 15 14 9 7 6 22 47 29 43 26 25 21 20 18 18 17 14 13 14 14 17 12 15 15 11 9 8 11 11 11 12 11 10 10 9 13 11 10 10 10 10 9
12 14 16 14 12 11 8 6 7 28 34 47 27 28 22 21 21 19 16 16 16 16 16 16 22 17 14 10 12 11 10 12 11 13 11 10 10 11 12 11 11 10 11 11 11
4 4 8 11 13 11 9 8 5 9 46 45 30 30 22 22 23 24 22 18 19 20 19 19 20 16 14 13 12 14 14 15 14 14 10 10 9 13 11 14 11 12 11 12 11
3 3 3 4 6 10 10 8 6 7 50 42 39 29 23 21 23 24 24 24 22 25 24 25 25 21 17 14 16 17 16 18 18 16 13 9 7 11 11 14 12 12 13 12 12
3 3 3 3 3 4 8 7 99 40 95 51 47 28 29 23 22 22 23 25 26 29 28 30 24 28 24 17 14 15 16 16 16 16 12 8 6 6 8 9 13 13 14 14 13
16 28 18 5 3 4 5 28 98 26 99 91 87 29 29 24 22 20 20 22 27 31 30 30 31 31 20 15 14 13 14 13 13 13 11 11 7 8 9 9 10 10 12 12 13
83 94 72 8 4 4 4 72 98 61 100 82 95 33 29 25 20 18 17 20 27 29 29 27 24 21 20 16 15 15 13 13 13 12 13 12 7 13 8 9 11 13 13 14 16
99 100 100 13 5 4 74 100 100 66 61 94 92 43 28 28 21 16 16 18 16 19 16 15 19 20 18 18 18 16 16 16 16 15 14 13 9 9 10 10 10 12 16 15 16
100 100 100 43 5 4 100 100 100 92 100 100 91 55 27 28 22 17 16 17 17 15 18 16 18 19 18 18 18 17 17 15 12 11 12 14 18 8 15 16 17 15 13 12 15
100 98 98 44 6 19 100 100 100 100 93 87 82 65 28 27 25 24 18 15 15 15 16 14 16 17 18 18 16 12 14 21 25 25 21 22 33 12 16 20 17 16 15 15 16
91 86 66 48 5 88 100 100 100 100 82 94 85 62 41 27 28 24 22 20 19 18 17 18 19 20 16 14 22 26 26 27 26 27 22 35 40 15 18 31 34 30 25 22 17
94 100 57 8 6 100 100 96 100 98 71 79 98 74 50 31 27 29 28 27 24 23 23 21 19 17 25 29 28 26 24 34 36 34 31 43 42 32 38 31 35 30 18 16 12
90 90 13 4 12 100 99 100 100 89 64 100 97 64 49 45 31 26 24 25 23 22 20 19 23 31 31 27 26 26 35 40 41 50 58 38 44 43 47 47 61 56 46 34 23
93 46 8 4 16 99 99 100 100 94 84 99 96 43 41 46 44 41 37 34 31 30 32 35 34 29 24 29 33 31 34 56 65 52 69 34 40 47 81 63 80 45 46 39 29
84 100 6 4 84 100 100 98 97 100 87 83 86 74 40 42 44 44 43 40 37 36 34 28 26 26 30 33 37 48 53 58 74 78 78 51 22 75 77 70 76 85 82 75 83
74 44 5 36 99 100 100 100 95 91 80 100 100 65 38 36 37 38 38 34 29 26 26 26 30 31 38 48 53 56 59 67 75 87 74 60 27 52 78 95 99 65 58 67 81
39 10 5 75 100 100 100 100 100 100 100 100 95 66 41 34 35 34 30 29 23 26 29 34 33 48 52 60 54 59 76 77 92 98 70 79 41 93 92 78 100 86 50 45 74
14 13 56 97 96 99 92 81 100 100 100 94 95 98 67 45 37 36 31 28 28 32 32 33 49 56 62 62 63 69 72 86 100 94 90 57 45 70 99 98 99 96 61 36 56
73 90 86 90 96 85 92 100 100 100 89 89 94 95 89 62 46 36 29 25 30 30 35 51 74 68 73 80 86 92 83 78 79 94 75 81 93 99 99 99 100 98 62 37 43
88 89 99 95 77 78 94 87 100 100 86 69 64 66 77 72 57 38 23 27 32 39 65 83 88 78 83 89 90 85 67 52 55 69 70 78 98 88 100 100 84 72 51 27 34
63 61 83 90 97 98 93 93 90 81 83 74 64 51 45 43 33 18 25 32 40 60 90 92 89 85 96 96 91 78 58 55 62 70 67 92 97 93 100 99 96 79 95 39 41

GFSSW_500_rhum_018.txt.gz
RH
9 8 7 8 28 74 70 77 66 42 28 23 25 34 29 25 20 15 14 11 11 13 15 15 16 16 15 14 13 12 10 10 12 12 11 14 13 9 9 10 11 10 14 12 10
16 11 8 7 7 19 44 94 90 68 39 26 26 28 25 29 25 20 18 12 9 11 12 15 14 15 14 15 13 12 10 10 13 11 10 11 10 8 8 11 10 10 14 10 12
18 19 17 10 7 6 10 37 93 60 88 59 27 28 30 30 21 26 17 16 13 10 10 12 13 13 13 13 13 12 9 12 13 10 9 12 11 10 10 8 9 11 11 11 12
21 19 19 18 16 8 6 9 43 81 57 82 47 32 28 26 22 22 20 19 18 14 10 10 12 12 13 12 11 10 9 13 13 9 8 10 12 8 9 9 9 10 10 10 10
17 18 19 18 18 19 9 6 8 32 82 48 52 42 29 27 24 22 22 21 21 19 14 10 10 11 11 11 10 7 7 13 13 8 7 10 10 10 8 8 12 11 10 10 7
8 9 15 18 18 18 19 10 6 8 45 89 50 52 35 25 26 22 22 21 20 19 17 12 10 9 9 9 8 6 6 11 12 10 10 8 9 8 8 11 10 9 8 8 8
4 3 4 8 20 19 18 18 9 6 13 52 96 70 52 33 26 25 22 21 21 19 17 14 11 10 9 10 8 8 11 13 11 11 9 9 8 8 10 10 9 8 8 8 9
4 4 4 4 6 17 20 17 16 8 6 22 84 95 65 34 26 24 22 21 18 17 23 16 12 10 9 8 10 15 12 14 12 10 9 9 8 11 8 10 8 8 8 9 10
11 10 8 6 5 5 18 19 15 11 7 19 32 66 91 31 25 23 20 19 20 20 63 30 13 11 12 14 19 21 16 16 11 10 10 10 8 12 9 10 8 8 9 9 10
11 9 7 4 3 4 5 16 15 12 10 100 21 48 51 41 27 22 23 22 21 23 25 18 14 13 22 26 27 23 18 14 12 9 13 10 8 10 10 9 10 10 10 10 10
21 24 34 35 6 4 4 8 14 12 12 9 16 46 42 36 29 24 24 25 24 23 19 20 17 17 30 26 26 21 17 15 13 12 12 13 9 10 11 9 12 11 10 12 12
65 88 90 100 45 4 4 6 10 26 26 33 76 50 44 33 28 23 24 24 25 27 25 23 22 36 30 28 28 23 20 21 24 22 12 15 12 11 10 9 8 10 12 13 11
90 89 100 95 54 7 5 6 9 48 31 34 46 54 48 32 30 26 24 24 26 28 29 34 41 35 32 30 28 27 23 22 18 18 14 12 9 10 8 7 9 9 9 9 10
100 100 100 99 65 7 5 79 100 52 40 54 100 88 68 35 31 25 22 22 21 25 30 35 37 36 33 31 27 22 17 18 18 16 13 12 8 9 9 10 10 12 14 11 10
67 83 87 95 47 8 7 100 100 100 100 54 99 95 97 38 30 23 22 21 23 26 30 36 34 30 29 28 18 19 18 18 17 16 13 13 11 6 7 8 10 12 11 13 15
74 90 95 100 59 5 45 100 100 100 94 76 97 92 85 33 28 23 19 19 23 20 20 23 24 26 25 20 18 18 17 18 16 14 11 13 15 5 7 13 16 17 17 15 16
100 81 75 82 14 20 100 100 100 100 76 82 81 88 89 31 28 22 19 18 22 25 22 22 26 22 19 18 18 18 17 14 15 16 13 20 12 7 13 20 20 21 19 21 25
94 79 57 26 4 73 100 100 100 100 83 38 48 94 90 30 28 27 24 20 17 16 18 18 17 19 20 20 18 16 18 29 22 16 12 19 10 12 15 17 24 29 24 22 21
98 88 30 6 8 98 100 100 100 100 100 92 86 98 79 36 28 28 25 25 23 22 24 23 20 21 21 20 21 24 27 27 26 25 17 14 17 21 32 45 33 24 28 27 28
64 44 12 5 43 99 100 100 100 99 100 78 98 85 75 46 28 28 28 30 30 28 26 24 22 21 24 31 30 26 27 29 29 28 21 17 26 36 65 69 53 35 38 37 32
25 59 6 28 95 100 100 100 100 100 96 91 98 100 79 50 39 31 31 29 26 25 24 24 26 32 33 28 25 32 30 33 37 36 42 25 27 55 76 69 50 46 50 51 51
18 9 71 93 100 100 100 100 100 100 82 95 85 72 80 55 50 46 40 38 39 40 41 39 32 25 27 31 32 29 41 47 46 61 51 56 21 58 78 64 75 71 89 86 72
5 17 93 91 100 98 96 77 82 71 68 81 98 75 44 46 48 48 46 47 45 42 31 28 27 30 35 37 45 50 51 54 61 57 53 54 42 75 96 100 95 98 93 100 98
14 45 94 97 91 94 94 97 98 98 99 100 100 99 45 45 46 45 45 40 33 26 24 27 32 36 45 61 60 57 59 67 69 48 46 64 39 90 93 100 98 98 100 99 99
57 58 81 90 92 95 95 95 100 100 100 100 99 98 54 44 39 38 34 30 27 26 26 31 39 51 73 71 71 61 71 77 53 64 62 71 83 90 100 98 100 94 100 100 100
72 63 58 65 70 65 74 96 93 95 100 99 97 98 99 71 50 40 35 32 25 26 31 41 81 87 82 77 62 80 79 62 66 60 57 68 80 96 98 59 86 97 79 37 29
52 61 47 45 60 60 62 77 75 81 83 76 74 70 91 84 81 66 48 31 24 33 43 85 91 95 86 71 71 72 70 61 63 59 47 55 90 96 93 59 47 71 88 39 38

GFSSW_500_rhum_021.txt.gz
RH
16 18 21 18 10 9 7 18 65 68 81 63 82 23 29 32 23 19 17 15 12 16 16 15 15 16 17 17 17 17 11 10 11 11 14 13 10 10 8 7 11 11 10 8 7
11 13 16 20 20 12 8 7 9 61 76 73 60 59 25 27 31 19 24 17 12 13 17 17 17 18 16 18 16 14 12 12 14 14 13 11 9 8 6 6 13 11 11 10 10
8 10 11 14 20 20 15 8 6 7 72 78 65 53 32 26 24 42 25 19 16 14 13 16 17 16 16 17 15 13 10 13 14 13 12 10 10 7 7 7 11 12 11 10 9
11 10 10 11 9 18 21 17 9 6 7 80 95 68 39 28 26 30 38 28 20 18 13 12 14 16 16 14 15 13 12 13 14 12 10 11 10 7 8 9 8 12 10 8 10
8 8 8 9 11 9 17 21 18 10 7 14 90 79 76 29 28 28 28 34 29 24 19 15 11 12 15 16 15 12 12 12 13 11 9 10 9 7 8 8 11 10 10 9 8
8 9 8 11 19 16 10 20 21 18 12 6 72 66 69 70 31 28 26 27 28 25 23 19 16 11 11 12 12 12 11 10 10 10 7 10 10 6 7 10 9 10 8 9 8
24 23 19 15 11 8 18 19 25 21 19 10 8 78 77 68 59 32 28 26 24 23 23 23 21 15 11 10 11 11 12 12 11 11 8 11 9 6 10 8 7 8 9 8 8
14 12 13 14 13 11 6 14 25 25 20 16 7 21 77 64 52 33 28 26 23 23 23 22 22 21 15 11 10 10 10 10 16 10 9 9 8 8 8 7 7 8 7 8 7
10 14 17 14 11 10 9 6 16 26 22 16 13 8 60 72 53 40 28 27 25 22 57 26 23 20 17 14 10 9 10 11 13 14 10 8 8 8 7 7 7 8 7 7 8
27 37 48 43 32 11 6 6 9 21 22 18 18 12 35 82 90 51 31 26 25 26 28 58 54 37 20 16 13 13 11 10 12 13 10 9 7 8 7 7 8 8 8 7 8
66 88 100 90 86 60 6 5 6 16 20 40 16 17 47 73 100 74 34 26 24 23 22 33 43 92 99 29 14 12 12 14 22 17 15 14 9 7 8 7 9 8 9 10 10
80 98 92 85 100 66 12 4 8 15 78 67 42 26 64 77 95 79 31 28 23 25 20 20 25 76 40 18 15 13 16 23 26 21 10 12 10 8 8 9 10 12 11 12 11
63 65 79 78 100 64 10 5 10 18 98 89 26 68 48 63 62 91 37 25 26 26 24 30 40 38 25 20 25 23 18 22 22 22 17 12 9 9 9 10 13 13 13 12 11
95 97 85 72 100 60 7 7 12 87 88 24 18 21 42 58 50 49 48 24 22 24 26 28 30 30 30 27 33 26 25 26 24 22 17 12 8 9 10 11 12 12 10 9 9
100 100 93 69 100 71 6 56 35 100 100 99 21 77 62 53 44 40 26 22 23 23 24 29 34 37 47 39 29 28 25 25 21 17 14 13 10 6 10 11 12 10 9 10 11
99 100 80 63 78 18 57 88 95 100 100 94 51 46 47 50 42 33 25 22 23 20 21 28 43 58 50 37 31 26 23 22 18 15 12 12 10 6 7 8 11 11 11 11 12
89 90 78 50 27 25 98 82 99 100 68 36 26 64 97 78 52 31 25 22 20 22 25 38 43 38 33 30 23 22 21 19 16 14 10 9 7 6 11 14 13 14 15 17 17
49 54 31 8 40 100 98 100 100 82 37 38 51 60 70 93 62 29 26 20 19 24 26 41 34 32 30 28 22 18 21 20 16 13 10 10 8 9 13 18 25 23 22 20 21
22 16 8 16 96 100 100 100 93 94 78 44 70 82 83 92 32 28 24 20 19 26 30 27 29 26 23 22 22 25 22 22 20 18 13 14 13 12 19 37 43 38 39 49 49
6 29 80 100 98 100 100 100 100 100 96 81 74 51 50 70 29 27 25 24 24 24 21 22 24 26 25 24 23 23 25 23 23 19 16 13 15 22 50 41 38 46 56 57 65
38 81 100 100 100 100 99 100 98 88 78 68 61 74 87 54 28 28 30 29 30 28 26 28 28 30 28 24 26 30 28 23 23 24 27 22 26 68 45 43 46 55 73 84 99
68 82 100 100 100 92 99 100 88 95 100 91 73 63 90 58 32 32 32 31 32 30 28 27 27 34 33 33 29 24 25 27 38 41 36 42 35 52 56 45 33 38 64 94 100
63 91 83 81 88 86 82 80 88 98 86 92 98 92 93 59 44 32 31 31 30 33 38 40 38 32 26 27 26 31 44 44 43 48 61 44 39 63 49 57 64 62 52 81 100
58 63 65 61 65 82 89 88 82 78 89 94 88 82 88 58 52 50 45 46 45 46 42 34 28 28 31 32 34 55 54 54 60 52 46 52 30 48 59 63 74 50 46 93 100
53 47 49 55 53 51 72 66 75 82 79 88 85 93 56 54 53 51 50 49 45 38 29 25 29 35 32 44 60 57 69 63 58 62 50 44 50 59 74 82 85 26 33 53 46
41 44 39 47 57 65 66 74 76 79 94 94 95 88 93 43 45 48 41 35 31 28 26 29 34 58 73 82 68 75 68 69 79 67 57 50 52 45 62 74 81 23 38 46 32
37 37 41 39 47 55 55 66 64 72 88 92 90 84 95 57 38 35 33 33 31 25 28 36 66 89 88 81 83 85 85 89 81 69 61 56 56 56 66 82 91 25 36 43 53

GFSSW_500_rhum_024.txt.gz
RH
18 14 11 10 10 10 18 18 10 9 54 83 78 76 93 36 30 23 22 20 18 19 20 19 17 16 11 10 11 10 7 7 10 13 14 14 12 12 9 7 7 8 6 6 6
15 13 11 10 8 10 12 20 17 8 7 29 77 80 77 77 33 25 29 24 18 16 16 21 22 18 13 14 14 10 6 10 14 16 14 14 10 10 9 8 7 6 8 6 6
14 11 9 9 9 10 12 20 22 16 9 7 70 84 71 60 43 39 27 26 21 17 14 16 21 17 16 16 12 12 8 14 16 19 16 12 11 9 8 8 7 6 8 6 6
9 6 9 11 11 14 16 14 25 23 20 10 9 70 92 69 64 28 37 30 26 22 16 14 16 20 19 17 16 12 13 15 16 17 15 12 11 11 9 10 8 8 8 6 6
8 10 17 24 30 14 25 22 22 30 25 21 8 28 94 69 72 45 25 39 29 26 22 18 14 17 20 19 20 15 15 15 16 14 12 11 11 11 11 10 9 7 7 6 6
9 17 23 11 14 30 22 23 25 30 30 27 21 26 71 91 77 54 32 36 39 33 25 21 17 14 16 20 18 14 16 14 15 13 12 12 11 10 11 14 9 8 7 7 7
13 12 10 11 13 13 26 22 21 32 34 32 23 22 20 100 96 57 46 38 38 39 33 27 22 16 14 14 17 17 16 15 15 16 14 13 10 6 10 12 8 7 7 7 7
23 19 38 42 35 14 14 22 15 25 36 35 24 100 26 97 97 94 36 38 51 34 37 35 30 22 20 13 12 14 14 14 17 16 15 13 7 8 8 10 7 7 8 7 7
46 38 43 84 60 30 16 15 15 18 32 34 24 44 21 79 100 99 67 38 35 30 29 30 31 27 23 17 14 11 10 11 14 13 13 11 8 9 6 7 9 8 7 7 8
71 63 59 58 82 90 29 11 12 13 26 31 66 56 22 37 98 100 89 34 35 34 57 46 28 22 21 20 18 16 13 10 10 10 11 10 8 9 8 8 8 8 7 7 7
96 74 80 83 81 90 60 10 8 11 25 30 34 40 53 50 96 97 97 58 44 54 72 81 62 27 23 24 22 19 17 14 11 10 8 9 8 8 13 8 10 10 8 8 8
100 100 99 100 79 99 76 10 6 12 30 49 50 58 46 38 95 98 97 69 79 74 68 60 64 78 100 80 34 21 19 16 13 10 8 8 7 8 10 10 9 9 8 9 11
100 100 100 99 73 98 60 8 6 16 42 100 84 74 91 69 82 99 100 89 62 44 36 30 34 43 51 72 68 48 27 17 14 12 10 8 7 9 12 12 11 9 9 10 13
100 94 100 89 70 100 41 4 8 24 83 53 53 48 69 82 83 98 93 69 71 59 29 31 29 30 34 51 54 26 18 17 17 16 11 11 9 10 12 10 11 11 11 14 16
100 97 100 92 57 100 15 5 19 98 100 99 92 58 100 65 73 83 72 41 30 28 30 32 28 29 28 29 21 22 21 20 18 16 12 15 10 9 12 12 12 13 13 13 13
87 86 98 80 66 83 6 12 77 100 100 100 80 84 79 44 68 71 85 50 30 26 25 27 30 31 32 30 26 28 30 26 22 20 13 16 11 9 10 10 11 12 11 11 10
65 39 39 53 37 20 10 82 100 100 99 92 38 72 35 50 57 64 43 38 29 25 24 25 30 31 29 26 29 35 36 28 22 18 14 13 11 10 11 13 13 13 12 11 11
7 42 18 20 82 50 73 100 100 90 66 34 26 44 63 53 49 42 42 29 24 24 26 26 32 37 43 42 33 30 25 22 17 14 13 12 9 11 18 20 15 13 13 14 14
80 77 100 49 63 100 100 98 87 76 74 33 50 63 55 54 51 38 31 25 24 24 31 28 38 38 34 28 28 28 22 19 18 15 11 14 14 16 30 25 21 22 20 22 24
99 100 93 77 94 94 94 79 58 64 60 44 35 73 67 67 74 36 30 25 24 29 32 37 43 33 31 30 24 22 21 23 22 18 16 14 15 50 44 38 32 29 33 34 31
93 82 75 98 80 100 63 59 72 53 40 40 66 80 78 93 62 32 30 26 22 25 28 29 28 26 24 25 25 24 22 25 26 22 20 24 37 34 34 26 33 40 34 34 39
39 34 45 82 63 45 49 43 60 67 75 75 68 67 84 100 44 32 30 28 24 24 28 29 28 28 26 26 27 31 28 23 23 24 38 44 47 50 31 44 46 42 34 39 40
36 56 32 20 29 50 71 73 62 78 68 56 44 69 83 60 34 29 31 29 30 30 30 30 27 28 30 33 29 24 26 29 34 47 59 47 45 32 29 32 50 37 39 30 28
35 30 21 50 37 40 47 74 77 75 82 80 81 74 79 52 33 30 30 30 30 30 30 34 38 36 30 26 26 32 34 46 58 57 50 55 43 43 39 31 39 51 32 27 35
20 23 34 35 38 45 52 54 56 62 72 72 79 87 86 56 43 38 34 35 36 41 46 40 31 26 25 26 32 44 61 74 70 60 48 58 46 38 32 40 52 48 22 33 42
27 28 25 27 32 37 39 46 55 53 52 69 69 81 82 84 57 53 51 51 49 45 38 30 27 27 27 35 53 72 81 73 64 54 60 53 42 39 46 52 57 51 25 32 39
15 29 26 24 23 25 32 43 53 60 71 68 76 78 85 75 64 70 50 45 42 36 30 27 31 33 52 66 72 77 84 68 71 62 58 55 47 45 62 60 56 62 24 29 40

GFSSW_500_rhum_027.txt.gz
RH
28 26 23 20 17 14 13 13 10 14 18 12 27 79 75 62 90 41 25 30 28 28 24 26 27 28 30 31 28 25 18 13 17 18 14 13 9 8 7 6 6 6 6 7 6
23 19 13 10 9 9 10 12 12 11 21 15 9 73 89 70 76 72 41 31 26 25 26 26 26 22 19 19 21 21 16 15 21 15 15 13 10 9 8 7 8 7 7 7 6
16 10 9 10 11 13 15 12 15 13 25 24 11 17 78 90 73 89 55 32 28 24 22 25 27 24 18 15 12 12 12 13 18 14 15 14 11 10 9 9 8 8 7 6 6
10 11 12 12 22 23 27 26 12 20 30 32 26 8 38 82 80 82 77 40 30 30 22 19 20 23 21 17 14 10 9 12 16 17 16 13 12 9 10 10 10 10 7 6 5
14 22 25 32 20 24 19 30 33 16 33 41 33 18 9 56 96 80 98 48 38 31 27 21 18 17 20 22 19 13 13 16 17 19 15 14 12 12 10 11 10 10 9 6 5
30 43 68 32 23 32 14 18 43 18 33 45 39 29 12 41 98 96 98 72 43 37 30 27 20 16 16 20 21 15 16 16 18 18 16 15 14 13 12 13 13 12 11 7 5
49 78 83 44 49 69 44 24 32 34 24 45 44 30 36 49 73 100 99 97 65 49 36 31 30 21 15 15 20 18 19 19 17 19 17 17 13 10 11 13 11 10 10 8 5
89 100 87 66 72 72 74 31 20 36 21 43 46 30 17 100 75 99 96 98 96 70 47 34 29 28 21 15 15 20 18 18 19 19 18 16 9 12 12 12 9 7 8 9 7
95 100 100 88 84 90 95 51 17 32 21 40 47 30 26 66 57 99 97 97 98 92 74 48 40 31 28 19 15 14 16 17 20 18 17 14 9 13 12 11 10 8 7 8 9
79 100 100 100 95 98 84 97 17 31 20 41 45 30 23 36 64 99 100 95 100 98 95 83 48 38 29 21 16 15 14 14 15 16 15 13 10 13 13 11 9 8 8 8 9
75 100 100 100 98 100 84 99 18 26 22 38 38 54 99 98 64 95 100 97 94 98 93 84 45 33 34 29 27 19 15 12 12 12 11 11 9 10 12 10 10 9 8 8 10
75 100 99 100 100 89 87 65 14 20 34 37 36 98 100 74 100 98 95 95 92 98 89 86 65 41 33 30 26 21 17 17 18 15 10 9 8 9 10 10 9 9 8 10 10
95 91 89 79 94 76 99 18 11 20 36 36 43 41 64 56 98 71 97 99 90 96 92 99 97 100 95 35 23 20 20 20 20 18 15 15 13 10 9 9 9 9 8 9 11
100 98 100 80 80 99 96 10 12 28 32 33 77 100 73 60 61 100 98 98 94 99 97 95 99 92 95 91 78 53 45 36 28 22 18 18 15 15 12 11 10 11 11 12 12
22 72 100 77 69 99 17 7 20 33 59 64 38 60 45 42 54 87 100 85 89 97 88 81 63 72 92 68 90 70 68 59 34 26 20 16 15 14 17 15 14 13 11 11 10
10 27 46 59 71 9 6 31 56 100 100 62 74 84 89 64 61 93 99 92 98 97 85 55 42 33 28 30 28 33 42 25 19 16 15 16 14 14 15 15 15 14 13 11 11
38 12 20 14 6 7 21 77 100 97 96 88 92 75 68 72 64 98 99 79 80 68 73 56 34 30 27 26 24 23 21 19 19 17 16 17 13 16 15 14 11 11 12 12 11
76 9 8 27 17 60 100 100 88 58 38 54 55 56 73 67 75 96 97 61 50 47 44 32 37 28 27 26 29 24 25 22 20 20 19 15 13 15 15 17 11 10 9 9 9
10 30 60 61 82 81 98 98 72 99 77 64 66 89 44 55 71 88 67 57 39 32 42 28 26 30 31 34 41 45 36 33 25 18 15 14 14 17 17 14 13 11 11 12 13
35 33 48 50 37 50 58 50 59 88 77 64 52 20 54 55 53 83 49 40 31 27 26 27 28 36 46 49 46 41 33 26 20 15 15 13 16 22 16 16 17 25 24 24 24
27 30 53 40 35 52 46 36 46 47 24 32 68 62 72 64 52 42 44 29 25 24 33 33 45 52 44 36 32 27 24 22 21 19 15 14 27 31 26 30 29 24 22 22 29
37 25 22 30 32 32 29 32 29 34 55 54 72 82 84 97 95 37 31 26 24 30 36 40 41 32 29 26 24 24 23 24 24 20 19 21 45 50 41 33 28 24 25 30 37
22 35 28 35 41 46 47 42 33 41 62 68 62 74 74 79 54 31 31 28 26 26 30 32 29 28 26 26 26 28 28 26 22 23 40 45 53 38 36 42 36 28 25 21 26
21 18 26 40 43 51 64 53 56 61 64 46 42 58 79 72 34 30 29 28 29 32 32 30 29 27 28 30 30 27 25 24 29 52 61 57 59 55 52 43 37 37 35 38 26
25 23 19 21 26 37 34 48 66 62 56 70 83 71 91 59 38 29 29 30 31 31 32 33 35 38 35 27 27 29 29 38 61 63 76 59 54 44 38 32 44 44 46 33 25
25 26 22 24 22 25 30 32 27 37 54 65 72 83 88 60 48 38 34 31 33 35 40 44 39 32 25 25 29 35 50 65 76 73 45 63 50 36 30 50 43 45 53 33 31
16 18 29 25 26 24 34 33 34 31 41 57 60 71 72 73 63 52 52 49 47 47 45 41 33 27 24 29 47 74 75 80 78 53 50 38 36 37 49 41 40 40 48 57 40

GFSSW_500_rhum_030.txt.gz
RH
26 20 18 18 15 12 11 11 12 13 16 16 13 18 33 44 95 77 74 43 39 33 32 44 64 74 51 41 34 33 26 17 17 21 28 24 17 13 11 10 7 6 6 8 7
20 20 17 13 13 16 19 17 16 14 14 16 16 20 24 48 81 90 89 77 43 36 31 31 38 62 68 52 41 34 22 19 21 28 34 26 17 13 11 9 8 7 7 8 9
18 15 12 15 24 35 47 52 30 32 17 25 27 24 20 47 44 78 78 94 54 38 32 31 32 33 54 62 42 30 21 22 30 35 37 27 19 14 11 9 9 8 7 8 8
15 12 19 45 83 90 83 42 33 28 34 22 38 35 23 30 66 78 74 98 91 48 36 30 30 27 27 46 44 30 26 25 31 32 34 26 19 13 10 9 9 10 8 8 8
10 15 57 92 99 94 54 49 42 58 42 22 41 46 29 23 100 99 97 97 98 86 40 33 27 28 28 24 22 20 20 19 20 20 21 21 16 11 9 10 10 11 10 9 8
9 24 88 100 100 76 67 75 65 53 54 29 38 50 37 15 34 72 100 94 99 96 48 36 29 24 25 27 25 19 16 19 19 17 16 14 12 9 10 13 12 12 10 9 8
17 39 100 100 100 85 85 96 70 65 43 36 35 53 40 20 36 72 93 98 98 92 52 40 36 26 21 21 23 21 19 20 19 20 14 12 9 7 14 15 14 12 11 9 8
15 38 100 100 100 100 98 100 97 63 31 38 42 54 40 23 28 60 99 94 93 94 50 46 38 33 24 19 18 18 19 18 20 22 16 14 9 10 14 15 15 14 12 10 9
28 88 100 100 100 100 100 99 96 56 36 33 48 53 42 22 20 79 85 100 96 100 86 50 40 34 29 22 18 16 15 17 21 22 19 13 10 13 14 14 13 13 12 10 9
72 63 94 100 100 100 100 100 100 38 41 35 52 53 33 44 98 81 95 99 97 100 99 69 49 35 30 25 18 16 15 16 19 21 19 13 8 14 15 14 12 12 14 13 11
100 92 77 82 97 99 95 99 71 29 37 44 52 46 28 100 100 100 98 100 100 98 92 87 62 38 31 27 26 23 18 15 14 16 17 14 11 13 16 15 14 13 13 12 12
75 98 100 84 87 81 87 100 26 38 33 51 51 40 35 89 86 74 98 100 98 98 100 98 77 52 44 33 28 24 22 21 19 15 13 13 11 14 15 14 13 13 13 12 12
12 89 82 98 65 81 100 34 31 28 49 50 46 34 27 35 64 100 95 97 99 99 100 93 88 88 54 40 35 28 24 25 22 18 12 11 10 11 10 10 9 9 9 10 10
5 46 89 68 69 91 29 21 27 47 77 42 77 32 97 97 55 82 92 100 97 98 100 99 92 85 68 47 37 31 29 26 24 19 14 13 9 12 14 15 13 11 9 8 8
7 11 30 50 30 12 14 26 55 100 100 84 100 72 94 98 82 87 96 98 97 99 98 87 100 100 98 98 59 36 27 24 21 17 14 14 11 19 20 19 18 16 14 11 9
42 39 12 8 9 13 22 36 90 96 85 66 70 76 48 38 43 66 92 100 94 100 100 95 98 99 99 100 100 100 71 68 54 38 23 26 22 23 21 18 17 16 15 14 12
31 64 65 20 27 23 34 41 81 59 97 94 86 62 48 30 50 87 92 98 99 98 90 86 97 96 94 97 97 65 81 67 43 40 25 23 19 19 19 18 17 15 14 13 12
42 46 82 50 98 97 53 54 94 34 40 50 70 41 28 30 60 85 92 99 96 95 100 84 82 81 81 61 39 32 26 29 28 25 22 20 19 19 18 17 14 13 12 12 11
24 34 54 63 46 53 49 53 32 43 54 51 82 64 48 61 67 91 100 100 100 95 85 84 76 57 40 30 30 32 24 29 24 21 22 22 22 17 15 13 12 11 10 9 10
27 37 36 46 46 52 58 44 43 44 44 41 37 50 55 66 82 98 78 67 73 73 69 58 45 38 33 29 29 32 35 37 27 26 27 22 19 16 14 12 11 10 18 26 21
37 27 45 35 33 42 41 52 38 46 46 68 67 69 63 74 90 93 85 74 54 34 34 42 37 30 31 35 42 44 46 40 33 23 19 18 22 17 13 13 16 25 29 23 20
30 40 26 42 44 30 32 33 31 33 52 81 68 64 66 68 64 88 47 52 34 28 33 41 35 43 44 46 44 40 34 27 24 23 21 22 24 16 23 39 40 32 27 25 21
22 27 43 34 43 40 28 24 32 43 50 71 67 63 79 87 73 46 42 33 29 34 41 47 48 40 37 31 28 27 26 24 23 25 25 27 28 29 46 39 29 25 29 26 21
23 23 26 33 39 39 51 58 61 62 47 42 38 64 71 88 75 34 32 31 29 29 32 33 31 27 27 27 28 27 26 28 26 26 30 47 54 48 40 31 30 40 29 30 36
21 25 26 23 24 30 36 41 36 43 52 63 55 48 72 78 38 31 32 30 31 34 34 31 31 29 28 31 32 31 29 26 30 36 63 56 58 42 37 42 29 31 29 30 34
17 19 24 28 29 28 23 37 35 28 48 59 65 82 79 58 42 34 30 32 32 33 32 31 34 39 38 32 27 27 29 34 49 69 70 57 51 46 37 27 27 25 30 29 39
20 17 17 19 24 31 36 41 53 44 43 56 57 67 80 70 53 44 39 36 33 32 31 35 41 38 34 27 27 32 39 56 71 75 71 56 41 36 31 29 30 37 42 48 48

GFSSW_500_rhum_033.txt.gz
RH
53 40 28 20 16 13 12 15 17 16 18 21 24 25 23 15 15 26 51 53 63 63 40 36 48 95 70 87 45 36 32 21 20 22 26 28 27 21 17 16 14 13 11 8 8
32 21 14 10 9 13 18 25 29 24 18 16 16 25 24 21 16 25 46 80 76 65 51 35 36 79 86 76 69 39 28 23 22 29 31 30 26 22 18 16 14 12 11 7 7
20 11 7 13 17 29 60 59 51 50 48 38 30 20 26 23 27 28 47 95 90 67 63 39 36 42 96 80 75 46 30 28 29 38 35 28 27 22 18 16 14 12 10 8 8
8 6 18 9 35 100 100 97 95 99 92 66 53 32 31 36 38 44 97 93 92 94 79 44 35 35 66 86 87 56 38 33 39 40 35 29 26 23 19 18 14 12 10 8 8
8 20 10 37 95 100 100 100 95 85 53 36 48 49 29 42 41 38 96 92 95 95 97 55 37 33 34 56 68 59 46 45 49 42 36 30 24 22 21 20 16 13 10 8 8
6 11 39 98 100 100 100 98 92 77 69 67 61 45 32 41 50 52 86 93 94 92 97 64 40 33 32 32 38 64 66 63 47 45 37 30 26 20 20 22 18 13 11 10 9
9 28 94 100 100 100 100 100 97 94 83 87 100 44 34 37 48 52 100 87 100 93 99 86 49 36 30 31 32 35 62 51 33 29 26 24 22 17 23 20 17 14 12 11 10
6 82 86 97 96 100 99 100 100 100 99 93 80 39 38 43 52 100 99 100 100 96 98 95 69 41 30 32 29 29 28 42 43 20 18 16 14 13 15 17 17 14 13 12 11
6 100 79 67 63 95 100 100 100 99 74 100 56 35 52 41 87 94 89 93 100 98 100 100 70 44 36 28 29 26 24 24 25 20 17 14 14 13 14 14 15 14 15 15 15
14 58 100 95 78 77 85 96 100 99 70 70 46 39 52 39 36 42 60 93 97 99 100 100 76 46 38 29 25 23 22 21 21 22 21 15 11 15 17 14 15 17 18 18 16
20 19 91 96 94 100 82 91 98 56 56 46 43 49 48 35 26 29 53 86 100 100 98 83 73 46 34 33 26 22 20 18 18 18 17 16 10 14 17 18 18 16 17 17 16
11 11 63 75 69 80 91 84 37 44 44 44 64 56 37 25 16 35 92 97 98 100 99 90 77 52 41 36 34 28 23 20 17 16 15 15 13 18 19 17 16 15 15 15 16
30 11 20 46 59 58 31 34 42 38 50 58 55 40 51 68 54 85 99 86 89 100 98 100 98 59 46 37 32 30 27 25 21 17 14 14 13 16 17 17 14 13 14 14 15
41 33 13 14 19 31 37 36 43 57 54 53 52 82 100 100 100 100 100 100 100 100 99 100 98 91 59 45 38 32 30 29 26 20 18 15 13 16 13 12 12 12 12 11 10
45 29 20 25 28 35 46 58 60 68 90 61 51 92 67 97 98 98 98 100 100 100 99 100 98 99 92 60 49 43 37 31 25 22 19 17 15 17 14 13 11 10 10 10 10
73 40 19 24 57 100 90 62 100 100 98 46 36 45 43 37 86 79 90 94 98 100 99 100 99 98 93 86 63 51 43 35 28 23 18 18 16 21 17 16 15 15 16 16 16
69 54 36 42 65 62 56 53 87 77 100 100 75 99 76 49 43 70 100 98 100 100 100 97 100 93 100 100 97 63 49 43 36 26 21 32 32 27 22 20 20 19 18 18 17
36 46 46 28 37 42 39 49 54 42 68 70 72 40 58 59 65 76 92 96 98 100 100 100 95 99 97 100 100 100 100 92 62 64 53 46 34 23 21 19 18 17 17 15 15
23 28 38 38 35 28 35 50 60 56 51 41 34 33 25 39 50 86 89 98 100 99 100 97 94 92 92 95 95 91 81 52 50 47 35 30 25 24 22 21 19 17 14 14 12
39 24 23 30 39 40 32 35 32 40 56 49 41 47 42 49 72 91 93 86 93 100 100 98 89 84 82 86 77 51 47 43 36 32 28 30 24 23 20 17 16 14 12 11 10
44 44 24 22 34 36 31 33 34 41 40 45 49 53 61 76 88 97 96 94 92 96 91 80 66 69 64 52 36 32 30 33 40 34 34 30 24 20 17 15 13 12 12 13 20
33 51 45 22 18 21 20 25 25 31 33 31 49 49 57 66 88 92 92 80 84 60 48 60 60 53 41 36 33 31 34 38 41 38 27 22 21 17 14 13 16 21 27 31 27
22 36 51 52 39 22 18 20 26 26 47 56 53 63 66 68 69 76 71 66 57 38 29 31 34 30 34 42 41 43 43 40 33 25 25 22 18 15 18 25 38 37 30 23 15
17 19 26 36 67 66 65 57 57 54 41 53 46 69 80 87 83 71 48 35 28 26 33 38 45 48 43 37 35 32 27 25 26 31 29 25 20 25 39 43 35 26 17 17 28
18 18 18 21 26 44 68 62 49 51 60 52 42 40 69 83 86 51 33 31 27 29 33 35 35 32 31 30 30 29 30 31 32 29 30 26 37 45 48 40 24 21 26 22 18
22 18 19 20 21 19 22 34 39 40 62 66 72 65 77 76 44 32 31 30 30 32 35 34 33 31 30 35 37 35 32 31 30 31 39 53 65 54 46 27 27 26 18 17 26
30 22 19 18 20 21 25 31 43 39 46 67 71 79 84 62 46 40 31 33 32 32 32 33 35 39 41 37 30 27 26 30 34 47 59 74 66 50 45 30 31 26 22 24 36

GFSSW_500_rhum_036.txt.gz
RH
74 49 30 20 12 9 10 14 15 15 16 26 35 39 31 33 23 16 11 24 72 50 57 44 38 59 86 92 63 76 53 34 25 29 31 30 27 23 21 20 18 16 14 14 16
39 18 10 6 6 9 10 12 16 19 21 18 21 44 41 34 34 23 15 16 73 65 50 59 40 44 80 92 76 78 64 36 28 30 32 33 31 25 22 20 16 15 15 15 14
13 9 7 8 5 15 61 63 82 98 95 41 27 23 34 42 38 30 24 26 27 82 53 55 60 44 46 84 83 74 62 42 32 33 33 32 31 29 24 21 19 17 16 15 13
16 19 24 22 54 95 100 100 100 100 100 84 60 37 27 23 34 34 27 26 17 55 79 50 72 75 52 59 93 70 68 47 41 42 39 32 33 32 27 20 18 17 16 15 13
24 20 25 95 100 100 98 100 100 100 100 100 99 75 62 29 22 32 38 35 29 29 85 64 64 84 63 51 67 88 70 72 53 46 40 34 32 35 30 22 19 17 17 15 13
24 13 52 100 97 88 96 99 100 100 91 84 74 74 70 52 24 39 70 55 36 36 91 85 69 77 53 59 56 88 71 80 71 52 40 38 35 32 32 27 20 19 18 16 13
42 26 63 95 88 88 95 98 98 100 92 73 50 35 43 61 33 33 65 75 70 54 97 94 81 73 72 53 48 61 88 89 80 65 43 37 32 28 33 31 23 20 18 18 15
34 20 45 100 76 84 96 100 100 100 93 75 79 81 28 59 34 31 100 68 100 100 99 97 96 81 54 52 45 51 82 97 98 75 49 40 30 25 29 30 27 22 19 20 18
26 14 41 99 96 83 70 85 97 98 90 81 88 100 49 45 33 39 54 50 81 100 89 96 99 93 56 48 41 49 46 88 95 88 73 53 32 28 27 28 26 23 20 21 18
15 16 32 75 92 100 87 84 84 83 90 69 92 90 52 34 49 82 57 100 96 89 98 100 100 84 56 54 50 47 53 56 52 71 77 61 42 22 20 18 18 18 21 20 18
14 17 19 46 62 89 91 97 82 65 67 100 87 60 42 63 100 100 94 100 98 96 89 100 96 70 58 56 38 43 32 33 34 35 47 56 57 20 16 18 20 17 17 17 15
14 18 16 21 34 37 37 41 54 80 76 66 63 55 48 72 100 100 93 99 83 89 99 99 83 76 55 46 36 38 42 28 35 27 28 41 52 19 17 16 17 18 16 16 16
15 22 28 34 38 42 46 48 50 70 89 79 70 45 39 78 54 59 81 100 99 99 97 100 86 86 60 42 35 30 29 26 24 32 23 19 19 19 19 17 13 14 17 17 16
30 41 30 36 42 49 48 55 88 100 100 66 50 37 33 37 32 47 91 100 86 98 100 100 100 98 63 46 38 36 30 26 23 20 20 18 17 16 15 15 14 13 14 15 15
25 36 39 42 47 56 63 61 92 95 94 56 44 31 26 26 46 99 100 100 100 98 98 95 99 95 80 50 41 36 34 33 30 25 21 20 20 18 15 13 13 14 14 14 13
22 32 45 73 76 66 66 50 53 49 73 68 87 100 68 70 100 100 99 100 100 100 100 99 98 98 87 54 44 40 37 35 33 30 26 23 21 19 16 14 13 12 11 11 10
16 22 30 50 75 60 62 40 49 67 92 83 90 93 94 100 100 100 100 99 99 100 100 100 100 100 100 94 64 49 44 40 36 30 25 24 21 19 16 14 12 11 10 10 10
18 14 18 31 43 41 49 58 32 42 59 74 58 45 54 98 94 96 83 98 99 100 99 100 96 100 100 100 93 78 57 49 41 35 30 27 22 19 18 15 13 12 12 14 17
32 20 15 18 33 43 47 57 28 45 67 44 70 66 53 49 86 99 100 97 100 100 99 98 98 100 99 100 100 100 85 77 62 55 42 42 32 35 32 23 18 17 18 18 18
20 32 27 14 23 23 27 33 41 47 33 31 26 29 38 52 69 90 87 95 95 100 96 93 96 92 97 98 99 99 99 100 97 84 78 63 51 39 27 23 22 21 20 19 17
32 19 31 24 17 23 27 28 36 35 30 26 24 25 25 40 56 74 88 81 80 89 98 100 94 93 95 94 98 91 82 74 60 45 42 37 34 30 26 25 23 19 16 14 12
35 31 20 27 25 23 22 23 22 24 22 23 28 40 56 62 70 76 89 91 86 87 85 87 89 84 85 89 84 86 72 44 39 45 40 39 33 28 24 22 19 16 14 13 12
29 34 25 19 21 23 26 29 27 29 23 30 37 45 54 64 72 77 76 83 90 86 76 62 68 63 54 52 42 40 33 32 32 39 46 35 29 25 21 19 16 16 16 24 32
14 26 34 34 24 37 52 59 54 36 50 50 55 58 68 71 67 80 82 82 85 70 46 34 37 41 48 45 44 44 41 40 39 41 33 27 24 20 20 18 21 28 36 30 26
20 15 20 30 53 60 54 42 48 58 70 47 40 40 59 71 73 68 52 45 42 34 36 39 46 48 47 48 47 48 45 38 31 28 25 26 22 20 28 32 41 38 28 16 14
93 21 19 18 24 33 40 34 32 38 58 69 78 61 55 82 82 67 38 30 28 26 30 34 40 40 37 36 32 31 30 29 29 30 30 24 26 28 49 54 44 26 19 20 19
100 55 23 18 19 16 20 24 29 28 32 60 70 85 89 95 71 50 32 31 31 31 30 32 33 33 33 34 37 37 35 33 31 29 27 30 35 50 68 54 32 26 27 26 21

GFSSW_500_rhum_039.txt.gz
RH
41 27 19 13 14 14 11 18 22 14 12 19 31 43 51 49 34 26 20 12 20 65 45 39 40 50 70 96 91 80 62 70 58 58 39 36 42 40 35 36 34 28 26 23 17
24 22 20 25 28 18 12 16 22 25 14 27 26 20 31 52 50 29 27 18 16 28 66 45 43 44 56 98 84 66 73 57 71 65 40 34 39 39 35 32 29 24 20 18 16
23 23 30 38 23 29 73 98 100 100 95 76 44 34 20 42 49 29 33 28 20 14 45 59 51 49 51 94 94 64 71 63 74 67 40 33 41 37 34 29 26 23 20 18 16
22 31 34 22 25 99 97 95 93 100 98 100 100 96 30 20 44 57 46 37 26 20 17 61 54 58 48 88 90 73 76 68 73 65 37 38 43 38 34 32 24 21 20 17 16
26 22 21 18 86 96 91 83 83 100 96 99 98 99 88 27 27 57 58 46 34 34 19 37 70 58 51 72 75 85 88 85 68 69 46 41 36 42 34 31 28 22 20 18 17
13 14 20 28 100 91 78 94 92 94 99 100 100 98 88 52 30 35 85 51 59 82 22 17 79 54 62 53 63 71 96 93 77 80 75 45 37 40 38 30 29 26 22 19 17
9 14 16 63 100 95 80 88 87 100 90 83 86 99 100 84 43 32 76 76 100 71 53 23 72 79 58 63 54 58 78 98 95 96 92 54 38 32 42 37 29 25 21 19 19
8 9 12 84 99 86 85 78 92 100 100 100 92 92 78 96 61 54 66 65 61 79 65 26 40 97 62 66 74 75 58 72 98 96 92 66 44 43 44 38 32 27 23 20 21
9 12 10 35 68 93 97 74 87 97 96 76 55 50 60 70 64 45 71 56 50 64 56 39 37 93 82 69 80 80 75 80 97 95 95 70 54 44 41 40 38 34 28 24 22
11 17 24 22 52 83 98 86 88 82 84 71 80 88 56 62 56 62 88 55 77 69 47 44 54 92 95 86 76 69 69 79 92 96 92 74 55 48 38 43 41 38 31 26 23
16 17 26 29 25 27 55 92 95 90 80 90 87 100 43 60 43 96 95 79 77 98 79 65 63 79 60 71 70 71 58 63 78 84 94 92 57 52 45 39 37 36 32 27 22
30 22 31 37 71 59 52 85 100 100 100 85 92 81 72 46 44 79 55 88 46 77 75 87 76 97 93 88 69 63 61 60 87 67 84 95 76 50 56 40 26 23 21 20 18
60 44 42 78 98 100 100 91 98 100 100 100 98 74 81 67 44 39 33 97 90 80 76 78 92 100 96 92 69 64 56 43 69 65 76 81 79 82 71 56 27 18 17 16 15
70 70 53 69 78 100 88 68 84 88 100 79 95 100 100 100 100 85 91 100 76 92 99 98 100 100 100 96 64 60 56 39 45 63 45 56 46 59 78 45 29 18 16 14 13
34 62 84 42 49 76 83 74 84 96 99 100 98 100 100 100 84 100 100 100 97 97 91 93 100 99 100 82 52 50 49 32 33 72 58 57 36 29 21 33 52 38 20 15 14
30 52 47 30 34 46 62 64 54 58 60 63 92 80 74 73 96 99 100 91 99 100 99 100 99 99 98 96 59 51 41 33 30 50 72 42 28 31 25 18 16 15 14 14 13
17 36 40 30 30 45 59 51 28 32 60 38 44 61 51 100 100 100 100 100 99 100 100 100 99 99 100 99 73 48 42 39 35 31 44 46 30 25 22 20 18 16 13 12 11
21 16 30 35 28 33 56 61 39 30 59 63 25 33 68 84 100 100 99 100 100 100 100 100 96 99 99 97 88 54 45 44 38 34 33 41 34 27 24 20 17 15 13 12 11
24 20 21 25 32 26 34 45 47 48 46 54 57 67 96 98 96 96 99 100 100 100 96 97 100 100 100 100 99 76 50 43 42 36 35 34 31 28 22 19 16 14 13 11 11
20 25 16 15 24 30 30 32 42 32 36 43 40 42 39 65 86 84 85 99 100 99 100 100 100 99 100 100 100 93 81 69 56 55 45 40 36 30 26 21 17 20 18 17 17
16 22 20 22 18 21 30 38 42 33 24 23 24 34 42 51 59 66 68 75 89 94 95 100 96 98 97 100 100 98 100 92 90 69 68 69 50 35 31 28 24 24 23 20 19
18 20 22 22 23 23 24 32 35 33 25 22 22 27 27 32 49 62 72 64 66 77 85 86 91 96 96 98 96 99 99 99 99 99 85 65 60 56 46 39 32 26 24 23 22
16 22 17 21 20 20 20 26 29 23 20 23 27 39 50 54 60 72 69 75 68 64 77 83 83 86 83 83 87 89 99 97 96 86 56 50 42 39 35 32 29 26 23 19 15
24 27 30 19 20 18 18 20 24 29 28 29 39 46 54 62 61 71 78 78 84 88 83 77 69 68 69 63 62 77 77 68 61 46 41 46 40 40 35 30 25 21 18 16 19
69 17 30 37 26 30 34 38 48 40 32 43 46 46 61 75 70 72 79 81 84 80 62 47 38 39 50 55 52 48 44 42 36 44 42 57 45 34 30 28 22 21 23 41 45
100 49 17 25 39 46 50 49 38 43 46 59 52 34 33 47 77 68 64 55 58 53 61 64 52 53 46 45 42 43 44 47 49 43 42 36 30 25 27 29 33 40 56 46 29
97 100 46 20 19 33 50 50 34 29 30 48 59 67 67 55 78 90 67 51 34 32 29 29 35 41 44 42 40 37 34 35 32 33 32 30 30 24 29 40 58 65 50 27 26

GFSSW_500_rhum_042.txt.gz
RH
38 28 22 16 18 23 30 39 39 36 28 18 16 21 62 70 99 97 52 30 19 18 47 46 48 43 96 93 78 96 97 97 91 93 95 95 57 52 54 45 41 48 42 37 42
27 13 12 10 12 13 17 19 18 23 24 21 20 16 18 32 59 86 63 45 32 18 41 45 48 51 59 90 90 92 92 94 96 100 99 97 88 45 50 48 41 40 42 38 35
10 7 5 6 11 28 39 93 94 95 94 96 91 63 30 18 23 55 70 56 47 33 16 52 47 52 50 68 92 89 83 99 96 98 96 97 87 44 42 46 42 38 38 36 35
6 5 6 8 56 97 100 99 95 95 98 100 92 100 100 42 22 29 68 75 55 49 30 21 58 46 52 46 74 85 86 98 97 98 96 96 88 55 38 44 42 38 34 33 28
6 6 7 10 77 94 99 84 87 93 99 99 100 100 97 88 29 22 53 70 69 61 42 16 37 66 47 50 50 79 96 98 99 90 93 97 93 76 42 38 40 38 33 29 26
8 9 8 28 84 99 98 85 81 80 94 81 89 100 100 100 81 26 30 71 86 62 52 28 16 67 65 55 52 53 93 97 98 77 84 88 97 88 50 38 37 36 32 26 24
15 27 31 13 84 100 97 83 71 93 88 75 90 100 100 100 90 42 31 85 94 99 67 43 17 28 79 60 55 50 67 94 96 70 89 97 93 72 52 39 38 39 34 28 23
21 43 75 42 22 42 70 86 64 100 92 89 82 92 100 79 60 45 29 73 92 83 72 51 30 19 74 76 65 53 59 86 95 88 98 88 75 76 57 45 40 36 34 30 26
24 42 67 100 46 38 74 78 74 92 100 83 69 82 92 86 77 62 69 75 90 92 90 62 41 21 30 79 66 67 55 70 82 94 99 90 82 75 57 48 38 36 34 30 26
20 39 52 88 97 87 52 65 75 72 65 69 56 49 58 92 62 57 87 61 80 76 100 92 54 37 22 76 73 62 57 52 73 74 93 97 92 91 59 48 48 42 38 34 28
23 42 70 52 95 100 100 88 89 92 86 73 62 62 41 85 72 46 91 97 94 99 64 70 50 29 20 24 81 65 65 60 63 71 83 89 100 97 77 50 53 48 43 35 30
36 35 62 55 53 50 100 100 96 97 77 80 99 64 65 56 68 94 100 87 86 87 82 60 41 44 43 44 86 89 63 68 74 80 83 82 93 97 93 60 52 53 42 37 34
32 34 45 45 49 73 100 81 65 79 70 56 54 62 82 95 100 78 77 80 79 60 46 36 35 40 44 64 84 89 68 69 72 64 69 93 90 92 82 65 58 50 43 37 34
36 21 35 39 39 42 65 86 56 72 70 66 49 57 100 100 100 100 100 68 54 62 55 53 64 64 55 67 93 85 84 72 74 67 54 95 75 79 97 76 64 59 44 33 25
39 27 27 37 36 51 48 59 85 100 100 100 100 68 68 100 93 87 100 88 58 62 57 51 81 92 88 99 100 97 83 72 68 58 54 81 75 70 82 83 78 66 62 52 29
16 30 27 40 38 28 37 48 64 76 97 100 100 78 100 85 58 56 90 100 91 48 75 87 97 100 100 100 99 96 86 71 58 52 53 64 82 67 72 58 84 75 66 52 35
13 18 26 37 32 33 32 43 50 51 69 82 100 100 98 65 50 80 100 86 81 85 97 99 92 100 100 100 91 93 92 81 56 56 59 52 84 66 68 57 30 30 52 52 52
18 16 27 20 29 34 31 31 44 39 28 79 97 99 99 99 99 100 88 82 98 96 100 100 94 100 99 95 100 100 100 88 56 59 58 46 57 79 64 45 47 25 21 18 16
19 17 20 29 33 31 37 53 50 44 24 18 40 75 97 99 100 100 100 97 98 99 99 97 100 100 100 100 99 95 95 73 60 49 51 42 40 52 63 57 40 25 22 19 17
18 18 13 21 23 26 33 39 40 34 41 40 46 62 68 82 86 96 99 100 100 93 95 97 98 100 100 100 100 100 100 78 61 51 43 40 36 34 38 45 52 33 22 18 16
38 23 19 12 16 25 23 26 41 44 27 29 38 40 37 56 74 84 95 99 100 100 100 99 100 100 99 90 98 96 94 92 74 51 45 43 36 32 33 32 29 26 22 17 16
94 23 21 17 14 22 23 28 36 43 33 25 24 23 24 28 34 44 56 71 85 87 99 100 100 100 100 100 100 98 100 96 86 73 61 57 47 40 36 34 30 27 26 22 19
51 63 23 20 21 24 27 27 33 33 29 24 25 30 47 54 55 59 60 62 58 63 74 78 91 96 93 95 92 99 100 100 100 95 96 96 79 67 60 59 44 37 37 32 27
8 74 31 28 20 21 22 24 27 30 34 31 39 42 47 53 61 60 67 68 67 70 70 64 73 80 83 88 85 91 87 93 96 93 97 97 79 62 50 50 53 48 39 33 28
5 43 44 36 30 20 19 21 25 30 29 42 43 47 50 54 58 65 72 81 78 86 89 86 85 77 69 69 69 65 64 73 75 80 83 81 70 65 56 45 40 35 31 27 22
7 18 78 27 41 41 21 33 45 52 49 55 46 39 36 34 35 70 68 79 81 85 86 66 52 42 40 45 53 58 55 51 51 54 47 39 47 42 45 41 36 30 26 22 20
10 8 83 46 29 36 42 40 52 42 39 42 51 61 68 64 49 48 78 66 58 52 64 67 64 60 52 52 47 50 47 46 45 47 53 42 57 47 36 30 32 27 34 42 62

GFSSW_500_rhum_045.txt.gz
RH
36 11 6 6 6 5 7 10 13 17 26 28 19 19 22 30 79 99 94 97 56 24 21 47 43 46 50 72 92 97 97 96 96 96 97 97 90 82 70 53 52 50 47 46 51
21 7 7 7 6 6 51 78 85 72 36 25 29 30 31 24 20 73 99 100 88 49 17 41 48 51 49 54 87 96 94 87 99 92 98 88 91 69 69 67 54 50 49 48 46
10 8 9 10 8 27 100 100 100 100 100 93 51 32 39 38 23 21 49 100 97 77 33 20 56 54 54 48 78 95 84 100 97 98 97 97 95 95 67 64 60 52 48 46 47
12 12 16 23 17 50 89 98 93 80 90 89 93 77 28 27 34 24 26 77 100 95 52 19 35 53 56 48 55 84 96 97 99 98 96 97 95 96 82 64 55 55 46 40 40
14 19 26 37 59 51 97 85 81 81 93 95 96 99 92 100 79 24 21 33 100 97 79 37 18 47 51 53 52 53 95 98 98 94 98 98 97 99 84 84 54 50 50 42 38
15 25 30 44 66 43 85 100 87 71 80 84 94 88 100 100 100 66 27 24 88 97 89 69 26 25 59 53 56 48 68 97 99 77 96 97 98 96 98 82 61 45 48 44 39
16 24 32 34 74 86 39 44 79 67 96 82 78 96 94 100 100 83 68 29 54 100 100 80 54 19 36 62 52 54 54 82 92 89 95 96 93 95 100 89 71 42 41 44 39
28 24 28 59 94 100 69 38 70 65 83 93 72 80 100 100 100 89 73 80 41 100 99 95 68 37 25 60 57 52 54 52 58 93 96 98 77 98 97 84 84 57 40 40 39
27 28 31 46 78 100 88 76 54 78 75 67 85 98 88 83 94 60 74 55 48 77 93 99 76 46 30 32 74 57 54 51 46 68 97 97 78 83 84 83 73 67 44 40 39
26 29 32 39 65 96 64 86 92 82 65 59 71 79 76 69 70 53 68 58 92 100 100 96 96 53 27 15 18 36 48 50 49 51 94 98 77 94 82 74 77 64 49 39 38
26 22 28 34 48 47 52 84 86 74 67 52 49 62 59 49 49 48 69 82 99 100 84 91 83 46 30 17 18 46 73 62 57 54 86 98 100 99 89 84 80 65 52 42 39
27 21 23 33 46 48 45 38 77 81 79 63 28 36 50 58 67 100 100 88 74 98 98 100 69 48 35 23 18 33 60 65 66 58 71 92 80 93 79 74 84 72 56 45 36
23 25 21 29 45 63 63 84 45 36 40 40 49 61 57 75 100 100 100 96 64 86 99 92 79 57 40 29 20 16 26 66 65 62 55 71 62 64 80 74 79 75 70 54 42
12 19 30 26 32 43 46 92 99 89 91 98 97 78 50 43 90 84 81 79 60 89 100 90 71 56 39 36 34 22 27 66 78 57 60 60 57 65 72 84 81 88 80 65 51
15 13 30 25 20 28 50 72 70 95 100 99 97 100 100 100 99 84 100 100 86 96 95 65 44 40 37 39 39 43 48 54 78 70 55 61 63 57 61 75 77 78 84 70 51
20 13 18 37 15 28 46 55 56 52 87 96 99 99 100 100 73 72 98 91 89 54 40 43 38 32 35 36 36 50 73 89 73 84 68 64 69 53 59 70 90 92 78 66 61
44 15 15 28 22 26 37 43 42 39 47 55 96 96 85 100 100 71 63 49 46 43 43 65 54 66 78 71 77 83 82 96 95 88 70 68 70 52 54 68 72 84 89 71 70
41 19 14 18 20 27 32 36 36 51 82 96 100 69 48 41 92 80 88 76 36 35 56 57 48 59 99 84 79 79 98 95 82 67 70 76 67 53 54 66 74 73 66 93 88
8 44 13 17 20 24 31 46 40 30 66 42 72 80 35 36 60 93 71 76 71 44 53 66 70 78 80 75 79 88 88 98 99 96 87 78 67 60 49 68 75 92 49 30 26
4 54 18 18 19 26 29 38 36 35 49 54 61 72 96 98 98 83 78 94 91 88 84 95 96 96 94 94 99 100 100 100 98 92 88 74 63 62 51 50 79 95 66 32 24
5 19 43 16 14 18 23 26 33 32 29 39 45 53 59 91 100 97 81 89 94 93 85 82 92 100 100 99 100 100 92 93 100 96 81 68 58 54 48 37 40 74 88 60 44
5 10 51 34 18 12 16 25 27 32 36 25 25 28 38 43 51 58 76 98 89 73 75 84 98 100 100 97 99 91 99 100 100 94 86 68 54 49 43 40 36 34 34 61 74
5 5 33 55 26 19 19 22 23 30 37 31 26 27 33 34 42 51 51 63 84 97 98 95 91 100 97 87 90 85 96 100 94 96 94 87 62 57 49 45 40 39 34 31 27
7 4 8 45 38 26 23 26 26 34 33 30 27 34 41 51 50 54 53 58 62 64 69 77 82 86 91 95 98 98 100 100 96 94 93 89 87 80 90 88 75 68 59 45 34
12 9 9 30 58 36 23 23 22 26 30 30 36 38 47 54 55 60 63 61 65 73 75 76 76 82 87 85 84 82 78 76 85 99 98 100 94 89 94 73 63 56 56 64 55
7 10 13 30 70 38 32 22 21 22 31 40 45 40 40 45 46 39 61 67 74 78 89 94 85 86 87 79 72 69 67 63 60 73 82 76 72 72 76 70 77 58 46 40 36
12 14 26 17 100 65 34 50 32 38 43 43 42 44 52 58 60 51 39 68 72 78 81 87 80 59 52 45 43 47 48 54 55 53 50 52 51 43 41 45 52 55 43 34 29

GFSSW_500_rhum_048.txt.gz
RH
38 17 12 10 10 9 7 13 49 50 35 14 26 28 28 31 62 89 99 63 47 42 21 31 34 44 58 77 97 93 94 90 84 96 94 82 83 65 56 47 50 47 43 41 40
26 14 12 13 26 37 29 70 100 100 100 100 42 21 31 29 29 50 92 91 66 64 37 24 37 38 47 59 76 95 81 74 86 100 97 96 92 80 71 51 56 51 46 47 43
19 19 13 26 39 67 69 82 97 96 100 96 99 67 19 25 30 26 33 100 92 95 82 26 40 50 48 49 58 85 70 83 97 96 96 96 97 87 80 68 59 62 53 51 56
22 23 16 30 39 59 76 31 85 86 95 85 79 86 71 29 22 24 32 64 100 100 100 51 23 41 43 46 50 61 81 97 97 98 95 97 98 94 92 81 62 68 62 52 54
23 21 25 26 34 39 63 36 94 87 69 76 92 92 83 55 36 34 23 29 93 100 100 91 28 21 43 42 49 50 64 96 96 97 97 97 98 94 93 89 86 75 68 59 50
24 23 24 32 40 41 52 49 37 90 80 66 86 100 96 68 44 49 28 27 39 99 100 96 46 21 40 47 49 47 50 93 97 96 94 94 98 96 94 88 87 87 72 63 56
24 25 26 32 42 49 53 69 52 67 73 79 90 93 100 99 100 81 38 27 29 67 97 99 64 25 23 52 56 53 61 95 94 97 91 98 96 96 98 96 90 82 74 61 58
27 27 30 29 45 50 32 64 74 55 98 86 79 90 100 100 100 100 100 30 29 52 100 100 93 45 20 42 61 53 57 63 87 97 97 95 96 98 97 98 100 98 83 66 54
29 27 31 26 35 58 35 31 64 63 77 70 74 89 98 93 89 89 100 37 40 90 100 100 97 61 38 24 55 53 53 48 59 92 96 88 98 98 96 97 87 96 92 73 46
25 28 29 27 32 47 73 57 30 56 63 62 72 75 99 98 91 77 100 99 77 98 100 100 99 83 50 20 18 24 43 46 50 59 88 90 92 98 94 92 81 84 84 78 50
21 25 31 23 31 59 87 89 59 26 36 49 72 67 80 82 79 62 100 52 44 87 98 98 90 60 47 32 17 21 49 41 40 46 70 81 93 99 95 79 92 82 81 81 66
27 18 32 22 35 35 77 100 100 39 22 41 61 55 57 48 54 81 100 83 100 87 99 92 74 77 65 43 23 25 43 66 60 55 53 56 75 95 94 80 75 73 76 79 74
34 17 31 21 37 40 53 53 82 97 45 45 51 53 43 40 45 100 100 100 75 74 100 100 81 84 73 48 32 18 17 31 57 58 53 49 56 64 86 71 66 68 73 76 75
32 13 29 22 37 42 52 55 57 98 67 45 81 64 66 30 55 100 100 100 100 100 98 91 100 97 63 39 25 18 16 16 24 48 52 57 48 46 83 65 68 82 85 86 76
16 17 22 19 27 36 49 47 43 74 99 96 61 98 100 45 75 100 100 100 100 100 100 96 90 65 51 42 33 24 20 16 14 26 43 54 59 41 66 70 60 69 79 81 77
3 34 15 20 21 31 38 44 40 79 95 100 100 99 100 43 77 100 95 100 100 100 98 84 72 60 53 41 33 32 27 25 22 20 24 33 55 36 50 57 55 65 70 80 84
3 26 12 20 20 28 27 36 50 62 87 69 84 92 72 63 74 65 75 99 95 92 99 91 61 47 52 48 43 38 33 28 29 29 16 33 69 18 50 54 53 59 67 79 88
2 5 24 17 26 23 24 32 40 63 61 51 74 91 63 74 65 80 88 88 85 91 64 46 40 34 32 33 30 31 31 36 45 37 53 66 46 23 42 56 58 56 71 76 83
3 3 37 14 23 25 24 29 32 40 42 89 41 50 44 77 96 99 49 48 57 60 53 42 44 47 51 51 62 67 62 63 57 62 64 58 48 50 48 63 62 59 73 78 91
3 3 5 31 18 24 24 25 34 35 37 49 76 72 57 83 95 85 77 46 38 40 40 45 49 42 59 81 67 67 87 71 75 75 67 60 58 49 54 66 58 60 76 73 70
3 4 7 41 24 16 21 24 29 35 30 39 46 72 95 93 87 81 72 56 44 24 20 20 24 45 66 64 74 73 78 72 95 94 80 72 70 60 66 66 64 54 98 98 89
3 4 5 35 47 25 16 18 23 27 30 23 23 35 56 73 78 86 76 90 77 64 55 66 77 86 83 91 84 70 74 94 100 98 97 88 72 75 75 63 77 74 73 98 100
4 4 6 5 55 40 24 21 22 22 22 30 26 21 25 28 34 40 65 86 84 82 80 78 80 84 89 85 77 90 85 97 99 99 93 98 76 84 68 64 77 70 53 56 82
3 5 7 8 27 70 42 30 32 27 28 34 29 24 21 35 44 46 45 48 59 76 79 77 73 79 90 90 92 99 97 100 100 85 90 79 88 95 91 76 72 88 71 59 51
3 5 8 9 18 75 56 38 34 33 30 29 31 25 29 34 45 47 47 48 50 58 66 76 83 84 95 95 86 81 91 89 91 99 86 99 84 100 99 95 94 91 98 84 68
3 5 8 22 21 82 74 68 40 36 30 30 30 32 38 44 50 44 40 59 57 67 70 72 76 75 82 91 89 81 80 76 75 78 66 79 80 98 100 98 100 98 92 65 62
2 9 15 20 25 42 100 80 77 48 47 50 50 48 58 59 59 50 44 46 60 67 77 80 84 81 78 83 81 74 72 70 65 62 60 50 68 69 67 70 100 99 90 67 51

GFSSW_500_rhum_051.txt.gz
RH
23 22 20 15 22 26 20 14 19 33 100 100 90 23 30 30 63 99 95 100 98 35 39 21 30 31 30 70 79 76 96 88 85 96 84 79 66 50 41 37 28 26 25 23 23
20 23 17 24 35 35 18 9 46 100 100 100 100 100 28 44 35 81 100 100 100 76 38 32 29 32 32 34 83 69 86 64 86 99 98 85 79 66 51 44 40 38 33 31 31
17 19 17 27 30 46 49 13 36 97 100 93 98 90 98 31 40 44 89 100 100 98 45 37 29 42 36 39 49 69 89 88 96 97 96 94 98 76 67 53 42 45 46 40 40
18 18 18 23 32 40 59 46 28 80 87 78 80 93 91 94 42 39 43 91 99 100 89 56 39 29 31 33 33 54 63 88 100 95 94 97 98 90 68 64 57 52 58 46 50
23 20 21 22 29 40 54 71 26 31 100 88 72 83 75 78 60 40 34 43 90 100 94 95 73 24 30 26 36 36 63 99 98 94 98 97 96 97 84 73 64 61 62 66 60
24 20 21 24 33 37 44 92 26 32 61 91 79 64 76 81 93 36 36 30 53 99 94 93 79 39 25 34 34 34 40 80 86 97 93 97 96 98 97 91 77 68 66 68 62
21 18 25 24 38 38 40 97 30 24 60 72 76 92 99 98 78 53 29 30 33 81 100 98 100 58 24 39 45 39 46 61 79 97 98 99 97 84 98 98 88 88 89 93 73
17 16 21 23 31 33 35 90 36 34 74 72 66 91 100 100 72 56 61 35 31 65 100 100 100 86 28 29 54 53 56 57 85 95 96 97 91 99 97 93 82 87 99 95 93
15 16 19 34 25 31 51 78 41 23 50 60 66 100 99 96 97 93 78 82 32 42 100 100 100 99 46 22 49 52 47 59 56 76 96 92 96 96 98 95 82 82 94 100 94
11 16 19 40 26 31 42 85 53 25 39 42 64 94 94 100 99 100 96 75 40 38 100 100 100 99 57 36 20 16 17 36 52 53 71 91 95 96 97 97 98 96 100 100 98
4 18 18 41 36 41 44 83 90 44 32 42 62 97 67 84 87 73 85 93 42 34 92 100 98 69 70 38 22 22 34 39 39 46 58 97 99 96 97 97 96 98 98 96 97
3 21 16 28 38 41 45 76 92 70 50 40 53 62 52 56 71 100 95 90 46 41 100 100 90 90 88 45 30 24 24 40 49 46 45 58 93 96 91 93 96 98 94 86 80
2 20 15 20 37 39 48 52 98 87 64 57 43 44 43 42 65 100 100 100 100 60 91 92 96 92 88 52 34 25 23 35 52 52 48 50 86 92 71 83 93 88 94 78 67
3 7 14 19 32 36 41 56 95 85 67 93 96 41 34 35 70 97 100 100 100 100 100 99 100 95 82 57 44 32 22 25 41 57 49 48 51 76 75 68 86 82 82 85 76
4 3 20 17 24 31 37 65 84 76 94 100 100 51 45 71 85 84 100 100 100 100 100 96 90 89 82 69 52 44 29 23 23 25 43 50 50 41 52 55 55 61 65 80 71
5 2 18 13 20 30 31 56 62 73 75 74 97 48 94 93 91 98 88 62 65 100 100 95 95 97 88 72 57 43 30 19 16 16 14 16 24 14 27 34 43 46 70 78 73
6 3 5 17 19 22 28 32 56 61 47 37 34 43 84 97 87 100 86 98 92 96 96 100 94 98 95 61 42 33 25 22 20 18 15 17 17 11 14 23 37 63 71 69 68
8 4 3 22 16 21 27 26 38 46 46 38 38 29 49 60 88 98 100 100 99 100 74 71 69 67 63 44 38 35 32 27 24 22 21 24 15 10 15 30 45 49 66 64 56
7 4 3 6 21 20 26 30 34 36 67 55 68 67 58 55 63 93 75 90 98 98 84 80 61 49 43 46 46 37 35 34 37 32 24 20 16 18 25 22 35 54 56 60 62
6 4 3 3 31 19 24 27 33 35 46 62 89 76 100 90 85 73 70 80 51 58 69 71 60 48 43 43 36 33 37 33 31 33 41 37 42 40 44 44 39 42 50 63 61
4 4 4 3 11 35 22 24 30 37 32 50 61 89 94 98 73 58 41 46 65 70 62 58 49 50 50 39 48 53 42 48 62 61 51 38 42 49 62 60 55 52 59 64 74
5 4 4 3 6 41 35 22 21 32 33 29 40 51 82 81 96 80 52 32 32 43 50 48 58 43 59 68 78 73 75 81 80 66 73 52 33 68 75 73 72 70 71 83 88
6 5 4 3 5 22 53 32 21 23 33 31 24 28 39 46 54 85 99 100 88 71 64 47 35 64 77 88 69 64 68 81 75 71 57 64 51 93 90 87 83 88 82 92 68
7 5 4 4 6 9 62 49 29 29 30 37 31 25 27 30 30 37 50 82 94 87 86 82 76 74 79 81 72 72 84 83 72 58 57 66 84 100 99 99 84 94 94 97 95
9 7 4 5 5 16 44 75 46 31 31 36 38 32 29 39 48 48 45 44 50 74 86 80 82 83 83 76 78 77 75 75 69 79 69 96 74 100 96 100 99 96 95 92 87
8 10 4 8 7 21 20 81 62 41 38 35 36 31 33 43 48 48 48 46 48 51 53 59 71 86 92 89 84 78 75 76 73 72 73 93 89 99 97 78 73 78 82 92 94
7 9 4 6 17 23 22 58 83 55 39 34 34 38 42 52 59 50 43 36 41 50 54 58 62 66 65 67 66 62 85 76 72 72 74 63 79 65 74 92 100 99 99 100 98

GFSSW_500_rhum_054.txt.gz
RH
4 5 16 16 18 26 27 24 19 17 12 92 100 100 100 65 14 33 90 88 98 45 45 26 29 29 19 65 68 99 99 85 83 91 96 84 60 49 40 31 24 21 18 16 15
4 6 19 16 21 25 26 22 20 16 46 100 100 100 99 100 38 23 62 100 100 78 75 49 28 32 27 22 79 98 96 82 69 83 99 98 76 56 48 39 30 24 21 21 25
4 7 21 17 25 31 25 25 23 15 12 95 100 96 89 91 83 35 37 100 100 99 89 77 46 35 39 24 33 75 66 68 98 89 98 91 90 73 55 45 39 30 26 37 37
5 6 19 20 24 28 34 46 29 16 14 65 79 65 90 98 85 43 38 86 100 100 100 79 62 39 29 24 26 36 67 97 100 99 97 96 91 79 66 56 47 36 33 36 51
5 6 16 21 24 30 37 44 36 18 14 77 89 72 78 82 94 70 44 44 100 100 98 95 88 78 29 24 25 35 54 81 98 98 97 97 96 95 81 69 59 49 42 42 55
5 5 15 19 24 30 34 51 42 22 39 45 89 79 57 72 83 92 53 42 78 100 100 100 88 86 42 31 25 24 16 51 78 97 98 96 96 99 98 84 73 62 58 52 50
7 5 16 21 27 36 37 57 50 25 44 63 66 75 86 92 76 80 70 46 54 100 100 100 100 92 72 30 32 23 28 50 69 94 98 98 95 82 100 93 80 82 71 62 58
8 5 15 20 29 37 39 61 66 33 37 59 83 88 99 82 83 74 70 45 48 86 100 100 100 92 92 35 40 39 32 63 74 89 96 96 83 95 99 91 86 76 80 85 74
10 4 14 17 31 37 37 75 80 45 31 56 86 70 92 100 98 71 80 48 46 64 98 100 100 97 97 46 40 35 43 25 54 84 94 95 93 99 94 98 98 87 86 88 94
12 5 10 16 29 33 44 88 86 59 32 39 51 77 100 98 100 81 93 47 62 52 87 99 100 94 92 78 44 29 31 30 37 45 79 90 100 97 98 91 97 98 100 100 96
13 5 9 15 25 30 59 93 91 75 68 50 54 56 77 100 99 100 100 79 62 42 93 98 93 74 79 81 53 32 39 47 44 49 64 75 98 95 97 94 96 94 93 94 93
14 7 4 14 22 29 57 82 85 86 95 56 43 53 65 76 100 94 100 100 60 38 100 100 99 100 99 95 65 36 27 36 55 52 60 56 77 94 95 90 97 97 93 93 99
12 7 3 15 19 26 46 75 72 100 99 99 45 38 45 55 84 87 100 100 70 34 99 99 99 91 88 96 75 42 28 28 43 49 47 53 52 64 79 80 98 97 99 88 89
10 6 3 9 18 26 30 62 71 95 100 100 86 38 34 39 86 82 100 89 50 30 87 100 100 94 89 99 80 42 25 28 46 53 40 44 40 40 61 86 95 95 94 98 100
10 6 4 6 17 22 28 36 54 64 79 86 100 65 51 73 67 82 76 81 51 61 100 100 96 82 92 95 78 36 36 29 26 37 33 29 31 28 38 48 72 89 96 96 99
11 7 4 3 15 20 27 27 43 50 43 55 87 100 80 60 92 100 100 79 48 95 91 99 99 100 99 100 71 47 33 22 19 24 22 29 33 17 24 24 34 38 93 97 96
14 11 7 3 8 18 24 29 34 41 34 39 31 49 87 73 99 100 100 99 100 100 98 100 99 91 99 99 72 54 40 31 24 20 15 16 11 9 18 15 29 41 64 89 95
16 16 10 3 4 24 21 28 32 57 42 30 44 39 73 64 100 89 100 99 100 100 98 95 94 97 94 83 69 59 46 40 32 22 17 16 13 12 15 17 25 41 47 53 72
14 16 10 5 3 19 19 26 36 36 71 50 48 63 70 86 90 100 96 94 90 100 98 94 90 85 86 79 73 56 48 39 31 23 22 20 17 17 19 20 16 17 24 43 47
8 11 10 9 4 5 29 24 31 35 54 74 61 82 98 95 76 72 99 99 93 100 94 89 77 71 77 76 55 45 42 34 30 29 25 21 19 17 20 28 20 19 18 30 52
7 8 10 7 4 5 37 25 28 38 38 60 77 92 92 93 69 39 55 82 91 92 87 77 75 64 54 45 42 36 29 32 34 30 25 19 17 26 38 52 39 33 27 20 27
8 7 10 8 4 7 21 41 24 32 36 42 66 85 93 100 92 61 33 49 55 57 76 59 50 47 38 36 39 44 44 50 45 45 48 42 22 47 54 64 57 46 41 40 37
12 6 8 7 5 4 23 56 30 24 34 34 36 61 91 74 98 82 59 45 65 68 60 60 60 53 46 46 48 45 53 58 62 72 58 58 28 54 97 75 74 75 64 62 68
18 13 10 7 5 4 14 65 45 27 30 34 31 29 39 52 56 84 87 82 66 46 49 56 55 55 49 50 82 79 90 93 92 55 72 45 55 83 100 92 97 86 91 76 70
21 15 8 9 5 7 12 46 65 36 32 32 34 33 29 29 31 40 53 76 100 94 95 90 97 95 89 85 88 87 85 78 61 74 63 91 74 100 94 83 80 87 90 83 82
20 12 9 6 5 12 18 24 68 55 37 36 40 42 37 34 34 42 53 55 57 65 86 95 100 100 96 100 100 95 90 85 82 82 64 69 63 80 81 75 91 84 89 93 92
12 10 7 6 4 11 21 33 49 75 48 44 47 46 47 48 46 45 48 47 52 57 58 56 57 60 65 74 83 84 98 88 86 85 79 58 79 79 92 89 96 92 85 91 91

GFSSW_500_rhum_057.txt.gz
RH
10 9 6 7 13 19 22 17 21 36 29 26 19 51 99 100 99 23 19 46 80 100 81 30 26 28 24 47 50 83 100 89 91 90 94 95 94 62 44 34 30 27 21 18 16
11 11 8 8 13 20 22 22 24 34 32 15 46 100 100 100 100 91 23 40 97 100 95 69 43 27 24 39 47 61 91 59 78 93 98 96 96 94 56 41 33 28 25 21 17
11 10 6 9 14 22 24 19 33 38 37 10 10 98 100 100 100 100 54 26 95 100 100 76 38 36 26 36 58 57 84 78 83 89 97 93 97 93 85 49 39 30 26 23 23
11 11 6 10 15 25 31 22 49 46 43 16 26 87 100 95 94 89 77 27 72 100 100 97 52 30 33 26 58 72 73 100 99 100 74 99 97 97 91 64 48 36 30 28 24
11 12 6 11 15 30 31 38 57 58 41 28 28 82 71 69 76 77 83 36 52 100 100 100 86 47 48 22 18 49 62 91 99 98 97 100 96 94 96 86 54 44 38 32 26
11 11 5 6 17 30 40 55 61 66 40 42 49 64 75 62 70 91 100 55 41 100 100 100 84 60 52 27 21 17 38 75 100 97 98 95 95 93 87 91 76 51 47 41 34
15 10 5 6 16 32 54 62 74 78 42 47 71 65 69 74 60 68 100 66 40 99 100 100 100 87 64 35 28 18 24 42 92 99 93 100 94 70 100 87 81 77 54 48 46
16 12 5 4 17 31 53 65 83 92 50 42 69 65 75 86 80 62 100 76 50 96 100 100 100 100 84 60 38 25 26 43 62 87 82 95 78 100 100 89 80 87 84 64 52
13 13 7 4 15 29 46 67 86 98 78 42 50 88 99 100 83 68 100 70 47 87 100 89 98 99 93 81 49 25 23 30 44 91 84 84 99 100 96 93 94 86 80 85 80
14 15 12 6 11 27 33 60 81 100 97 57 59 65 79 90 94 64 97 69 51 91 100 100 100 100 96 89 65 36 22 25 32 48 66 74 96 97 97 96 93 99 76 77 95
16 17 18 5 8 24 29 44 76 98 99 72 50 54 68 100 92 66 100 87 67 96 98 100 98 88 73 76 78 42 28 26 31 27 52 58 82 97 97 93 95 97 86 74 82
16 17 18 7 7 20 29 37 69 73 84 91 44 45 45 76 99 92 100 90 80 85 100 98 100 97 91 88 80 67 36 31 54 42 49 57 73 88 82 92 98 93 99 85 96
13 15 16 9 6 16 30 31 57 42 67 99 42 34 40 38 81 100 100 91 86 83 100 94 100 96 100 96 92 82 41 37 42 52 44 51 60 75 76 88 94 87 88 95 95
9 9 13 8 6 14 26 27 50 35 70 84 89 52 44 57 72 78 100 99 75 62 100 100 100 96 88 87 83 89 58 38 40 50 44 45 29 44 55 67 87 95 92 98 100
6 11 12 8 4 13 25 29 47 32 55 46 92 75 96 74 75 75 88 100 65 69 100 100 96 96 87 80 72 97 94 59 32 32 28 26 18 19 26 33 60 78 82 97 96
7 9 10 10 4 7 21 32 44 36 43 34 50 71 69 68 88 84 86 68 57 97 100 100 96 97 100 96 100 100 58 45 30 25 21 15 12 13 21 22 28 39 61 87 95
10 9 10 13 6 4 21 30 44 45 40 49 43 72 98 97 98 56 66 53 47 91 99 99 96 100 99 96 99 94 72 44 28 24 19 12 11 12 20 24 34 38 42 62 85
17 14 12 15 10 4 19 26 37 54 49 40 54 81 100 72 98 87 40 49 42 88 100 100 99 98 90 85 83 80 67 44 33 30 20 14 11 10 20 34 43 45 47 47 70
15 13 15 15 11 4 17 23 32 43 68 65 68 85 100 94 81 84 36 34 47 74 100 97 88 77 91 97 90 73 66 48 36 28 19 15 15 15 17 18 17 22 23 30 45
11 9 12 12 10 4 9 31 29 36 59 79 81 98 99 96 100 100 70 88 100 100 98 93 87 84 82 89 80 70 65 54 46 38 30 25 20 20 21 22 22 20 19 19 17
11 7 8 8 9 5 8 40 27 38 43 71 94 100 100 96 69 89 88 94 99 100 100 96 95 93 93 72 76 76 60 49 44 37 31 27 25 25 27 28 32 20 15 16 17
10 6 5 7 8 5 6 25 34 38 36 47 82 100 100 99 75 47 72 73 83 98 97 84 82 80 86 89 83 73 49 43 39 33 30 26 20 26 30 45 70 60 51 35 29
12 6 4 6 7 5 6 15 42 32 38 35 48 90 100 100 90 45 60 79 68 90 90 78 69 60 50 50 45 37 43 39 35 32 23 26 19 41 71 67 53 44 41 38 40
15 8 5 6 5 5 8 11 53 36 36 44 36 46 78 87 100 82 58 55 52 50 68 63 60 50 46 48 40 36 45 50 53 43 46 33 64 100 77 59 56 52 35 40 43
22 13 4 5 4 4 9 19 39 50 35 48 45 40 43 54 69 99 97 64 48 53 54 55 62 66 65 61 56 50 51 63 51 63 48 74 63 100 87 72 70 74 69 72 68
30 18 5 4 4 4 8 15 21 52 37 33 37 41 42 36 40 38 57 87 100 100 93 79 64 60 70 74 84 79 85 91 91 97 74 80 65 74 68 61 74 84 74 86 79
24 16 6 4 4 4 11 17 18 24 49 36 41 38 37 40 37 40 46 56 56 62 78 93 98 98 98 95 92 92 99 90 92 98 86 68 96 84 80 61 66 85 77 92 86

GFSSW_500_rhum_060.txt.gz
RH
6 8 8 11 8 5 12 22 24 30 31 26 30 20 12 40 81 100 43 15 29 77 84 99 73 56 38 52 18 35 47 44 85 67 87 91 94 93 54 39 32 28 25 27 35
8 8 9 14 9 6 14 29 39 36 35 37 38 11 32 93 100 100 100 38 21 64 100 99 54 27 32 48 43 41 39 27 81 100 76 97 96 93 80 53 40 33 26 24 23
8 7 12 16 10 8 17 40 46 41 42 53 31 13 46 100 100 100 100 84 24 60 100 100 70 34 40 50 68 50 37 30 46 96 92 98 96 90 92 68 51 38 31 25 23
8 7 14 17 8 8 20 42 57 52 61 57 29 18 55 100 100 100 100 100 50 39 100 100 99 56 49 37 82 71 40 48 46 84 99 96 98 93 93 95 64 49 40 32 25
8 8 14 18 8 9 23 39 60 62 82 53 37 41 35 60 96 98 100 100 79 50 100 100 99 79 52 49 63 73 61 66 100 62 87 98 97 97 94 91 95 63 48 37 30
8 8 15 18 8 9 25 34 59 72 84 50 45 63 60 61 40 70 86 87 100 95 91 100 100 96 40 38 68 62 88 76 80 95 81 98 97 99 98 93 89 91 58 43 33
7 7 12 16 7 10 24 30 56 77 83 56 47 63 80 93 82 43 48 70 100 98 85 100 100 99 71 36 42 58 88 90 72 83 96 74 82 73 100 90 87 92 88 57 42
7 7 12 14 7 8 23 31 50 70 73 66 52 53 62 91 88 73 62 60 98 66 95 100 100 96 99 61 38 52 99 97 94 98 98 99 73 57 100 92 93 94 98 78 52
6 7 10 14 8 7 19 32 54 43 64 68 48 54 70 83 86 77 60 79 99 58 97 100 100 100 99 48 41 43 51 91 97 100 98 96 100 98 97 90 71 77 78 92 79
7 8 8 13 10 6 18 35 46 40 62 79 52 52 59 100 78 95 57 85 100 93 87 100 100 92 99 78 55 49 28 32 41 63 75 73 87 99 90 97 80 88 72 80 86
10 9 11 14 14 6 16 32 41 44 50 71 75 46 43 74 64 77 100 100 86 89 98 100 100 76 77 86 65 54 41 30 26 28 52 71 70 97 89 84 77 53 71 72 69
13 11 12 17 17 6 15 33 38 29 35 49 53 36 40 79 76 69 100 100 100 100 98 98 98 100 100 97 74 55 50 35 32 31 41 53 69 82 74 96 96 98 93 78 84
12 10 12 13 16 6 15 36 37 25 37 53 57 40 38 79 75 100 94 81 85 92 100 100 100 99 99 94 96 70 85 42 29 33 31 39 36 49 52 83 97 97 97 100 92
12 8 6 10 12 6 9 39 42 30 30 52 65 56 73 84 87 100 88 78 68 100 100 100 99 99 100 94 98 100 85 62 34 31 37 29 23 24 37 47 78 95 97 100 100
11 6 5 9 9 7 10 32 49 42 35 48 73 74 56 68 88 87 84 83 91 98 100 100 100 100 100 100 100 99 99 94 55 45 30 32 23 22 18 20 57 78 96 97 100
10 6 4 7 8 7 6 26 48 46 50 56 88 93 55 62 84 100 100 91 99 100 100 100 100 100 100 100 97 93 92 97 79 47 35 33 23 18 18 26 46 53 85 90 95
11 5 4 5 7 6 6 21 40 55 52 66 100 100 88 45 53 89 96 81 94 99 100 100 100 87 84 94 82 92 89 87 76 50 36 29 24 14 21 27 28 38 43 59 64
11 5 5 4 5 5 5 19 42 63 52 78 99 100 100 100 44 54 73 71 100 100 98 93 75 85 85 83 79 67 74 80 67 56 41 32 24 16 18 31 22 28 33 38 36
12 5 6 4 4 5 5 15 31 50 79 73 98 100 100 100 62 25 42 64 99 92 97 88 90 81 87 92 80 72 72 60 50 44 34 26 23 18 16 21 24 29 33 33 37
15 7 6 4 4 4 4 12 27 37 68 98 96 93 100 100 52 44 27 49 80 93 89 96 100 84 87 89 70 64 72 68 58 48 38 32 27 18 17 18 18 18 22 26 25
20 13 7 4 4 4 4 9 25 34 49 88 98 84 99 100 90 29 26 50 73 76 98 100 100 99 94 77 76 76 65 60 53 43 38 34 30 30 27 23 22 21 20 20 19
25 20 8 4 3 3 4 9 22 29 36 59 100 89 95 77 86 57 44 60 80 100 97 99 99 100 94 92 84 77 72 64 53 47 46 44 37 35 33 36 34 27 22 19 17
27 21 8 4 3 3 4 10 14 32 40 40 71 97 95 76 57 53 67 72 98 100 99 90 91 96 94 86 74 70 66 66 56 46 38 38 32 47 44 37 28 26 22 20 18
27 18 9 4 3 3 4 10 12 34 31 41 47 75 98 92 63 68 65 59 68 96 83 82 78 70 69 68 74 81 78 68 48 37 36 29 38 53 61 51 40 33 28 31 29
27 20 10 4 4 3 3 9 14 34 34 30 41 42 49 72 93 54 80 75 72 88 96 89 75 61 54 48 41 40 41 38 33 40 26 52 37 94 70 62 46 37 43 50 55
34 23 12 5 4 3 3 7 13 23 39 29 35 41 37 43 69 98 83 61 63 68 75 65 64 63 60 53 48 47 47 45 41 43 45 74 53 84 60 53 69 67 62 70 72
41 30 13 6 4 4 3 5 15 11 36 36 30 34 42 41 39 44 57 89 98 96 80 61 51 43 41 46 52 67 76 74 75 73 71 61 86 77 72 74 62 64 66 71 78

GFSSW_500_rhum_063.txt.gz
RH
10 6 6 5 7 8 6 7 17 40 43 37 35 35 20 15 8 9 11 31 30 18 42 75 97 87 99 77 54 25 31 31 21 47 94 24 53 68 94 48 33 30 31 54 64
10 7 6 5 8 8 8 8 21 34 39 39 41 30 22 12 29 79 49 82 67 25 25 64 100 92 96 90 72 48 48 90 23 28 43 28 72 69 72 78 46 32 29 34 46
10 7 7 7 9 12 8 8 19 33 38 41 34 35 28 18 81 100 90 100 100 39 35 58 95 100 88 99 79 85 45 26 28 52 35 31 66 89 88 95 62 40 30 29 30
11 8 6 8 11 14 10 8 19 35 50 32 37 40 47 43 77 100 97 100 100 86 51 60 95 100 96 98 85 76 64 49 75 70 51 45 62 99 97 81 93 56 43 32 28
13 8 7 7 13 16 11 9 21 43 45 30 50 45 48 64 41 90 94 100 100 98 100 55 100 100 100 81 88 87 75 65 96 64 52 45 96 67 96 87 80 95 58 42 30
14 12 9 9 19 16 9 9 25 53 31 38 65 49 51 63 66 45 90 100 100 100 72 83 99 98 98 77 87 91 87 61 87 46 55 62 86 99 84 90 95 87 92 56 42
14 14 9 10 17 13 8 12 30 43 28 42 86 53 52 68 78 68 48 87 99 83 100 79 100 100 100 74 62 92 95 97 100 50 83 34 88 90 99 99 97 97 90 94 54
14 14 8 12 14 10 7 11 34 32 28 44 78 53 45 66 77 76 69 70 89 100 87 100 100 100 94 74 48 92 99 96 90 75 89 48 59 91 99 97 95 91 95 93 95
17 14 7 12 13 8 7 15 38 25 35 52 63 52 41 46 91 85 80 48 76 99 83 100 92 100 100 97 60 87 92 98 98 83 75 44 63 98 95 92 89 99 88 97 93
20 14 7 11 9 7 6 18 38 27 38 52 58 51 41 51 78 72 62 49 100 100 55 98 94 100 96 99 72 74 87 99 98 96 72 74 73 60 81 96 87 95 96 95 81
20 13 6 10 6 7 6 12 38 30 35 49 49 42 39 84 73 71 42 84 99 100 86 95 100 95 83 76 84 44 94 98 92 99 83 60 78 96 91 59 65 78 89 86 82
20 10 5 7 5 5 5 12 44 34 36 59 56 47 37 100 67 66 63 90 100 100 98 100 100 100 100 100 88 61 45 80 99 96 100 96 98 98 93 95 70 50 60 85 76
19 10 5 6 5 4 4 12 54 39 41 66 64 45 68 98 76 98 99 100 100 100 98 99 100 99 97 83 82 94 53 63 52 73 89 85 84 71 42 75 94 94 83 78 62
19 9 6 5 4 4 4 16 50 44 47 72 68 45 78 82 83 100 100 99 91 100 100 100 100 95 98 98 96 83 90 66 60 45 31 37 32 48 50 37 79 86 100 93 79
20 8 7 5 4 4 4 9 36 50 55 86 75 35 60 77 50 89 100 100 95 100 99 100 100 96 100 100 100 93 97 87 59 48 33 28 32 31 24 18 45 79 90 93 99
17 11 8 5 4 3 4 9 28 54 62 90 83 45 44 100 70 67 100 84 89 96 96 92 98 98 100 100 85 95 98 75 87 96 35 29 26 29 23 23 25 44 79 89 92
16 16 9 6 4 3 4 11 26 57 64 90 93 88 52 67 80 73 68 97 94 97 99 99 100 97 97 96 94 99 100 96 94 78 61 40 26 34 22 26 22 26 37 67 85
18 19 11 5 4 3 4 10 23 62 70 80 97 99 68 54 57 43 58 95 100 100 100 99 100 97 87 99 94 99 99 90 82 74 64 58 46 32 29 26 23 22 20 39 54
23 21 13 4 4 3 4 8 17 36 74 86 80 99 100 92 44 34 60 100 100 99 100 98 75 79 76 81 91 100 82 64 69 65 61 53 43 35 32 30 19 17 19 20 30
27 23 13 4 6 3 4 6 17 29 53 88 84 96 96 30 32 48 39 91 88 90 97 98 100 99 97 78 72 81 78 80 80 82 80 66 56 44 29 24 17 17 18 17 17
34 24 12 5 6 3 4 5 10 25 46 83 74 85 100 86 21 38 82 83 84 91 88 94 100 99 84 76 85 87 70 79 82 78 69 70 60 34 32 22 15 15 15 14 14
30 23 12 5 7 3 3 4 8 22 35 72 77 77 100 96 32 32 71 75 83 80 84 95 93 89 86 93 96 84 82 79 82 76 67 57 47 40 36 34 30 25 20 15 13
30 23 12 6 7 3 3 4 7 20 30 43 83 86 90 100 35 29 44 93 74 74 82 82 89 92 86 89 77 79 83 86 83 70 61 56 66 61 57 47 38 31 24 19 16
30 26 14 7 6 4 3 4 8 8 24 36 54 79 80 88 62 42 55 68 85 98 87 100 86 95 97 91 92 81 93 93 82 66 80 57 60 54 47 40 34 29 27 25 25
38 30 16 8 6 4 3 3 6 8 19 26 34 47 75 69 59 58 56 58 66 87 85 92 91 95 85 78 84 84 81 78 70 76 52 56 43 62 37 23 19 21 31 31 26
36 34 17 8 6 4 3 3 5 8 10 26 28 34 35 59 55 50 69 61 54 60 82 78 78 78 74 63 56 52 51 53 54 49 43 38 33 44 35 38 37 37 52 47 38
42 36 15 10 6 4 3 3 4 9 9 18 26 27 33 33 53 70 61 75 74 66 83 83 78 72 62 62 57 50 49 43 38 37 31 28 32 31 42 49 56 53 47 52 61

GFSSW_500_rhum_069.txt.gz
RH
54 55 43 34 31 18 9 6 4 3 4 5 10 26 29 23 20 17 24 36 30 24 23 33 31 28 99 60 91 80 98 90 53 59 50 89 69 92 69 48 45 59 88 97 88
60 56 43 36 35 24 10 5 4 4 4 5 17 26 24 25 24 22 24 31 29 22 24 28 42 33 42 91 77 89 97 84 44 82 55 66 64 93 76 63 48 52 77 93 92
65 56 46 46 32 22 8 5 4 4 4 6 21 25 28 32 29 24 25 39 48 85 100 20 39 46 31 97 61 99 79 71 49 91 81 42 67 73 82 74 56 62 88 93 94
74 62 56 45 30 17 8 5 4 4 5 11 24 27 35 42 35 26 34 46 54 80 97 66 54 56 32 54 79 78 58 86 81 72 97 52 59 69 60 58 50 52 66 88 87
79 66 54 44 30 16 7 6 4 4 6 16 28 29 43 53 40 33 40 48 64 89 69 100 94 71 44 42 100 62 72 97 98 92 89 79 65 69 44 29 31 56 81 70 90
85 68 54 44 31 15 7 5 4 4 7 20 30 33 53 65 54 37 44 55 56 92 100 100 96 96 52 56 94 68 90 98 91 98 84 66 72 67 46 37 32 30 48 55 79
88 69 59 42 30 13 8 4 4 5 8 29 34 40 69 71 67 44 39 58 48 97 100 100 99 88 64 60 82 79 95 100 95 77 98 90 87 60 58 40 34 33 36 71 80
87 69 60 45 30 11 8 4 4 6 13 37 41 59 70 51 69 48 46 63 50 95 100 100 89 96 63 67 79 87 98 99 99 97 85 87 65 70 68 49 37 30 30 51 77
89 68 58 47 26 11 7 5 5 6 18 37 52 65 38 49 55 82 75 80 74 88 96 100 100 92 59 72 83 100 93 99 98 98 97 87 94 95 95 76 44 26 28 30 55
92 67 58 44 19 13 6 5 5 8 24 47 71 38 34 54 98 84 57 70 90 92 73 100 100 78 69 82 93 95 95 100 95 97 96 85 98 97 79 81 44 29 30 45 35
93 67 60 40 16 13 6 5 5 11 33 63 58 37 35 71 100 58 74 89 100 73 75 100 87 100 100 51 91 98 83 98 98 98 96 99 95 91 84 77 60 32 29 44 63
94 68 61 37 18 12 6 5 5 10 37 75 55 46 43 98 92 82 94 88 87 96 100 94 54 82 100 60 86 98 100 100 100 98 98 99 98 96 90 100 99 60 40 42 70
96 70 61 31 20 11 5 4 5 16 39 73 57 51 61 99 96 95 90 84 83 76 98 92 45 98 100 100 82 96 84 99 100 98 99 100 98 96 89 100 95 57 47 41 64
95 70 61 26 21 8 5 4 5 18 36 64 60 52 47 59 99 99 100 82 64 92 100 99 88 96 100 98 84 72 90 99 100 97 99 98 97 94 98 100 85 92 75 54 49
94 70 60 27 22 7 5 4 6 17 45 60 72 52 42 55 99 100 94 81 93 100 63 74 89 100 100 100 99 76 83 84 99 96 97 99 94 95 89 92 80 65 67 71 70
95 72 58 32 16 6 5 4 6 16 55 61 81 56 38 62 99 99 100 100 68 99 100 82 93 100 99 97 83 75 78 83 96 94 100 99 100 88 99 100 85 73 65 70 70
95 74 53 35 11 5 4 4 7 12 65 64 77 66 51 61 79 78 97 84 83 100 89 92 94 100 100 95 86 91 92 95 100 99 95 95 94 74 97 86 80 41 48 46 22
95 75 51 34 8 5 4 3 7 13 57 64 71 86 53 64 57 62 89 85 82 100 97 100 100 87 81 86 80 98 100 100 91 83 80 74 98 76 55 43 41 32 41 43 24
95 72 50 26 7 5 3 3 6 10 58 61 75 83 52 58 48 60 65 81 96 99 83 66 75 86 85 87 87 73 84 84 82 84 83 74 80 84 46 33 31 30 26 23 21
93 67 52 19 7 5 3 3 5 9 37 54 61 73 36 46 49 68 58 87 92 92 82 69 73 77 81 90 94 93 68 76 77 95 94 93 82 75 68 54 38 31 32 30 24
91 68 49 15 6 4 3 3 4 10 24 50 48 62 26 28 31 68 68 99 90 96 100 88 91 85 99 89 96 98 98 90 85 90 89 91 84 81 82 71 64 57 47 37 31
91 74 44 12 6 4 3 3 3 9 19 38 51 46 31 50 93 70 85 78 89 98 100 100 100 93 89 91 80 95 98 91 96 90 87 87 82 89 85 77 66 57 56 54 55
92 75 33 11 6 4 3 2 3 5 12 26 46 45 21 46 70 89 89 99 98 95 100 84 76 75 69 75 86 81 91 100 99 99 98 95 90 100 86 72 69 59 47 43 38
94 66 29 11 6 4 3 3 3 4 7 16 34 42 26 22 36 52 54 78 88 91 93 89 89 89 87 82 87 83 89 88 78 89 98 100 99 86 77 68 64 59 43 33 29
95 60 31 10 6 4 3 3 3 3 4 9 23 49 40 17 20 28 38 37 86 73 70 72 89 85 84 85 87 91 94 86 79 97 84 100 99 100 77 69 60 52 44 41 37
94 55 34 10 6 4 3 3 3 3 4 6 12 30 40 43 18 27 32 52 70 68 58 61 66 76 75 78 88 85 78 86 89 84 83 98 94 77 63 63 59 51 40 34 29
88 57 32 10 6 5 4 3 3 3 4 4 6 18 33 38 22 22 27 37 53 57 40 42 46 68 76 76 70 65 64 64 68 77 77 77 80 74 69 66 56 45 37 31 30

GFSSW_500_rhum_072.txt.gz
RH
45 44 59 68 65 55 44 29 17 9 6 5 4 4 7 17 23 25 26 26 27 20 16 23 34 46 29 42 43 50 97 84 73 77 60 93 77 100 93 93 79 83 90 97 96
54 55 59 76 65 58 40 31 15 8 5 5 4 5 12 22 26 29 34 38 33 22 18 20 26 41 38 34 50 56 83 72 65 72 76 96 80 95 89 84 59 54 76 89 94
64 67 70 84 70 58 42 32 17 9 6 5 4 6 20 27 29 32 53 53 34 27 30 24 27 31 54 33 71 50 52 71 66 73 84 94 89 76 96 84 64 45 39 84 91
73 69 69 86 72 59 42 34 17 9 7 5 5 10 26 30 33 42 71 58 37 40 36 76 96 35 52 36 68 67 44 77 85 91 98 91 83 94 94 78 77 64 41 49 85
64 76 74 83 75 59 49 35 13 10 7 5 6 16 32 38 45 66 75 73 38 53 46 68 98 98 48 45 44 72 48 94 99 98 99 97 100 72 83 76 92 92 72 56 65
70 77 80 85 76 58 51 32 14 11 6 5 8 24 38 50 57 40 78 82 41 55 65 94 98 99 42 51 32 61 55 98 98 94 92 97 93 92 66 80 86 90 83 63 79
78 87 84 87 78 61 51 26 15 11 6 6 12 30 52 56 36 40 52 70 39 47 90 90 96 100 99 56 36 51 87 98 98 95 97 96 98 90 61 59 74 78 78 75 69
91 79 86 88 84 61 53 23 17 10 6 7 21 47 51 40 46 58 83 74 59 47 90 100 98 100 87 58 43 34 91 94 100 98 95 98 95 94 70 56 56 64 45 42 49
94 89 90 93 88 64 53 23 18 8 6 10 34 59 45 50 70 79 99 74 73 59 75 99 98 100 100 66 46 47 85 81 100 99 88 93 98 96 89 62 60 57 48 40 32
95 100 98 96 91 66 50 24 18 7 8 16 50 50 52 61 99 73 68 80 78 81 64 87 98 93 100 74 52 56 80 100 99 98 98 92 89 89 77 72 72 65 53 49 44
97 99 98 97 91 70 43 30 14 6 8 22 60 56 51 71 72 80 98 92 100 84 76 93 98 100 100 76 45 59 87 98 100 95 98 96 97 97 98 89 76 64 58 46 43
95 100 96 97 94 70 40 32 11 6 12 35 51 55 44 56 86 98 100 83 100 77 81 93 100 78 98 75 54 68 83 100 98 100 99 99 99 89 95 75 71 74 66 62 44
88 98 94 97 95 64 39 29 8 8 20 48 57 41 68 84 99 95 88 73 78 57 76 94 97 89 70 55 54 71 92 96 92 98 100 98 96 96 98 100 83 80 88 63 37
90 92 96 98 95 60 34 15 8 9 22 44 49 33 92 100 100 57 69 80 94 87 69 78 97 100 49 50 65 93 85 98 100 93 95 98 94 98 94 95 89 88 83 68 46
78 95 97 98 93 56 27 11 8 10 28 52 48 51 71 85 85 80 100 100 95 100 61 55 98 100 100 95 88 100 100 98 95 99 93 97 86 98 96 88 78 76 77 70 67
60 84 96 98 97 53 20 8 7 12 31 49 62 39 49 80 81 74 82 89 100 97 95 51 96 100 98 67 92 98 100 100 98 100 100 93 94 90 88 92 84 79 82 79 68
71 80 95 98 95 45 12 7 8 11 43 51 60 30 42 53 72 94 93 92 80 86 97 79 100 100 99 87 89 86 91 97 100 99 98 100 100 80 76 93 99 86 80 70 61
40 84 96 98 87 29 8 6 7 10 31 50 62 31 36 52 60 62 83 100 98 74 85 97 100 92 94 96 74 77 75 86 97 95 95 95 93 95 89 98 100 78 71 63 59
60 90 96 98 72 16 5 5 6 8 40 51 58 29 29 44 54 42 57 100 66 93 98 75 98 100 99 94 91 63 72 73 89 100 100 96 88 93 88 88 72 90 41 39 47
74 94 97 95 53 10 4 4 6 8 35 52 50 32 32 46 52 43 78 98 92 87 100 75 66 82 76 71 76 77 95 82 92 97 88 91 90 91 93 74 42 36 35 32 31
76 94 97 85 33 6 4 4 5 8 32 46 40 27 29 37 40 74 81 83 93 76 71 76 76 64 72 71 76 80 80 87 83 70 76 72 71 70 72 94 96 69 48 32 28
97 95 94 71 17 5 3 3 4 8 25 40 44 26 28 30 23 51 58 70 77 73 81 79 75 88 84 86 94 89 86 89 86 79 75 78 77 82 89 84 78 60 55 50 37
96 97 88 46 9 4 3 3 3 6 19 34 37 33 26 26 30 50 71 73 77 85 76 81 87 78 67 67 65 80 94 93 92 95 96 94 87 98 94 88 70 65 57 58 59
98 98 82 30 7 4 3 3 3 4 12 25 32 31 30 32 35 42 72 77 76 83 83 71 59 62 62 58 62 60 72 80 87 100 100 100 100 98 90 81 74 67 64 62 49
96 96 70 23 6 4 3 3 3 4 6 20 26 18 44 37 36 55 63 70 70 74 70 64 71 66 62 61 66 72 72 67 73 89 93 100 100 99 92 91 81 74 72 68 52
98 97 50 13 6 4 3 3 4 3 4 10 28 24 12 27 35 39 42 47 77 67 62 57 61 63 71 70 68 69 63 65 75 75 81 89 74 71 77 75 84 82 77 70 59
98 81 45 12 5 4 3 3 4 4 4 4 9 36 26 12 26 26 29 32 39 56 64 54 50 53 66 69 66 78 76 64 69 85 86 90 100 83 87 91 89 94 86 69 61

GFSSW_500_rhum_075.txt.gz
RH
70 57 55 52 56 55 60 66 71 54 35 31 18 9 8 5 4 5 12 18 23 25 26 26 23 23 38 37 24 25 50 43 42 72 50 63 78 100 99 93 82 88 84 96 95
93 73 70 67 61 64 70 76 70 56 39 31 16 11 7 5 5 10 16 23 26 30 33 35 31 36 28 27 50 26 34 33 28 57 57 67 75 92 100 94 79 79 87 94 91
62 92 78 77 71 71 84 80 69 54 44 27 15 12 6 5 7 14 24 28 31 37 42 56 58 45 30 22 25 47 21 34 26 99 72 78 91 89 94 94 80 64 83 76 88
39 75 89 89 75 75 84 82 71 55 45 26 18 12 6 7 15 21 36 41 48 52 40 68 60 33 31 25 31 51 24 32 39 98 87 93 99 93 94 86 100 92 86 84 69
11 44 86 96 84 90 88 89 76 61 54 26 21 8 6 11 24 35 50 55 44 38 65 87 45 41 34 29 41 54 30 32 52 81 100 100 93 97 73 76 100 100 94 74 73
14 17 45 98 96 100 91 93 92 67 54 29 20 7 9 21 36 44 43 46 47 41 99 62 47 53 68 62 50 52 35 32 54 86 100 94 85 98 89 85 100 95 80 60 55
12 11 22 95 99 94 99 96 94 71 54 35 12 8 16 31 40 44 53 60 62 53 94 52 48 84 91 96 66 56 36 54 50 88 100 93 95 95 85 77 96 99 93 90 64
10 16 12 42 99 95 97 96 98 78 62 31 9 12 31 39 42 53 64 88 94 68 52 44 79 95 90 100 68 57 61 67 50 100 100 95 92 91 93 100 100 100 97 87 94
8 10 17 24 92 98 96 97 95 83 58 18 10 24 38 42 39 53 83 67 66 90 87 59 99 100 100 96 100 58 45 49 63 99 99 98 84 79 97 100 100 98 94 86 78
10 9 16 16 56 96 96 98 89 74 43 11 17 32 41 34 48 66 82 81 86 75 69 83 100 100 100 100 78 56 33 68 63 96 98 98 88 88 91 84 95 97 99 91 79
16 10 16 17 37 94 96 100 78 69 30 12 28 42 44 57 46 78 83 90 93 97 84 76 100 100 86 96 82 53 38 55 66 98 99 99 100 97 93 77 76 90 82 88 80
15 20 16 19 29 89 98 98 85 65 16 18 37 40 65 36 42 68 86 87 90 67 62 71 87 95 100 99 69 54 46 57 80 98 100 95 96 94 97 98 98 92 80 76 73
18 26 18 19 22 88 98 97 81 61 11 22 41 38 37 34 47 63 79 95 67 52 58 68 80 75 100 92 89 62 40 64 85 96 96 98 99 96 97 97 75 88 75 61 64
19 28 21 23 41 94 99 98 83 35 13 30 46 40 31 48 62 68 60 43 53 67 74 59 49 63 84 88 95 49 51 89 86 100 100 100 98 99 93 99 98 88 76 71 64
42 34 28 29 88 97 100 99 78 20 16 34 52 49 32 45 63 90 95 96 90 71 100 100 71 63 91 78 53 56 79 94 99 99 99 97 98 98 92 94 66 99 78 71 66
42 37 28 29 98 98 100 100 66 15 21 32 49 47 66 44 49 67 82 96 89 100 100 89 70 65 55 54 50 90 98 85 96 99 100 92 92 89 94 100 97 99 98 83 81
34 29 46 81 97 98 100 91 34 16 24 37 45 41 60 69 67 71 78 80 70 97 92 100 72 70 77 62 60 90 83 91 100 100 100 100 91 85 97 96 98 82 74 81 60
33 49 64 61 91 100 100 68 18 16 23 41 32 32 48 52 51 67 100 72 100 100 100 100 84 100 92 82 76 85 100 100 96 94 100 100 100 86 89 86 83 76 70 60 64
31 31 55 88 98 99 98 48 16 14 26 52 23 32 35 32 46 74 100 74 68 85 96 100 83 64 62 78 78 69 89 99 100 97 97 99 100 100 84 64 92 83 85 79 72
67 30 99 97 100 100 73 21 14 13 29 53 25 28 33 36 48 95 95 96 75 98 100 79 74 85 80 65 69 68 68 67 66 90 96 96 92 95 94 96 98 100 71 73 71
46 82 68 97 99 98 52 12 11 13 30 40 25 21 26 31 78 73 53 61 98 96 96 100 78 69 76 86 100 82 62 56 65 61 61 68 78 91 97 98 80 71 78 56 40
34 93 100 99 99 72 17 10 10 13 35 29 24 22 27 36 63 72 74 81 84 86 80 86 76 74 68 64 63 67 75 80 99 97 77 73 56 70 74 86 89 71 51 43 39
99 100 99 99 84 31 9 8 7 13 38 30 23 24 26 42 47 57 55 54 56 62 66 74 74 61 54 62 70 64 61 58 61 64 68 69 58 67 58 49 52 54 55 55 60
98 99 99 100 55 13 8 7 6 12 25 30 24 23 29 33 35 23 30 46 53 61 69 56 58 59 54 44 48 59 76 80 80 77 75 64 66 71 64 61 68 75 68 64 66
99 99 99 85 20 7 6 5 5 9 23 20 27 20 24 34 24 34 38 43 55 55 44 49 59 56 53 54 59 59 54 58 70 80 77 73 69 73 72 76 85 86 88 86 82
97 100 98 45 9 7 5 4 4 6 23 24 22 17 22 26 33 44 40 43 52 58 56 52 51 45 47 47 48 52 56 60 65 65 60 52 56 63 66 70 73 76 86 87 84
98 99 88 19 8 6 4 4 4 4 10 18 20 24 21 22 21 35 33 40 61 54 48 43 39 40 37 44 43 32 36 46 50 50 62 57 62 55 61 66 70 81 89 88 89

GFSSW_500_rhum_078.txt.gz
RH
6 7 11 28 56 72 74 73 74 76 80 83 74 62 48 35 20 14 10 6 6 8 14 18 18 20 28 28 24 21 18 24 26 40 48 64 92 98 99 94 85 78 79 94 96
7 8 7 10 18 54 73 72 86 89 87 85 78 62 54 38 22 15 9 7 9 16 20 22 22 21 26 36 42 43 32 17 22 26 41 66 91 100 99 98 99 78 92 94 92
8 9 9 8 11 30 60 88 87 90 92 81 82 70 61 39 22 12 8 8 13 23 28 26 26 27 26 26 26 31 33 31 20 23 38 46 90 98 98 96 90 72 87 95 79
10 9 8 8 8 11 35 90 97 91 90 91 97 86 67 45 19 10 9 14 27 38 40 39 32 31 33 35 38 47 32 32 33 21 40 42 95 97 94 82 85 100 99 94 96
12 10 10 8 8 13 14 41 96 93 95 94 95 85 69 35 14 12 16 22 32 39 46 48 48 47 42 42 49 55 52 49 30 32 30 44 88 91 83 100 87 100 98 93 97
13 12 10 10 9 8 17 21 47 92 96 95 90 83 56 21 19 20 26 32 36 49 60 59 54 55 83 98 74 56 43 40 25 33 28 55 82 87 73 99 98 88 88 94 93
15 12 11 11 12 10 11 19 25 76 97 96 88 69 35 18 21 27 26 26 31 53 78 78 67 78 89 54 49 41 39 38 33 28 32 63 81 86 98 89 82 82 94 95 89
18 14 11 14 15 12 15 23 98 72 96 96 80 48 19 25 26 27 25 32 52 69 87 100 72 64 53 50 85 82 53 28 24 34 43 66 96 76 98 90 79 63 98 96 96
18 14 13 13 16 14 19 100 67 49 89 94 71 31 26 27 26 18 19 30 66 72 78 87 81 58 87 73 99 96 54 51 67 38 57 88 94 90 99 80 77 81 87 98 97
18 15 15 16 16 16 19 71 43 43 97 93 51 26 29 28 22 27 48 57 85 72 88 85 74 82 100 95 100 91 67 100 71 38 56 94 99 95 91 89 89 100 96 96 96
33 17 18 20 22 20 23 88 99 96 97 96 35 28 33 24 34 35 53 66 79 88 72 81 82 100 81 100 100 75 83 100 53 44 57 90 98 100 99 90 99 100 98 96 96
32 21 19 20 29 22 25 27 72 100 98 87 23 44 32 25 44 39 38 50 57 50 58 73 84 100 85 98 100 100 67 92 47 74 84 93 99 99 98 96 97 98 98 95 90
28 22 19 18 24 28 74 29 100 79 98 57 33 50 32 33 57 51 32 42 49 54 61 71 82 83 85 87 100 99 54 59 63 81 93 98 99 95 96 90 97 97 98 96 97
28 23 20 18 21 29 36 67 100 98 95 35 41 49 33 34 59 71 41 43 56 61 52 42 56 69 95 100 91 77 62 58 71 82 95 99 100 98 99 99 96 92 96 98 99
26 24 18 18 22 22 97 100 100 97 97 41 47 46 30 27 48 62 84 96 91 100 90 57 44 64 99 100 80 62 84 100 94 94 95 100 99 99 96 97 97 100 100 100 98
20 22 17 17 20 29 66 98 61 98 60 30 49 43 34 35 34 64 78 74 94 100 100 88 40 63 85 100 77 69 80 99 100 94 100 100 97 99 96 94 88 83 94 98 100
13 17 16 22 31 35 97 100 99 99 41 42 46 32 37 36 50 63 68 96 100 86 78 75 63 83 77 94 77 78 61 99 100 96 94 92 93 97 97 100 93 96 96 98 99
12 15 13 18 54 74 100 98 98 84 25 45 30 26 40 48 53 68 64 100 98 64 68 68 80 61 53 72 68 90 100 99 94 94 94 98 100 99 93 96 84 93 88 98 94
13 15 17 86 66 48 100 97 97 40 29 44 17 31 40 42 66 58 65 85 95 100 100 100 100 100 78 76 90 100 98 92 80 95 99 100 100 94 80 85 98 95 97 98 99
15 18 58 66 85 94 96 98 93 24 39 33 18 32 29 57 48 44 59 75 100 87 89 82 85 91 84 86 87 96 98 97 100 100 98 100 100 99 96 88 95 97 99 86 83
25 88 95 100 98 100 97 100 48 22 49 24 27 33 54 74 58 60 62 83 92 88 100 94 80 69 65 61 59 64 71 66 72 86 95 98 99 98 98 86 91 96 92 83 88
100 89 100 99 100 97 100 74 20 22 38 22 26 33 69 69 60 72 72 75 71 84 75 75 73 62 57 59 64 58 54 50 52 53 53 56 76 86 81 90 95 93 92 79 78
100 100 95 86 98 100 89 22 15 27 28 22 25 46 61 54 48 59 60 62 67 73 72 62 54 55 60 56 47 37 38 39 38 39 40 52 48 51 44 45 53 69 72 80 63
100 90 84 99 100 100 44 14 10 24 23 20 26 41 48 39 40 39 47 54 59 53 54 53 49 41 39 41 44 48 50 45 43 44 38 30 39 40 47 43 42 47 51 53 59
81 98 100 100 100 60 13 10 10 22 22 20 27 33 37 31 24 29 42 54 54 41 47 50 50 45 41 37 34 38 31 27 32 46 50 45 33 37 38 39 41 38 42 52 62
100 100 100 100 74 17 10 8 11 21 22 19 22 24 29 26 25 25 35 42 32 28 38 50 42 38 40 37 36 32 30 30 33 35 33 29 31 39 47 50 53 56 56 58 63
100 100 100 85 25 9 7 7 12 18 16 16 18 23 30 22 21 31 34 25 25 30 36 40 37 36 33 28 26 24 24 22 23 27 33 35 46 41 42 41 44 52 58 64 68

GFSSW_500_rhum_081.txt.gz
RH
8 8 9 9 9 10 9 9 12 37 88 87 82 75 75 77 75 72 66 54 41 22 13 9 7 9 12 13 15 16 14 12 10 12 14 18 58 64 88 88 83 98 64 66 71
9 9 11 12 10 10 10 10 11 10 17 67 94 90 82 81 82 82 72 60 31 21 13 9 11 14 18 18 21 23 18 15 14 14 21 23 52 74 96 96 89 95 73 99 83
12 10 13 13 12 10 11 11 10 10 10 20 63 95 98 91 82 79 61 46 27 16 11 13 19 23 25 24 27 32 25 30 19 20 18 23 44 76 92 97 98 69 91 100 83
24 21 18 16 14 12 10 12 12 10 10 12 19 55 90 91 79 65 56 33 19 14 14 19 26 35 37 32 35 35 31 35 32 35 34 20 27 70 83 84 99 84 74 94 91
33 31 29 19 14 13 11 12 14 14 12 13 25 63 88 91 70 61 40 22 16 16 17 23 36 49 56 48 40 34 29 32 32 35 35 30 23 47 77 76 98 98 99 87 71
31 35 28 16 15 14 11 14 15 19 29 47 92 61 79 93 61 35 25 18 14 12 11 17 32 53 61 59 59 56 48 38 31 29 38 32 27 29 59 77 96 100 77 91 78
33 18 19 18 20 19 15 13 15 35 51 66 100 58 90 81 46 28 20 15 15 15 14 16 40 75 77 74 66 60 56 52 45 38 38 43 32 23 42 77 100 96 100 90 74
42 29 18 21 22 20 14 13 15 22 29 97 79 95 97 73 36 21 23 26 20 13 20 48 65 72 100 87 76 90 83 78 69 50 40 44 29 24 32 80 92 99 99 96 95
45 36 28 27 26 22 14 16 17 23 23 31 100 90 97 50 29 31 32 19 15 23 48 61 81 81 98 56 56 50 46 48 50 55 44 40 32 28 32 69 98 95 99 92 93
57 53 46 38 38 31 16 20 22 48 28 62 75 78 91 40 28 30 32 24 22 49 60 70 71 78 75 91 94 87 97 93 69 44 39 43 36 38 30 88 78 94 98 99 97
40 51 51 51 47 40 21 20 27 33 87 90 52 94 89 40 30 33 36 31 40 49 61 73 94 100 100 100 96 88 86 78 43 45 36 39 53 49 35 75 85 78 78 97 94
57 56 52 47 48 34 28 20 30 74 100 76 91 99 50 33 33 37 40 40 48 59 56 73 91 98 96 100 100 70 84 100 100 53 59 45 81 63 90 99 98 96 94 95 85
47 57 59 50 40 27 33 23 34 91 96 48 97 80 36 31 32 51 56 63 55 59 40 66 69 74 90 100 100 92 100 100 100 78 46 93 100 97 100 95 97 91 97 98 81
24 32 49 50 36 27 30 25 38 40 72 99 95 56 37 27 34 53 49 71 82 92 61 50 53 60 60 100 87 69 100 100 100 88 99 100 95 98 98 97 95 94 85 97 94
49 26 26 39 34 28 31 38 42 76 100 99 96 52 33 26 32 46 49 76 83 100 82 42 54 68 98 98 89 61 88 100 100 100 100 99 85 89 98 98 89 96 85 97 98
55 43 25 27 34 25 35 42 81 56 100 100 63 36 24 28 39 46 79 100 100 96 82 46 50 96 83 89 90 96 100 100 100 99 98 96 96 98 91 85 81 92 82 94 98
99 42 26 23 30 25 35 94 94 98 100 76 30 20 25 37 59 49 93 99 68 74 58 55 64 67 64 75 90 97 100 100 100 86 82 97 95 89 96 100 77 86 92 99 99
98 40 24 25 27 25 39 100 85 100 97 30 21 23 33 49 52 47 87 78 59 84 58 70 64 78 77 62 67 66 73 100 82 89 99 100 96 100 99 100 95 99 99 88 87
97 41 16 26 25 29 69 92 100 100 41 30 22 25 36 56 58 84 97 98 96 100 100 80 55 69 66 54 61 100 92 86 100 99 89 86 96 99 93 95 92 82 98 98 94
14 13 20 21 26 34 100 100 100 92 27 22 25 34 42 57 60 68 100 100 99 100 100 100 72 63 81 96 85 100 100 99 96 91 92 97 93 81 70 67 89 90 89 87 87
24 18 19 25 45 96 62 100 99 28 34 22 33 37 48 40 48 74 84 88 100 97 93 92 80 77 90 73 71 77 99 72 72 74 79 89 100 94 95 77 71 83 97 98 100
20 27 25 98 100 100 100 99 30 27 27 30 40 46 47 49 59 63 71 70 69 71 76 77 81 73 73 60 55 57 49 56 38 41 41 48 58 54 71 95 89 82 95 95 91
20 69 100 100 100 100 100 57 23 31 26 36 53 52 52 54 53 56 59 64 69 64 62 64 66 67 64 68 67 57 49 34 34 33 36 38 35 34 38 35 42 56 73 92 98
88 95 100 98 100 100 94 21 29 23 28 38 53 44 50 45 49 51 54 48 53 58 57 50 42 45 46 52 54 49 37 32 38 35 26 27 26 24 28 31 33 32 48 52 57
100 100 94 98 100 99 23 19 28 21 30 45 48 44 41 33 40 50 46 40 52 52 52 48 44 42 41 42 38 34 35 32 29 35 35 27 19 23 26 29 34 38 37 35 40
94 94 95 100 100 35 15 21 19 19 30 42 39 33 28 24 31 30 38 35 32 44 43 35 40 44 44 40 34 29 23 20 21 30 32 32 45 45 44 49 44 37 37 38 40
100 100 87 80 39 13 11 12 11 16 24 34 34 25 21 19 19 27 34 25 23 27 34 34 31 30 28 27 24 26 25 22 20 18 22 28 33 37 35 36 45 55 56 52 49

GFSSW_500_rhum_084.txt.gz
RH
14 15 17 14 9 10 10 12 12 11 11 11 12 10 10 20 61 83 84 82 78 70 77 72 60 40 29 20 12 10 14 7 5 8 9 10 9 15 21 36 55 57 61 62 60
18 21 21 21 19 11 10 11 14 13 11 12 13 14 14 11 19 68 81 88 81 76 72 58 45 28 19 13 11 10 8 7 10 12 12 11 10 16 16 35 50 71 66 57 54
22 23 27 27 30 27 18 14 17 14 12 12 13 14 16 16 32 76 71 83 78 79 61 38 25 17 14 12 11 11 8 14 14 16 15 13 12 12 19 28 49 78 83 61 57
35 31 29 37 39 34 33 30 21 13 12 12 14 16 18 23 78 80 78 74 64 48 33 22 18 14 11 10 13 11 15 22 22 21 18 16 16 13 19 22 60 81 100 62 66
39 41 40 38 35 38 38 30 24 14 13 12 14 18 26 34 77 89 81 66 55 35 23 17 13 11 9 12 21 26 35 36 34 28 27 22 17 16 16 27 70 72 87 71 70
44 41 47 48 41 33 28 26 19 17 17 14 14 19 21 43 69 84 78 46 24 20 17 13 10 9 9 13 22 36 54 50 50 40 33 32 27 22 15 29 76 71 78 80 61
42 38 49 56 47 35 29 22 19 20 19 14 15 17 22 57 60 61 82 29 22 20 14 9 8 8 10 19 25 38 50 62 65 53 43 41 33 28 21 24 63 78 96 96 62
34 34 33 51 53 38 28 22 22 21 21 15 19 25 36 67 48 91 56 22 26 18 12 10 8 12 22 30 50 79 82 70 59 66 60 50 32 31 29 26 42 74 72 95 98
51 47 36 41 55 49 33 29 26 25 24 16 25 31 39 83 88 96 31 30 28 25 28 28 27 25 56 64 77 74 56 60 62 63 58 57 36 39 32 26 30 59 75 97 99
39 48 56 45 50 58 51 37 32 31 28 18 29 47 99 97 88 37 28 46 36 38 44 45 60 68 58 65 76 85 79 68 48 54 72 61 40 37 37 30 26 42 62 92 99
31 36 44 52 54 52 54 52 40 39 30 24 31 96 97 91 45 27 41 51 51 46 40 47 56 72 85 100 100 82 80 100 100 78 60 66 41 38 41 40 38 41 54 95 89
25 20 20 28 53 63 52 53 42 44 40 55 31 86 87 90 33 35 42 45 61 47 34 42 42 51 64 94 86 90 100 91 96 86 59 65 48 38 51 39 44 40 66 97 99
65 46 33 22 38 59 58 53 46 43 35 36 41 49 88 91 30 39 42 44 66 30 46 48 43 69 93 100 100 100 100 100 89 100 90 60 44 49 50 58 30 46 73 96 96
86 79 57 26 38 53 59 54 46 38 40 45 47 85 98 32 32 39 56 60 65 45 45 44 40 53 84 95 97 100 100 100 87 68 76 65 58 54 72 39 34 66 71 83 75
78 80 68 54 25 48 55 53 44 37 58 42 61 95 47 30 35 47 77 87 95 61 33 36 49 62 94 70 93 100 100 100 73 84 69 76 88 100 95 43 66 85 83 98 99
91 97 74 61 24 45 49 46 37 42 45 68 96 52 36 28 46 49 68 78 77 64 40 46 65 72 79 68 79 96 91 97 100 100 100 99 100 97 89 90 99 87 97 97 97
100 100 61 46 24 38 46 38 34 34 81 99 68 38 32 46 49 58 44 50 52 49 45 57 54 71 84 80 99 99 95 92 98 98 98 100 99 99 93 93 96 92 91 98 92
100 97 56 33 27 31 38 32 53 100 100 84 44 29 43 42 42 65 52 70 85 86 73 84 68 73 83 95 90 100 100 97 98 97 100 91 85 90 100 81 70 63 63 69 81
91 60 40 29 24 34 29 76 100 100 53 42 28 38 48 65 87 84 96 98 100 67 67 76 67 62 67 81 92 100 100 100 100 93 92 97 88 88 98 100 63 56 60 75 82
70 21 22 22 30 28 34 100 100 52 36 24 31 38 64 68 85 70 100 98 100 74 60 70 69 87 100 100 100 100 100 100 96 100 100 90 87 73 90 83 72 75 76 68 87
14 19 25 28 27 31 75 100 100 45 23 31 34 43 52 68 71 73 77 99 97 88 73 74 66 83 94 99 97 91 92 96 82 76 80 85 81 83 71 71 75 63 62 85 89
23 24 25 25 29 90 100 100 67 36 28 30 33 44 44 64 65 69 82 78 80 91 95 85 74 72 67 74 70 70 43 55 48 44 56 57 53 63 74 70 67 74 83 73 73
24 39 49 77 100 100 89 36 46 26 31 29 36 44 52 51 55 63 70 75 80 85 85 77 81 84 60 64 54 38 34 25 29 34 31 38 48 43 43 57 63 61 61 76 98
70 88 99 100 100 95 28 37 32 31 31 34 54 54 47 43 45 46 49 62 67 70 68 66 69 74 70 50 39 29 24 20 17 22 21 26 33 40 41 44 41 52 48 49 56
100 98 97 100 47 25 31 35 30 36 32 35 40 40 37 38 40 45 52 51 51 52 56 54 56 56 50 41 41 28 27 36 28 20 16 18 19 24 29 29 35 36 40 40 43
100 100 96 94 23 26 30 24 33 37 38 30 29 27 31 36 40 35 41 47 44 43 45 45 47 46 40 29 22 21 20 22 26 27 32 40 24 20 20 22 28 32 31 30 30
95 31 16 17 16 18 16 20 23 27 28 26 21 19 24 24 27 30 28 32 35 33 33 34 32 33 31 25 23 20 22 21 16 14 20 24 24 25 24 28 31 31 30 29 28

GFSSW_500_rhum_087.txt.gz
RH
28 33 28 25 19 18 17 18 14 10 10 10 11 15 14 12 13 13 15 16 18 36 63 78 74 71 68 71 67 59 46 40 28 19 15 11 10 9 6 4 4 4 7 13 15
33 32 34 29 27 25 24 20 20 18 12 12 12 14 13 13 14 14 17 18 20 41 62 67 79 73 71 63 56 51 52 45 28 19 14 12 11 8 6 5 4 7 5 12 17
40 38 39 37 33 29 30 25 25 24 24 23 16 18 13 13 13 16 20 18 22 56 67 67 70 67 75 63 49 31 40 31 24 16 13 11 9 9 7 6 6 9 13 25 38
45 44 46 44 40 42 38 32 29 29 28 32 29 20 13 12 14 17 21 20 28 34 55 54 58 61 49 46 34 39 25 22 16 13 12 10 10 10 8 7 7 14 12 19 55
55 47 41 54 53 48 47 44 38 35 30 30 30 21 14 16 16 19 22 23 23 24 53 51 34 25 21 20 19 16 13 11 11 10 8 8 11 13 10 10 10 14 22 28 48
62 54 40 43 64 65 57 54 45 40 34 29 28 20 18 19 23 26 23 24 39 61 62 42 26 17 12 11 10 12 11 11 11 9 10 13 16 21 12 15 13 13 21 28 44
94 82 70 64 69 77 74 62 54 45 36 31 28 20 21 20 20 21 29 54 70 59 40 24 14 11 9 8 7 8 8 10 8 11 30 44 28 24 20 20 16 14 16 36 43
100 100 100 97 87 80 77 69 58 45 36 31 28 22 23 22 21 27 58 87 67 29 22 18 15 17 15 11 9 8 8 11 15 31 41 71 30 37 31 29 20 16 19 33 45
98 99 100 98 86 82 78 73 59 45 36 29 30 26 26 28 27 62 75 67 31 32 34 23 33 35 40 30 23 28 25 33 40 65 60 71 66 50 40 34 30 20 20 35 54
52 75 88 87 87 98 82 74 75 65 40 34 32 31 37 32 30 67 76 55 33 38 45 27 38 42 47 74 83 56 56 57 44 59 89 81 69 64 55 45 37 28 20 37 66
40 29 27 29 58 54 91 99 94 82 57 45 41 37 35 33 25 66 77 40 36 44 32 31 37 38 45 61 70 61 55 54 57 84 83 74 52 68 64 56 39 35 23 31 63
94 81 36 24 23 27 38 61 75 89 63 56 46 54 46 43 34 78 80 35 40 39 30 35 41 58 66 84 95 96 98 99 82 66 86 92 54 66 59 49 57 33 26 36 61
78 65 94 58 25 77 37 75 87 81 62 54 53 52 43 38 61 94 41 51 52 38 29 33 38 47 66 89 98 100 100 100 88 87 97 89 81 64 53 44 65 54 53 46 56
78 66 71 98 41 58 81 49 70 75 62 54 48 44 43 62 90 32 54 66 71 60 31 30 37 43 59 94 98 100 64 60 67 100 96 85 88 55 45 45 76 67 47 53 48
100 79 73 99 48 28 100 100 85 77 58 56 45 45 53 98 36 40 53 88 78 56 33 29 36 63 77 68 100 98 86 96 97 100 100 100 74 59 46 51 77 50 33 42 40
99 100 76 100 44 43 81 98 60 57 53 56 45 56 88 32 34 62 54 48 55 64 32 26 45 81 82 85 82 100 100 100 100 100 100 98 97 86 73 82 52 46 31 45 73
99 100 70 91 28 36 51 50 55 48 49 50 68 98 29 35 61 52 53 40 46 42 36 24 43 57 82 97 90 100 100 99 100 100 82 90 100 79 98 91 60 41 34 60 94
100 78 68 45 27 39 38 49 70 44 70 95 95 27 40 47 63 56 75 82 48 45 42 45 71 84 93 83 72 84 80 100 100 99 99 100 100 99 85 84 71 91 68 95 95
53 63 36 27 35 42 62 87 81 69 100 79 25 41 53 59 79 83 89 67 53 66 71 80 96 98 98 100 90 97 100 100 99 100 100 100 100 100 100 91 88 92 87 96 96
28 27 25 44 100 100 100 100 100 98 47 31 59 70 82 85 77 63 76 77 68 61 57 61 93 98 100 98 97 100 100 100 97 100 100 100 99 98 100 86 87 79 94 78 90
30 33 39 63 55 98 100 100 74 31 34 51 67 71 76 74 72 68 97 65 61 74 88 95 100 100 100 100 98 99 90 87 93 96 100 100 91 95 100 96 100 79 59 74 92
30 31 34 36 51 93 100 96 32 33 41 56 55 72 68 77 85 98 85 69 55 63 82 83 74 95 89 80 75 74 62 74 62 69 79 82 78 76 84 83 88 85 100 100 98
43 33 44 57 89 94 100 47 36 34 42 47 44 63 75 71 74 82 72 70 69 66 66 60 51 56 72 65 42 46 43 42 51 51 51 59 58 61 70 77 64 67 88 99 87
100 96 90 94 97 98 49 30 32 37 36 38 49 58 64 63 71 67 68 63 62 63 63 59 60 61 53 48 36 39 34 38 36 29 34 42 45 48 49 50 59 68 55 56 80
52 74 29 30 32 38 31 30 31 31 34 45 45 48 45 50 54 60 57 53 56 53 51 53 53 55 45 44 44 36 30 27 27 20 19 22 28 35 37 37 39 43 46 46 45
19 20 19 24 29 28 26 24 26 28 40 34 30 32 34 43 47 46 44 44 42 40 36 35 34 35 35 30 24 19 18 23 23 18 16 15 14 15 19 26 35 37 38 38 34
9 10 12 13 17 22 21 20 20 27 27 24 22 22 24 27 27 30 32 30 28 27 27 26 24 21 17 16 17 16 16 14 13 13 15 16 15 15 14 13 13 13 14 15 16

GFSSW_500_rhum_090.txt.gz
RH
52 52 39 38 39 39 40 35 28 22 19 18 17 13 10 11 13 13 16 14 15 14 14 14 12 14 10 34 68 75 68 64 68 59 45 36 29 24 18 17 12 10 13 12 15
54 57 51 45 43 42 39 38 38 28 24 23 23 20 14 11 12 13 16 15 14 14 15 16 15 27 40 41 60 68 67 63 63 61 54 40 27 26 23 19 16 11 14 12 13
73 60 55 55 51 50 47 45 42 35 30 28 29 27 25 27 19 17 18 15 15 17 20 20 15 17 20 50 60 64 63 60 56 53 45 47 41 34 29 26 21 16 12 8 8
92 80 73 60 63 59 56 57 53 42 40 34 33 37 33 31 27 28 20 15 17 19 20 22 18 15 23 31 42 52 62 64 56 47 45 46 47 40 37 24 18 14 19 12 8
98 92 87 83 74 74 63 65 64 59 51 45 40 43 39 34 27 28 19 16 19 20 21 24 21 25 42 36 36 33 39 52 46 48 41 37 39 34 34 23 18 12 11 13 10
99 100 98 97 89 83 79 73 75 73 62 58 49 48 43 35 35 28 20 22 22 25 25 26 42 41 32 22 21 19 20 25 27 30 23 20 25 35 24 16 13 13 11 9 7
92 100 100 100 99 97 93 91 83 84 76 66 57 51 44 37 37 28 21 24 25 27 28 55 40 41 35 18 12 11 11 11 11 12 14 15 19 33 22 22 15 14 12 10 8
44 38 83 100 100 100 100 98 96 100 91 77 70 53 43 42 35 27 24 26 27 27 36 48 45 32 19 14 12 12 10 8 9 9 8 14 14 15 14 16 17 18 15 13 10
44 49 42 74 99 100 100 99 100 99 100 100 88 81 45 38 30 29 30 30 28 31 41 49 32 22 18 32 37 36 23 13 19 13 10 15 10 14 20 35 28 21 19 17 14
52 54 48 46 96 100 98 100 98 100 98 84 58 91 54 40 35 38 36 30 30 37 57 33 25 22 48 62 80 58 48 66 51 50 44 42 20 15 20 25 46 38 27 23 18
100 97 39 37 47 90 100 100 100 100 100 97 85 55 48 41 39 43 41 36 44 66 36 30 24 46 50 56 62 51 66 87 95 71 68 51 56 71 72 47 49 53 34 33 24
80 84 100 35 30 33 74 100 100 100 100 94 78 59 50 48 49 45 41 56 73 52 38 29 40 37 42 69 66 69 81 92 95 98 78 66 50 79 68 78 71 75 43 42 35
82 84 85 95 29 56 31 48 96 99 98 100 96 79 64 52 47 44 56 55 45 47 50 24 31 35 42 68 59 57 50 44 42 78 66 88 73 80 54 66 74 72 74 49 37
72 83 64 99 33 92 49 100 85 96 87 86 94 67 54 50 50 61 50 44 65 70 52 23 30 38 49 59 72 83 69 62 69 71 85 85 98 85 57 58 68 61 50 42 30
98 62 58 89 49 100 81 100 100 97 84 77 67 60 56 54 72 62 42 55 55 53 32 24 29 47 51 71 91 95 94 84 97 99 99 98 59 50 95 95 60 80 62 35 50
100 100 56 97 36 100 100 95 76 85 49 51 52 53 56 78 44 37 46 27 33 43 27 24 41 47 50 69 84 100 90 94 100 99 100 100 97 51 50 53 73 75 56 53 43
100 94 63 69 30 99 72 89 100 68 65 59 59 74 82 39 50 55 47 26 45 34 24 27 57 68 68 88 98 100 100 100 100 100 100 95 100 94 60 67 83 91 46 30 29
58 59 61 29 48 93 92 84 100 100 88 84 79 96 28 48 62 61 87 32 36 38 30 37 51 77 92 97 100 97 97 98 100 99 100 100 100 97 74 78 69 45 33 31 51
46 49 43 33 30 58 62 100 94 100 84 93 82 38 48 65 79 73 51 38 40 64 55 56 72 88 100 99 98 100 98 100 100 99 100 100 100 99 100 78 79 96 42 45 84
52 51 47 49 52 70 100 99 92 100 84 40 48 50 62 59 56 52 55 56 53 72 91 98 100 97 100 98 93 100 99 99 95 100 98 100 100 99 98 100 100 91 76 92 96
81 73 92 99 100 100 94 96 100 71 36 62 88 77 65 43 42 56 53 44 48 66 98 100 100 99 100 100 100 100 93 88 97 91 99 99 100 99 100 100 84 100 93 75 83
55 69 85 94 83 82 82 57 42 64 69 75 86 69 60 59 52 47 49 55 67 76 76 91 93 100 98 98 98 93 81 84 89 94 91 100 100 99 100 98 100 100 78 67 80
82 59 64 92 66 43 30 41 56 59 70 61 64 64 59 66 58 64 70 62 64 63 55 69 67 51 58 68 70 69 56 51 53 54 65 79 88 93 95 100 100 100 100 99 98
66 98 87 78 43 22 30 44 45 48 58 61 50 48 51 56 58 56 52 55 58 52 51 55 62 67 67 42 37 37 41 37 32 38 41 43 48 55 61 78 93 99 96 91 91
16 18 24 20 22 26 31 33 35 39 36 38 33 36 40 42 45 50 46 51 50 51 49 44 41 40 37 34 32 28 24 19 18 17 19 23 31 39 41 42 46 50 59 66 69
7 11 13 17 19 22 26 26 26 24 22 23 27 34 35 33 39 35 39 39 37 36 32 31 31 27 22 20 17 16 15 15 16 16 17 16 15 15 18 19 22 30 34 35 34
3 4 7 12 15 19 20 19 18 17 14 15 17 20 25 29 32 30 30 28 26 24 22 20 19 18 16 15 16 17 14 12 12 12 11 12 11 11 11 12 12 10 13 12 14

GFSSW_500_rhum_093.txt.gz
RH
66 59 54 52 51 51 54 50 56 52 47 37 29 22 18 15 14 13 11 11 13 16 16 15 14 14 13 11 9 8 7 6 11 48 60 66 53 46 42 38 33 26 22 19 17
82 78 71 64 60 60 62 56 55 63 53 47 40 32 26 21 17 16 15 12 13 15 18 18 16 16 16 14 12 10 8 8 17 40 64 62 66 56 45 41 34 23 24 24 20
100 96 93 90 82 74 71 63 62 61 66 56 49 40 33 28 24 22 19 18 17 18 19 19 17 19 18 15 14 12 9 11 10 25 50 65 63 62 56 50 37 27 21 22 20
100 100 100 100 98 96 89 76 69 67 62 69 60 53 42 35 31 27 26 26 26 26 24 19 18 20 18 16 13 11 20 20 30 34 45 55 64 59 57 54 48 39 22 20 24
97 99 100 100 100 99 98 95 84 78 72 73 81 57 54 45 39 35 33 32 31 28 24 18 20 21 19 14 20 38 36 35 29 35 38 49 62 61 56 55 41 33 30 19 20
40 37 71 96 100 100 100 100 99 97 86 78 81 69 65 53 48 44 40 36 33 28 22 21 25 22 19 18 16 22 28 26 27 22 30 35 55 60 55 48 46 30 35 38 26
38 42 35 38 40 91 100 100 99 98 98 88 92 82 73 62 56 47 44 39 36 29 22 26 28 25 20 18 23 26 26 22 13 16 15 20 34 50 49 46 47 35 34 34 30
49 42 36 41 39 34 84 100 99 100 100 99 100 100 79 67 60 52 45 41 32 23 24 28 27 23 20 26 34 30 21 10 17 10 10 13 18 24 31 40 42 36 31 31 29
74 56 45 43 30 34 56 99 100 99 98 100 100 94 87 77 63 55 48 36 27 28 29 29 26 24 26 32 17 20 21 23 37 23 18 13 12 15 20 22 28 24 30 28 24
100 100 100 62 42 49 79 100 100 96 100 99 100 100 94 98 91 73 44 32 31 33 32 31 31 33 30 19 27 40 47 48 56 82 58 32 12 14 14 14 16 18 18 20 23
91 100 100 95 50 79 99 100 100 100 100 100 100 97 100 99 93 55 37 36 38 36 34 42 37 32 22 29 42 38 47 58 59 68 44 67 40 38 38 22 11 13 16 18 18
82 82 99 70 49 98 99 100 100 100 100 100 100 99 96 82 55 47 44 44 41 42 45 40 30 21 37 35 44 43 39 38 37 46 45 58 58 66 53 63 32 18 13 16 29
65 82 79 85 63 100 100 100 100 100 100 100 100 100 84 62 58 55 48 46 46 46 41 37 24 24 40 49 69 72 68 77 69 62 70 60 76 61 60 51 56 47 40 24 38
67 64 64 61 46 88 100 100 100 100 100 100 99 93 82 77 60 52 53 54 46 40 41 33 24 30 33 55 64 76 91 87 94 98 88 50 40 48 72 67 52 84 62 55 69
96 44 68 60 47 80 100 100 100 100 100 100 92 99 72 59 56 60 56 47 35 26 26 30 26 30 27 40 73 90 100 94 100 100 100 79 51 74 63 61 59 98 100 99 100
100 55 80 84 84 74 100 98 100 94 75 71 78 68 61 55 60 46 43 31 27 25 36 25 27 28 35 37 67 78 76 99 100 99 100 100 83 46 44 56 56 63 92 92 91
74 53 73 100 80 95 95 93 88 79 57 59 58 56 58 63 39 53 50 24 35 37 25 30 33 26 37 64 75 85 86 98 98 100 96 100 98 84 52 63 96 91 59 42 32
44 84 98 83 66 96 100 100 72 69 58 55 58 61 50 48 58 62 51 23 34 30 26 30 49 52 53 83 78 96 100 100 100 100 100 100 100 90 83 89 91 71 57 44 36
69 79 99 98 89 99 92 92 61 99 87 64 77 34 60 59 44 36 26 27 36 33 43 49 59 59 81 98 98 97 100 100 99 100 100 100 100 94 99 90 78 39 35 36 49
45 47 38 65 78 74 94 65 75 81 68 73 39 60 54 45 48 36 38 54 74 84 70 73 81 84 88 99 99 100 100 95 94 97 100 100 98 98 100 100 100 72 73 90 96
82 60 53 63 68 74 84 79 79 67 44 42 51 41 53 56 48 38 44 54 86 96 92 89 92 95 99 100 100 100 97 92 100 98 91 100 100 99 100 100 100 100 99 99 98
100 86 80 87 74 69 43 48 68 69 71 49 42 54 51 46 32 34 53 59 67 94 84 86 87 90 84 78 73 68 68 82 90 98 100 99 100 99 99 100 99 99 100 100 98
78 36 26 38 43 49 55 59 57 57 55 47 46 64 61 51 26 33 41 43 49 69 78 77 66 58 49 53 55 51 42 47 61 68 84 99 100 98 96 93 100 100 100 98 100
17 20 27 32 30 34 40 46 42 42 47 53 49 39 34 34 42 41 41 35 42 55 57 56 47 31 27 26 26 28 30 26 35 44 40 49 59 86 100 99 90 98 100 100 100
12 14 14 17 20 20 26 24 26 25 28 30 29 38 35 32 34 41 44 37 33 36 38 34 30 26 24 23 21 20 18 17 17 17 19 29 35 37 36 55 78 90 90 92 91
7 9 10 12 13 14 15 14 15 19 22 20 21 20 22 23 31 30 31 32 29 27 27 25 24 22 19 17 14 14 14 13 11 11 15 14 14 13 16 25 33 38 38 40 38
4 5 6 7 11 12 15 14 14 14 12 16 19 20 22 22 20 19 19 18 18 17 17 16 15 14 13 11 11 9 10 9 8 6 6 7 8 8 7 7 7 8 9 8 8

GFSSW_500_rhum_096.txt.gz
RH
100 100 96 73 57 48 48 48 56 51 48 49 46 40 35 26 20 15 13 12 11 11 11 13 14 16 17 16 14 13 10 11 11 10 9 8 6 27 52 52 45 35 27 25 21
99 100 100 98 93 73 66 70 67 60 62 57 57 50 43 40 29 23 20 18 15 14 13 12 13 17 19 19 17 15 14 15 13 12 10 9 7 7 20 56 60 46 30 26 24
100 100 100 100 99 98 93 93 82 81 76 69 63 59 50 47 42 32 28 24 20 18 16 15 14 18 20 21 19 17 18 17 14 14 12 11 10 6 9 32 68 63 47 35 32
91 99 100 100 100 100 99 100 100 92 88 85 78 61 59 53 52 40 34 29 26 22 20 18 19 23 25 23 20 19 19 18 18 15 13 12 11 11 9 17 60 72 65 50 40
100 97 98 97 100 100 100 100 98 99 97 94 83 68 71 63 55 50 41 34 31 28 25 24 25 26 25 21 20 21 21 20 17 14 11 10 12 17 16 16 52 66 66 59 52
99 100 91 96 94 99 100 100 100 100 99 100 98 85 74 80 70 56 50 44 38 35 34 32 30 28 23 22 25 24 21 17 14 13 12 12 16 22 18 26 25 60 64 52 50
100 89 73 70 60 71 93 100 100 100 100 99 100 99 94 96 76 63 54 50 45 43 40 37 33 28 24 27 26 22 17 17 16 16 13 15 17 17 16 21 26 41 61 56 46
100 80 69 50 48 39 44 85 100 100 100 100 99 98 95 92 80 74 69 59 50 46 43 38 30 24 26 25 22 19 17 13 18 21 17 15 12 15 14 16 21 30 49 57 51
93 100 88 50 46 43 42 39 85 100 100 100 99 99 97 100 96 81 71 61 53 47 39 29 27 27 25 22 20 17 15 15 16 29 19 18 12 30 26 15 15 24 35 49 51
89 85 98 90 58 48 41 36 84 93 100 100 99 100 97 100 92 81 72 60 55 43 31 32 30 26 22 22 18 17 18 23 29 39 41 35 19 40 49 27 15 16 23 34 49
61 92 79 80 68 52 46 95 100 100 99 95 94 100 100 96 91 90 89 85 57 33 38 35 29 24 20 21 23 26 38 42 46 45 56 68 51 61 62 39 17 14 18 25 33
73 69 73 96 72 55 75 90 100 95 100 100 100 100 100 99 100 99 79 55 44 42 39 31 26 22 19 19 33 35 56 70 82 74 82 72 38 32 51 42 33 19 15 17 23
85 72 89 68 96 100 99 100 100 100 100 100 100 98 98 93 96 75 54 49 47 43 37 30 26 22 18 21 30 34 46 66 67 83 100 89 56 59 58 59 50 35 28 14 15
48 72 55 83 100 100 100 100 100 100 100 100 99 96 89 79 68 63 55 53 47 40 36 29 26 16 21 22 33 49 59 62 74 72 86 98 43 40 49 76 62 60 34 19 14
58 62 78 99 88 100 100 100 100 100 97 100 99 89 82 81 70 62 55 47 41 38 35 32 21 20 25 30 41 39 42 54 92 99 92 100 49 42 47 43 74 90 65 48 25
53 47 84 98 100 100 100 100 100 100 97 100 90 83 77 61 63 55 45 40 33 23 23 22 21 25 30 30 26 50 66 90 100 96 98 100 82 64 67 86 99 98 100 98 100
46 49 62 95 87 95 90 98 99 88 82 83 72 64 61 64 51 46 43 26 27 31 30 28 24 26 20 27 56 70 78 81 76 90 96 100 94 82 97 96 98 100 100 96 100
74 76 95 84 65 69 65 66 61 52 59 63 58 59 60 45 53 52 35 24 23 23 25 26 24 20 27 52 82 84 100 100 98 100 84 85 94 73 100 96 92 41 77 71 74
58 88 66 41 53 64 65 58 45 48 58 58 61 50 51 41 28 26 24 23 24 32 35 21 24 28 64 83 88 91 98 97 94 99 96 95 96 96 64 84 80 58 62 80 51
50 49 53 67 88 76 57 50 45 60 64 47 48 43 38 32 29 39 48 51 27 30 44 35 49 80 84 91 97 99 100 98 97 100 100 100 98 98 99 98 89 87 80 73 92
65 62 76 96 84 88 67 66 72 52 48 50 50 46 26 30 44 52 64 60 48 56 77 83 85 84 100 88 88 98 97 92 99 98 99 100 98 100 99 99 100 99 100 100 100
52 40 45 48 48 49 42 42 41 40 40 40 36 24 26 31 36 48 54 60 62 78 88 86 84 70 55 53 57 66 79 86 95 96 100 99 98 99 96 98 100 99 99 99 99
33 30 36 42 40 35 35 32 29 39 35 21 20 21 22 24 26 35 38 38 55 70 61 51 46 42 34 33 30 31 43 51 64 76 90 93 92 89 88 93 89 99 100 100 100
19 18 22 26 25 28 32 35 32 36 35 33 24 23 25 19 25 34 33 41 54 52 42 38 31 28 26 24 21 19 19 23 34 45 50 65 80 90 97 98 100 100 98 98 98
10 11 13 13 13 15 18 22 22 21 21 22 21 24 32 28 18 33 38 44 44 45 36 27 25 23 19 17 14 14 13 12 15 17 18 32 36 52 52 51 62 75 74 72 71
6 8 10 10 10 10 12 14 13 16 16 17 18 19 21 25 23 21 27 28 28 25 24 22 20 17 14 11 10 10 10 11 9 10 12 13 13 12 16 18 23 23 23 17 15
5 6 6 8 9 8 8 8 9 10 11 12 13 13 14 14 14 14 14 14 15 14 13 11 9 9 8 9 9 7 6 6 6 6 6 6 7 7 8 7 7 6 7 7 6

GFSSW_500_rhum_099.txt.gz
RH
48 61 100 100 99 94 75 56 42 41 38 32 39 36 34 32 32 33 23 16 12 10 10 9 9 11 12 13 14 13 8 9 8 7 8 8 6 5 7 7 10 42 40 28 22
87 85 100 100 99 100 99 91 70 55 50 48 47 42 41 39 38 36 34 28 18 14 12 12 11 11 11 12 13 13 14 13 9 9 8 10 6 4 4 5 8 6 34 50 35
100 80 82 97 100 99 100 100 99 83 66 63 99 52 46 51 51 49 44 37 29 21 17 16 15 14 13 13 13 14 15 14 14 12 9 10 9 6 5 5 6 8 6 23 56
100 100 94 91 93 100 100 100 100 98 98 85 93 80 71 70 63 56 50 44 35 31 26 24 21 18 16 15 15 15 18 17 16 13 10 10 10 10 8 6 6 5 6 6 23
99 100 100 81 86 97 100 100 100 99 98 99 100 100 100 83 73 66 61 51 42 36 33 30 25 22 21 19 18 20 23 20 17 15 12 11 12 9 8 8 8 8 6 8 9
100 100 100 93 83 95 100 100 100 100 99 98 100 98 100 93 81 69 63 59 50 42 36 32 29 28 25 24 26 27 25 23 21 20 17 15 12 9 9 9 7 7 9 13 11
98 100 100 95 96 99 100 100 100 99 100 99 99 99 100 100 82 70 67 64 56 50 43 39 37 35 33 32 31 29 25 24 23 20 18 16 13 10 9 9 9 10 14 20 21
66 83 100 91 96 97 98 100 100 99 100 100 100 99 97 99 95 79 77 76 62 54 50 46 42 40 38 35 31 26 25 23 19 16 14 12 9 10 14 12 10 12 13 17 19
67 94 100 88 84 83 62 94 100 100 100 100 100 99 98 100 99 100 90 74 66 61 56 51 47 42 37 31 27 24 22 18 15 14 12 23 21 33 54 38 11 10 13 15 17
62 99 98 97 70 55 46 50 95 99 99 100 100 99 92 99 98 97 90 84 76 67 59 53 46 39 32 28 25 20 18 16 19 21 18 35 40 69 74 34 33 19 12 14 15
83 86 94 93 66 50 43 53 81 100 100 97 99 100 100 96 100 97 96 84 71 69 62 56 50 38 31 25 22 20 15 16 50 34 24 39 37 70 68 37 35 30 29 15 15
80 66 79 80 62 44 32 48 100 90 97 100 100 99 100 98 100 99 91 79 74 75 65 50 40 32 27 24 19 15 18 33 36 32 50 65 59 84 49 43 40 44 52 35 18
73 98 98 81 93 91 98 98 100 100 100 98 100 100 100 93 95 96 92 91 71 51 46 41 35 30 26 19 18 23 24 25 23 31 48 76 68 61 47 32 46 57 62 61 33
82 77 79 100 100 100 100 100 100 100 100 100 100 100 92 97 100 94 72 59 51 48 46 40 32 26 19 16 20 29 24 24 30 47 64 80 72 66 75 67 66 64 52 56 37
63 100 100 93 100 100 100 100 100 100 97 89 95 97 97 99 89 79 64 57 51 43 37 33 29 20 15 16 26 26 23 31 59 77 79 90 99 75 84 100 100 72 64 40 42
100 89 81 100 100 100 94 94 99 97 79 91 99 95 86 81 66 60 55 44 38 32 28 28 26 20 18 25 24 20 32 47 72 82 79 96 95 73 83 100 100 100 81 99 100
72 70 77 95 96 79 85 79 89 88 90 89 71 63 66 60 53 46 42 33 20 19 20 24 25 22 24 24 27 36 46 69 61 63 90 94 87 76 87 100 100 100 100 100 100
41 56 55 69 80 87 84 86 74 69 72 61 61 57 54 49 44 46 27 23 23 25 28 25 21 24 22 43 52 54 71 82 66 68 100 100 98 85 77 72 97 100 100 96 100
31 31 48 62 63 66 60 63 58 61 58 50 47 45 40 43 44 29 27 27 40 38 28 22 21 25 49 62 70 74 87 84 82 92 99 100 99 100 97 83 74 69 87 90 84
67 50 34 34 40 37 35 32 34 43 43 39 26 24 29 41 62 50 35 29 30 26 21 28 44 57 73 93 94 86 89 98 90 92 93 100 97 99 99 98 97 94 99 95 92
49 48 30 32 26 31 52 32 35 30 24 24 37 45 50 60 55 41 32 47 58 53 58 65 74 76 69 71 78 79 84 92 97 100 99 91 98 100 100 100 99 99 99 99 100
35 29 40 38 49 40 30 31 25 22 26 28 31 34 42 48 45 36 50 67 68 69 68 63 54 46 39 37 38 51 54 74 81 91 100 98 99 99 99 95 100 99 100 100 99
20 20 23 29 29 30 32 27 25 26 25 24 21 25 28 29 36 42 50 57 54 50 43 37 32 25 23 23 22 21 34 41 45 56 87 100 100 99 99 99 100 98 99 99 98
12 14 20 26 21 21 22 19 18 18 17 17 18 22 24 25 28 36 39 40 35 35 31 29 26 25 22 19 14 16 15 17 22 25 36 48 58 72 79 84 84 83 88 88 97
7 9 11 15 17 16 16 16 18 17 17 14 15 18 21 19 22 24 30 35 34 35 28 22 21 19 16 11 11 11 10 11 16 16 15 19 23 22 32 42 46 41 41 50 57
7 6 6 8 9 11 13 12 12 12 13 14 14 15 14 21 24 22 25 29 28 24 18 15 13 9 8 7 8 7 8 8 7 8 13 11 12 13 13 14 15 15 16 16 15
7 8 7 6 7 7 7 7 7 7 7 8 9 10 10 11 15 17 19 16 13 10 9 7 7 7 6 8 8 7 6 6 6 6 6 5 6 7 6 6 6 6 6 7 8

GFSSW_500_rhum_102.txt.gz
RH
30 24 21 19 19 56 97 98 87 86 97 95 76 30 27 31 30 24 24 16 10 8 7 7 8 8 9 10 10 10 8 10 8 7 6 6 6 6 5 5 6 7 7 6 19
36 46 44 42 44 57 100 98 99 100 95 100 66 41 38 35 33 29 29 28 25 17 12 10 9 9 9 9 9 10 10 10 9 8 8 8 8 7 7 6 4 4 4 6 6
99 100 100 100 100 84 100 100 100 99 98 95 98 99 58 43 39 38 36 31 30 30 28 21 14 12 11 11 11 10 11 10 11 10 9 10 8 8 9 9 7 6 5 4 4
91 94 100 100 92 86 100 100 98 100 99 100 100 100 70 79 53 49 43 41 39 40 36 32 26 19 15 14 15 14 14 13 13 12 12 10 9 10 10 10 9 8 7 6 6
55 56 100 100 99 100 97 100 100 99 100 99 99 98 96 87 69 58 50 46 47 48 44 40 33 28 24 22 21 20 18 16 16 15 13 12 13 11 11 18 14 12 11 9 8
56 61 89 100 97 99 100 100 100 100 100 100 98 99 96 99 97 68 61 55 54 52 48 45 39 35 31 28 25 23 22 20 19 18 15 14 14 14 18 16 15 15 15 13 11
60 84 99 100 87 86 69 100 99 100 100 100 100 98 97 98 98 81 74 70 61 56 54 51 44 38 34 30 28 28 28 29 28 27 25 22 20 20 20 19 19 19 19 17 13
57 45 94 100 88 94 65 100 87 100 100 99 100 100 100 99 94 92 82 74 69 62 60 55 49 44 40 37 36 35 34 34 30 28 27 26 25 18 15 13 9 8 7 8 7
64 76 64 94 93 98 83 100 98 100 100 99 100 100 100 98 87 95 96 82 72 67 64 59 52 47 45 44 42 39 36 32 28 28 30 22 11 11 27 23 14 17 27 32 19
73 92 100 94 80 99 94 100 100 100 100 96 100 95 94 97 92 100 92 96 88 77 67 61 56 55 52 48 41 37 36 35 32 26 13 10 12 18 30 29 30 38 36 32 28
71 90 97 98 100 92 95 100 100 100 100 100 100 100 100 99 95 87 92 96 95 85 72 68 61 58 50 47 45 43 38 32 21 16 10 22 23 30 38 43 47 42 47 32 25
64 70 78 91 79 72 87 100 100 100 100 100 100 86 89 86 94 96 95 93 86 79 69 64 62 56 51 46 36 34 34 22 17 22 21 27 27 38 48 59 62 50 45 27 11
66 46 63 69 44 54 89 100 100 99 94 100 100 99 96 94 94 96 91 87 79 73 70 69 60 50 42 37 35 26 15 14 17 21 24 31 36 76 86 79 47 41 79 58 63
61 48 44 40 42 60 100 100 100 100 100 100 98 91 93 99 98 95 95 85 80 79 70 58 46 43 39 28 18 15 14 18 21 24 34 34 54 94 82 51 43 78 78 65 60
100 100 99 69 87 94 100 100 100 99 96 95 98 86 87 90 88 85 79 72 60 54 51 46 43 35 27 18 16 13 19 20 24 42 38 62 78 48 53 57 59 100 86 86 74
85 83 76 65 70 94 98 98 99 99 94 90 88 90 83 85 84 80 72 63 56 51 45 38 32 26 23 18 17 20 19 27 36 48 67 93 88 78 50 67 75 100 100 95 100
100 75 70 84 86 51 66 76 98 92 78 78 86 85 82 82 68 58 51 43 34 27 22 20 22 25 19 22 23 20 26 41 50 58 77 88 86 98 84 74 86 100 80 100 100
87 77 58 63 62 63 68 69 68 65 60 62 66 69 64 54 46 40 29 18 18 18 17 16 15 20 23 37 33 31 49 61 50 63 71 86 84 90 95 94 93 100 100 100 98
51 58 63 69 67 59 58 67 53 54 60 53 49 47 42 41 32 18 25 30 35 35 30 23 24 30 43 46 52 66 75 66 76 73 75 79 90 97 100 100 98 95 100 96 88
39 44 39 36 47 50 57 40 34 39 33 24 18 18 19 23 28 30 33 29 22 28 42 50 60 62 66 76 82 74 71 78 72 67 72 91 93 92 97 99 100 100 100 100 100
22 22 23 24 22 33 41 24 24 34 41 40 34 29 34 31 33 42 39 38 50 58 68 69 57 50 43 40 43 50 60 66 68 76 85 83 96 94 99 98 81 96 99 100 100
24 21 19 18 25 23 22 29 35 36 38 43 46 44 38 36 54 61 50 58 62 53 44 38 31 26 25 24 24 26 32 40 38 50 73 76 87 99 100 100 100 91 99 99 97
17 16 16 18 23 21 20 20 20 21 24 28 32 40 47 50 51 52 46 42 36 31 27 24 24 24 21 18 17 18 18 20 21 24 26 32 59 76 87 84 89 98 99 96 93
8 10 14 16 18 16 13 15 16 17 20 26 31 30 31 33 32 26 25 27 28 28 26 23 21 19 16 13 10 10 18 16 15 16 15 15 18 27 37 47 53 65 82 88 95
7 8 9 11 11 11 11 13 14 15 17 20 19 18 20 21 20 21 23 21 20 22 21 18 14 10 7 8 8 8 6 10 13 13 13 14 12 12 16 22 20 21 23 28 33
6 6 6 8 10 11 11 11 11 13 14 13 12 12 12 13 13 14 15 15 16 13 11 7 6 6 6 7 7 6 6 6 5 8 10 10 8 8 8 9 9 8 7 8 7
8 7 7 7 6 6 6 8 9 10 10 10 10 9 10 10 11 12 11 9 7 7 7 8 10 10 9 10 12 11 12 10 8 7 6 5 5 5 5 6 7 8 10 11 12

GFSSW_500_rhum_105.txt.gz
RH
31 32 35 54 59 32 21 22 58 97 97 75 80 29 29 25 21 12 6 6 6 6 6 6 7 7 8 8 9 9 10 11 10 9 9 8 8 6 6 7 6 6 5 4 3
79 98 88 60 32 38 29 21 26 100 100 94 81 77 36 32 28 25 15 8 6 7 7 6 6 7 7 7 8 8 8 8 9 9 10 8 8 7 8 8 8 8 8 7 6
44 98 100 100 100 43 36 24 34 77 89 100 100 100 67 39 38 34 29 23 18 17 17 13 9 8 8 8 8 8 8 8 8 8 8 8 8 8 8 8 8 8 9 10 10
27 31 90 100 100 97 62 37 37 100 73 98 99 100 99 82 47 35 35 34 30 27 25 23 21 19 16 15 13 10 10 10 10 9 9 10 10 10 8 12 9 8 8 8 8
35 32 45 92 100 100 100 67 56 100 93 97 100 99 100 88 64 44 40 40 36 31 30 28 26 25 25 25 22 19 16 14 13 12 12 12 14 12 16 12 11 11 10 9 9
42 45 51 86 100 100 100 97 71 100 100 77 99 100 100 99 97 53 45 43 39 36 35 33 32 32 32 31 26 24 23 22 21 18 16 14 15 19 22 20 20 18 18 16 14
51 40 50 100 100 94 98 100 82 100 100 100 96 95 100 100 98 84 62 52 50 47 44 43 44 43 41 38 33 31 28 26 24 23 21 21 24 26 24 22 22 21 21 19 18
74 39 66 100 100 100 100 94 95 99 98 100 98 100 96 99 88 93 78 66 60 55 54 53 51 50 46 42 38 34 32 31 29 29 29 30 25 28 27 25 21 17 16 15 14
63 83 58 97 79 87 94 94 85 97 100 100 100 99 92 88 96 82 84 80 67 61 63 60 56 52 47 42 39 38 36 39 39 36 33 30 26 26 19 15 11 9 9 10 12
89 81 68 78 48 82 82 100 84 98 99 100 100 99 99 100 87 73 91 76 68 73 69 64 57 52 50 45 44 45 46 42 40 36 32 30 22 15 11 10 16 21 23 27 29
100 77 39 49 90 96 100 100 100 100 100 100 100 100 100 91 68 59 75 80 78 84 84 77 72 59 55 54 52 50 48 46 39 32 24 18 10 11 18 22 30 44 49 51 52
74 34 40 74 100 100 100 100 100 100 100 100 100 100 97 82 76 73 75 88 92 94 94 88 71 63 58 56 54 48 42 38 30 17 11 10 11 18 24 36 37 40 47 37 27
70 71 85 100 100 100 100 100 100 100 100 100 100 96 90 87 85 85 86 90 96 88 73 67 62 61 61 57 46 41 37 21 14 12 15 18 23 29 25 31 57 35 31 34 58
49 62 93 100 96 100 98 100 100 100 99 100 98 88 95 87 85 82 80 88 87 72 65 63 65 60 52 46 42 30 17 12 11 17 20 23 22 31 43 49 65 47 53 63 49
100 81 100 94 85 90 100 100 100 100 82 91 89 84 81 81 86 84 84 81 71 62 60 56 54 50 45 39 27 19 13 13 18 26 32 36 31 48 55 74 78 64 67 51 67
58 65 81 86 96 87 88 92 100 87 70 85 83 81 88 85 75 67 64 64 60 59 55 50 47 41 33 28 20 14 15 19 27 30 39 46 47 55 62 62 88 67 68 78 70
44 47 53 65 65 76 90 90 86 73 80 80 84 76 72 70 70 68 65 57 51 45 41 38 35 31 27 18 18 17 20 35 39 39 45 45 54 61 72 86 97 73 75 87 95
52 51 52 53 59 67 66 66 65 59 63 65 66 66 67 63 57 48 32 18 15 14 14 13 12 14 20 24 31 28 40 45 38 40 56 66 75 75 74 74 85 100 95 98 90
26 25 42 50 53 52 53 51 53 60 66 64 64 59 48 33 17 16 16 19 21 24 23 21 24 36 46 57 49 55 45 44 56 60 66 69 75 75 76 92 95 96 99 100 99
21 20 19 22 42 41 47 34 31 33 32 32 34 26 18 18 20 21 22 24 48 61 63 63 66 65 61 55 49 49 49 48 48 47 57 68 66 70 82 89 93 98 99 100 100
18 16 16 18 21 34 29 21 19 18 20 21 22 21 22 26 28 36 54 68 68 55 46 38 32 28 24 22 20 22 26 36 33 36 41 41 60 62 72 80 89 86 99 100 94
16 16 20 24 30 31 29 27 26 25 26 24 25 32 40 43 49 58 53 42 36 31 28 24 22 21 19 18 17 17 17 18 20 19 18 18 22 46 51 67 73 84 96 92 98
12 12 15 17 19 19 20 22 25 27 30 32 36 41 43 47 45 37 32 29 24 24 23 20 19 18 16 12 10 10 14 15 16 15 14 14 15 13 20 32 40 51 76 96 85
7 7 10 12 15 16 17 20 25 29 33 35 36 37 33 28 26 22 21 21 22 21 19 18 15 10 8 7 7 6 6 10 11 12 12 11 11 11 11 11 13 16 25 29 39
6 6 6 7 10 12 13 16 20 24 22 21 21 21 20 18 17 16 15 13 15 14 11 9 8 8 7 7 8 7 7 5 6 7 8 8 8 8 7 8 8 8 9 11 12
8 7 5 5 6 7 8 10 12 14 14 14 13 13 13 13 12 12 10 9 8 8 7 8 8 9 10 9 10 10 11 11 9 8 6 5 5 5 6 6 7 8 10 11 11
10 9 10 10 8 6 6 6 6 8 9 9 8 8 8 8 8 7 7 7 8 9 10 11 13 13 11 14 13 13 13 13 13 12 12 11 11 11 12 12 13 14 15 15 14

GFSSW_500_rhum_108.txt.gz
RH
39 31 27 30 39 79 68 51 33 81 69 74 94 51 31 30 26 15 6 6 6 7 7 7 7 6 6 6 6 6 6 8 8 8 8 7 7 8 7 7 6 6 6 6 6
27 23 26 85 53 32 68 68 40 21 31 81 98 100 53 30 31 23 11 7 6 6 7 7 7 7 7 7 7 7 8 8 9 9 9 9 9 8 7 8 8 7 7 7 8
33 26 25 100 100 98 44 54 55 23 28 70 100 94 93 59 32 31 20 9 7 6 6 6 6 6 6 6 7 7 7 7 7 8 8 8 8 7 7 10 7 8 7 7 7
37 28 28 46 100 100 95 40 54 28 47 99 99 97 98 98 47 31 29 20 10 7 7 7 6 6 6 6 7 7 8 8 8 8 8 8 8 7 9 9 8 8 8 8 8
44 36 35 36 96 100 100 65 42 26 45 100 100 91 89 92 70 42 29 30 22 13 8 8 11 14 13 12 12 12 13 14 13 11 10 9 9 10 13 9 9 8 8 10 10
54 40 54 43 78 100 96 81 45 27 33 84 96 100 100 99 95 73 39 31 31 28 24 22 23 24 24 24 22 22 22 20 17 14 13 13 13 13 14 12 11 11 13 12 10
72 55 56 52 91 100 76 74 52 26 36 100 100 100 100 100 88 78 53 37 33 33 34 33 31 29 28 26 25 24 25 26 25 20 16 15 16 19 16 14 16 19 21 20 19
68 50 72 70 100 98 88 73 77 26 68 92 100 100 98 97 100 86 68 47 39 38 37 38 35 33 33 31 32 33 34 34 31 27 23 23 22 28 26 23 23 21 18 15 15
97 71 95 95 90 60 68 85 85 61 91 99 100 100 100 100 99 99 83 60 48 42 41 43 42 40 41 41 41 42 39 36 32 29 28 32 32 31 25 17 16 14 12 10 8
69 82 54 52 83 98 88 98 96 100 100 98 100 100 100 99 94 88 67 60 53 50 48 50 49 48 48 49 45 43 39 37 36 35 36 31 22 24 16 12 10 8 9 15 17
55 31 32 65 98 100 100 100 100 100 99 100 100 100 99 97 99 90 64 58 63 66 70 73 65 57 55 52 46 43 42 45 42 30 22 22 17 14 10 9 12 17 22 22 24
99 98 82 100 98 97 100 100 98 85 99 96 97 100 100 95 85 73 82 60 52 58 61 63 69 69 66 68 57 52 47 39 29 21 15 14 11 10 12 20 25 20 20 20 26
95 92 83 86 90 100 100 100 99 99 72 87 81 100 88 72 58 52 48 51 66 73 79 87 90 89 80 64 53 42 36 29 21 14 12 8 10 18 26 29 25 16 16 24 24
58 87 100 89 98 97 100 100 92 96 87 100 98 94 69 62 55 57 68 74 72 74 80 78 74 63 55 48 42 36 30 19 12 9 11 15 22 38 37 27 33 36 37 35 28
58 74 83 88 77 92 91 79 87 96 73 86 82 73 73 62 75 78 75 71 78 74 68 59 53 48 46 41 37 31 19 14 11 15 18 24 29 30 35 39 45 42 51 41 35
77 72 82 84 78 80 79 72 76 74 67 84 86 79 85 85 80 81 81 76 71 60 50 47 44 41 39 37 29 22 15 13 18 24 31 35 34 38 35 42 54 51 54 65 60
80 86 92 98 100 90 87 86 88 66 89 90 94 87 82 77 74 64 58 50 45 42 41 41 41 39 35 28 19 12 18 28 41 46 40 35 41 46 50 55 57 59 61 76 81
51 55 75 88 87 85 82 82 72 66 66 74 72 68 62 56 50 44 38 34 31 30 27 25 22 17 15 13 18 35 40 48 50 45 40 36 47 47 53 58 58 66 78 86 94
31 39 42 44 44 50 58 62 57 58 58 53 50 45 38 29 18 13 13 14 15 13 13 13 12 14 35 53 51 57 57 55 54 43 41 46 46 50 55 54 60 69 68 82 86
16 18 20 22 24 30 44 29 29 33 33 33 30 20 16 18 21 27 29 39 36 41 51 61 63 61 58 46 44 39 36 35 33 28 33 31 32 40 48 49 55 68 80 87 88
20 17 15 14 14 19 15 12 13 14 16 15 15 18 20 26 38 51 54 52 42 34 29 27 25 24 22 20 18 16 16 17 19 19 19 19 18 17 17 23 29 34 52 84 95
13 12 14 16 24 19 15 15 14 14 16 17 20 28 39 46 44 35 30 27 26 24 23 22 21 19 16 13 11 11 11 12 12 13 15 14 14 13 12 11 11 14 20 25 65
9 11 12 12 16 18 20 18 21 22 26 29 31 32 29 24 22 20 20 19 20 20 20 16 15 12 7 7 6 5 6 7 8 8 9 10 9 9 9 8 9 9 10 12 14
6 6 9 11 13 14 17 19 22 22 24 24 24 20 18 16 16 16 17 18 20 18 13 9 8 8 8 8 8 7 6 5 5 6 6 6 6 6 6 6 6 7 8 8 9
7 6 6 6 8 10 11 12 13 13 15 17 18 19 16 14 14 14 13 13 11 9 8 9 10 10 9 10 11 11 11 11 10 9 8 8 7 6 7 9 10 10 12 13 13
11 9 7 6 5 6 7 7 8 9 10 9 10 10 10 10 9 9 8 8 10 11 12 12 13 12 12 12 13 13 13 13 12 12 11 12 14 13 14 14 14 15 15 15 15
11 13 12 12 10 9 9 8 7 7 7 6 6 7 7 8 9 11 12 13 13 14 15 16 16 16 16 15 15 15 14 15 14 14 14 13 13 14 14 15 16 17 16 16 16

GFSSW_500_rhum_111.txt.gz
RH
71 77 64 43 38 43 51 80 48 28 20 39 68 87 55 30 24 20 16 9 6 6 5 5 5 4 4 5 5 5 6 6 6 6 7 7 7 7 6 6 6 5 4 4 5
91 98 100 71 37 40 42 62 97 47 73 100 97 100 78 36 29 24 18 12 6 6 6 6 5 5 5 5 6 6 6 6 6 6 7 7 7 7 7 9 8 7 7 7 7
79 51 36 28 42 53 30 44 84 62 46 78 81 86 95 55 34 28 22 16 7 6 6 6 7 6 6 6 6 7 7 7 8 7 7 7 8 8 8 9 7 7 7 6 7
40 37 32 26 47 100 100 31 54 78 38 100 100 100 86 94 52 35 26 20 9 7 8 7 7 7 7 8 8 8 7 7 7 7 7 6 7 7 7 7 7 6 6 7 7
54 40 30 26 25 90 100 78 39 68 76 100 96 97 99 88 80 48 32 24 15 7 7 7 8 7 7 7 7 6 6 6 7 8 9 9 9 9 8 7 7 7 7 7 7
72 60 35 32 27 67 100 93 40 65 57 85 98 100 99 98 83 58 40 30 22 11 7 7 7 7 6 7 7 8 9 11 14 15 15 14 13 12 12 11 8 8 7 7 7
88 54 46 36 36 76 100 75 51 61 47 30 32 99 98 100 100 97 63 38 33 21 12 8 8 8 8 9 12 18 19 20 18 16 16 16 19 18 16 14 12 11 11 11 12
55 51 42 44 68 90 88 64 49 51 60 32 90 100 99 99 96 76 65 48 35 34 26 20 15 13 15 21 25 26 24 22 24 24 26 28 26 24 22 19 19 20 20 21 21
73 88 100 100 100 79 60 55 61 48 75 39 100 100 100 83 87 91 73 66 49 35 35 31 30 31 32 32 30 30 29 32 27 29 29 29 27 29 26 24 26 24 19 14 11
53 82 72 43 56 64 50 67 58 100 96 100 100 100 100 97 97 85 75 74 53 40 39 39 37 35 35 34 34 35 37 36 34 32 32 31 30 37 31 23 16 12 10 8 8
45 64 98 97 49 44 74 94 88 100 96 100 99 100 100 100 100 100 89 82 62 48 46 44 42 41 42 42 44 42 40 42 40 36 36 40 35 24 16 13 10 8 8 9 12
93 96 96 97 95 99 77 84 100 96 96 100 100 99 100 100 100 97 85 70 60 53 48 47 48 52 55 53 58 63 52 47 46 44 38 28 18 14 9 8 10 12 14 15 15
94 94 100 98 78 78 100 89 100 100 97 100 100 100 100 99 93 89 78 70 60 57 56 54 55 55 58 65 65 62 66 60 46 33 22 15 10 9 12 20 25 24 19 19 22
80 76 100 100 100 94 96 86 100 100 99 96 93 96 98 86 62 65 71 65 56 58 58 62 68 72 78 78 75 66 52 40 28 22 13 10 9 14 23 28 32 32 28 26 38
84 99 86 85 61 63 73 100 84 75 76 83 82 86 80 67 74 65 66 60 64 61 64 73 72 72 68 58 50 43 36 29 20 11 8 10 14 24 30 43 45 40 42 41 43
67 72 75 88 86 69 74 72 60 64 64 72 71 60 54 59 67 68 67 63 64 69 68 64 56 47 42 40 40 34 26 18 10 9 12 18 25 32 39 44 47 50 44 46 41
79 82 73 66 75 92 86 82 69 54 70 62 57 64 58 62 66 63 61 65 65 61 48 40 37 38 35 33 29 22 14 11 13 20 23 28 30 39 41 44 44 46 44 53 46
43 59 68 81 93 86 60 80 62 46 60 62 60 61 69 71 70 60 55 45 42 34 33 32 31 28 27 23 16 13 18 24 33 38 31 36 42 43 39 45 39 30 34 56 50
22 32 39 46 51 58 68 77 61 65 69 70 73 70 56 42 34 29 24 22 19 19 18 16 17 14 12 18 22 42 46 48 46 42 37 37 36 32 28 28 17 17 14 39 58
14 14 16 22 25 30 54 26 25 32 34 32 29 20 13 13 15 16 16 17 20 21 19 19 22 41 54 51 49 43 36 33 29 27 21 21 22 19 16 13 10 9 9 10 35
16 12 11 10 10 12 18 13 12 11 12 14 18 25 33 37 37 35 31 28 26 25 25 22 20 19 18 17 17 15 15 14 14 13 13 12 12 11 10 9 8 7 8 7 8
8 9 9 9 12 13 11 12 14 16 20 24 30 33 28 21 20 20 20 20 20 19 18 17 15 14 10 8 8 7 7 7 7 7 7 7 7 7 7 7 5 5 5 5 6
8 7 8 10 10 10 10 10 14 17 20 20 18 16 16 17 17 16 15 18 16 14 12 9 7 7 8 8 8 7 6 6 6 6 6 6 6 5 5 5 5 5 6 8 7
6 6 8 8 8 8 8 9 10 12 12 12 13 12 12 13 12 12 11 10 10 8 8 10 11 12 11 11 11 11 11 11 10 9 7 8 9 7 8 8 8 8 10 11 12
10 8 6 6 6 7 8 8 10 11 11 10 10 9 9 9 9 8 9 9 10 11 11 12 12 12 13 14 14 14 14 14 14 14 12 14 13 12 13 13 13 13 13 12 13
13 14 13 10 9 8 8 7 7 7 7 7 7 7 8 9 10 11 12 12 13 14 16 17 18 16 16 16 16 16 15 15 15 15 14 14 15 13 14 15 15 16 17 17 17
6 8 13 16 15 14 14 13 13 12 13 13 13 13 16 18 18 18 18 17 16 14 13 13 13 13 15 18 20 20 18 18 18 17 18 18 17 16 16 16 16 16 17 18 19

GFSSW_500_rhum_114.txt.gz
RH
75 91 83 100 89 98 46 21 15 20 14 14 22 31 21 68 39 21 14 10 6 6 6 7 9 18 24 28 22 17 14 13 14 12 13 13 10 7 7 7 7 7 7 7 5
100 98 99 77 94 74 56 42 26 34 24 28 37 96 52 46 66 30 20 14 10 7 6 6 7 8 8 5 4 5 4 5 6 6 6 6 7 8 7 7 6 5 6 6 6
100 100 99 93 100 71 45 48 48 38 47 44 40 93 97 55 47 49 26 18 14 9 6 5 5 5 5 5 5 5 5 6 6 6 6 6 6 8 8 7 6 7 7 7 6
72 100 100 100 99 83 52 41 43 74 61 47 87 97 100 52 36 44 32 21 16 12 6 6 6 5 5 5 6 6 6 6 6 6 6 6 7 7 7 7 7 7 7 6 6
50 82 39 42 31 27 38 39 46 86 67 60 100 88 99 45 55 40 42 25 18 13 7 6 6 6 6 6 6 7 7 8 8 7 7 6 6 7 7 7 7 7 6 6 6
79 44 39 34 26 23 82 74 43 74 46 100 100 98 100 81 67 61 45 30 22 14 8 6 6 7 7 7 8 8 8 7 6 6 7 10 13 12 10 9 8 7 7 6 6
96 78 52 31 28 24 41 92 38 77 47 100 100 93 100 89 70 58 52 38 26 16 8 7 8 7 8 8 8 7 7 6 7 10 14 15 14 13 13 12 14 12 11 12 11
48 52 52 46 32 27 43 76 48 82 55 90 83 100 87 78 67 73 68 48 29 21 12 7 7 7 7 7 7 6 7 8 14 18 19 19 23 21 24 22 21 19 18 17 16
91 100 75 33 30 83 84 65 45 70 64 93 98 96 100 100 99 85 75 52 34 26 19 10 7 7 7 7 7 8 11 18 21 21 23 25 26 30 26 26 25 26 25 24 23
62 82 100 94 82 60 60 88 55 67 74 89 98 99 100 100 100 100 91 60 42 32 26 21 15 12 12 12 16 22 27 24 21 22 28 28 30 34 31 30 31 29 22 16 12
100 52 35 40 37 34 56 57 74 70 57 49 66 98 86 98 97 95 85 77 62 40 34 32 30 26 27 29 31 30 28 26 28 27 34 36 36 38 38 33 21 15 11 8 7
93 90 41 42 37 46 72 100 88 60 72 55 87 74 78 79 86 83 74 63 59 49 38 36 34 35 36 36 35 35 38 37 39 45 54 49 44 39 26 17 12 9 7 10 12
72 94 74 70 100 92 100 100 91 98 97 100 69 87 99 100 93 88 83 82 72 63 54 45 42 40 41 40 39 41 46 53 58 55 53 48 31 22 14 10 8 9 12 18 23
46 63 53 96 100 97 100 94 100 100 98 98 99 100 100 95 83 84 73 65 60 58 53 51 53 52 52 50 52 54 57 62 64 56 40 24 16 11 9 9 14 20 30 34 36
51 39 48 60 66 94 99 93 99 100 86 100 100 85 80 85 76 75 64 56 52 55 50 48 47 48 54 59 66 72 66 52 38 26 21 16 10 9 11 18 23 33 31 37 30
84 71 54 42 44 42 46 48 78 66 64 77 79 59 55 60 67 64 66 61 57 52 50 51 54 55 57 58 54 44 34 28 24 19 13 10 10 13 18 27 31 32 34 23 16
80 79 96 91 80 68 58 54 42 30 32 30 35 38 40 44 43 47 47 45 47 49 53 52 52 48 42 35 30 27 26 21 15 11 10 17 16 23 24 33 31 30 17 10 9
32 58 67 66 73 66 54 58 57 47 36 44 57 53 49 57 65 62 60 59 55 48 43 34 31 27 28 25 24 22 16 11 11 17 22 27 21 26 28 26 20 13 8 7 6
20 24 28 40 48 58 56 51 50 47 52 57 58 66 64 45 38 27 27 24 24 21 19 18 18 17 15 12 10 15 13 26 35 33 27 27 22 23 20 14 10 9 7 6 6
9 14 16 19 27 32 42 32 37 37 37 27 23 18 13 11 13 14 15 13 10 10 10 9 10 12 16 23 33 33 35 30 27 24 21 17 15 13 10 9 7 6 5 4 5
11 8 9 9 10 12 12 11 12 13 14 17 20 22 20 18 18 16 16 18 20 20 19 18 18 18 15 14 13 12 11 10 10 10 9 9 8 7 6 6 5 5 4 5 6
9 7 8 9 11 14 14 15 17 18 20 17 14 13 12 12 11 11 12 12 12 11 10 9 8 8 6 6 6 6 6 6 7 7 7 7 7 6 5 5 5 5 5 6 9
6 6 6 7 10 10 9 9 11 11 11 11 11 12 12 12 11 10 9 9 8 7 7 8 8 9 9 9 9 8 9 8 7 6 7 5 6 5 5 7 8 7 8 10 11
9 7 7 7 7 8 9 9 9 10 9 8 8 8 9 9 8 9 9 10 10 11 11 12 13 13 13 14 14 14 14 14 13 12 10 11 8 11 11 12 12 13 15 16 16
13 13 11 9 8 7 7 7 7 7 8 8 8 8 9 9 11 11 12 14 15 16 16 17 17 17 17 18 18 17 16 16 15 15 15 17 14 14 14 14 15 15 16 16 17
7 13 14 16 14 14 13 12 12 12 12 14 14 16 18 18 19 20 18 15 14 12 13 14 13 13 15 15 14 16 18 20 20 18 18 18 18 17 18 18 17 18 17 16 17
10 5 7 12 15 16 18 19 20 19 19 21 20 19 16 14 12 10 10 10 10 10 10 9 8 8 10 9 7 9 9 10 11 14 14 17 19 19 20 19 19 19 20 21 22

GFSSW_500_rhum_117.txt.gz
RH
93 91 100 79 94 94 77 38 19 18 55 36 46 13 14 44 55 28 12 10 7 8 11 13 17 22 22 26 28 34 33 29 26 26 36 39 38 36 34 31 24 16 14 11 8
100 76 100 98 91 83 85 84 39 27 98 85 66 94 15 8 41 54 24 14 10 8 9 12 13 14 15 14 18 26 25 24 27 25 21 14 15 12 9 7 7 7 7 7 6
95 86 98 100 100 100 96 94 81 31 98 99 80 70 10 10 14 57 42 21 14 10 7 7 7 9 13 13 18 18 16 7 6 6 6 7 7 7 7 7 7 7 7 6 7
59 90 86 96 100 100 93 98 74 37 63 100 89 100 44 8 12 24 53 34 18 12 8 7 6 6 7 8 9 8 5 5 5 6 6 6 7 7 7 7 7 7 7 7 7
75 100 97 100 99 100 96 74 61 77 61 100 78 100 90 57 30 24 39 44 24 15 11 9 7 6 5 6 6 5 5 5 6 6 6 6 7 7 7 7 6 7 6 6 6
71 100 91 99 81 56 64 63 47 99 66 72 98 96 100 49 30 31 29 46 34 19 14 10 7 6 5 5 5 5 6 6 6 6 7 8 7 6 8 11 10 9 8 7 6
93 54 43 42 39 25 28 40 42 97 85 63 70 99 97 79 43 34 38 40 38 20 14 10 6 6 6 6 6 6 6 7 7 8 7 6 7 8 11 13 12 12 11 12 10
43 71 50 34 26 24 64 55 49 100 79 62 100 100 100 77 31 27 25 41 39 27 16 9 7 6 6 6 7 7 7 7 7 6 6 8 15 18 17 16 18 17 18 16 16
90 93 55 43 31 26 48 64 46 99 93 98 100 100 75 75 78 63 48 48 41 28 18 10 7 7 7 7 7 7 7 7 6 7 9 14 19 19 20 21 24 27 26 27 28
80 72 37 50 35 45 60 88 68 95 86 97 100 97 99 77 82 70 53 56 42 29 21 13 8 8 8 8 7 7 6 6 7 10 18 19 21 25 22 24 30 32 31 30 25
39 40 44 63 50 47 64 72 100 96 82 100 100 100 89 69 50 58 60 63 53 37 26 18 11 8 7 7 7 7 8 10 16 19 21 21 21 32 37 41 42 33 26 18 11
30 36 80 100 97 100 94 60 91 94 91 97 90 94 97 79 84 86 73 59 58 46 35 25 19 15 12 11 12 16 20 23 22 22 24 30 34 42 48 44 33 20 13 10 7
48 80 100 57 49 46 64 66 64 56 70 99 91 59 71 86 99 92 83 74 59 50 37 31 28 25 24 23 24 25 24 25 26 31 34 36 43 46 40 26 16 10 8 7 12
83 81 73 89 97 94 100 100 70 72 57 61 54 64 79 74 71 70 68 64 61 59 51 43 37 34 30 29 32 33 33 37 40 43 45 46 35 30 20 14 9 8 9 16 23
48 89 82 97 100 100 100 100 78 60 40 89 70 36 69 81 71 73 67 60 66 61 60 52 48 45 42 40 42 44 42 42 48 51 44 30 19 13 11 9 8 11 17 20 21
54 37 33 36 52 54 82 89 86 58 66 84 82 74 67 70 64 56 58 59 56 52 51 49 46 45 43 40 42 48 51 48 37 25 17 16 13 10 9 11 16 18 22 19 11
68 56 40 42 50 33 32 32 28 31 42 47 55 59 55 51 50 56 56 53 47 47 42 41 46 51 48 46 43 35 28 21 17 16 13 11 10 10 14 19 19 22 14 8 6
40 53 43 40 46 38 25 20 24 30 36 44 50 51 45 57 56 53 48 44 42 45 46 43 41 37 28 23 19 18 17 16 14 12 11 11 13 20 19 24 20 12 7 6 5
15 17 20 32 39 35 32 37 28 33 36 40 44 29 24 25 25 30 37 40 37 32 24 20 15 13 12 12 11 11 11 11 14 20 19 18 19 17 14 11 9 7 6 5 4
9 9 8 8 12 19 28 18 14 12 12 13 13 15 18 18 14 10 10 9 9 9 8 8 8 8 9 13 16 23 24 24 23 17 15 13 11 10 8 7 6 5 4 4 4
10 9 8 10 12 12 12 10 12 12 13 15 11 12 12 11 13 16 17 16 16 15 16 16 17 15 12 10 10 10 9 8 8 9 8 7 7 8 8 7 5 4 4 4 4
7 8 7 10 12 16 14 12 12 12 12 12 12 12 12 11 10 10 9 9 8 8 6 6 6 5 5 5 6 6 6 6 6 7 6 6 5 8 7 6 5 6 7 8 10
7 7 7 7 8 10 11 10 10 10 10 10 10 10 10 10 10 9 9 10 11 11 12 12 12 13 13 12 13 12 12 13 13 12 12 8 10 6 7 8 11 12 14 15 16
13 10 9 8 7 8 8 8 8 9 8 8 9 9 10 12 13 14 16 16 16 17 17 17 16 17 17 18 18 18 18 18 18 17 15 15 14 16 14 15 15 15 15 15 16
11 14 15 14 13 11 10 11 12 12 15 16 18 19 20 19 18 18 16 14 13 12 13 13 13 13 14 11 10 8 9 9 8 10 11 17 18 19 19 18 18 18 18 19 20
6 6 11 15 17 17 16 18 18 19 20 18 18 16 14 13 11 10 10 10 10 10 10 11 9 10 10 10 8 8 7 6 6 7 6 5 7 5 12 16 19 19 20 20 21
47 13 6 6 8 11 13 12 12 12 11 11 11 10 9 8 8 9 9 8 9 10 12 11 12 13 14 11 9 9 8 8 9 7 7 7 6 5 5 6 7 11 15 16 16

GFSSW_500_rhum_120.txt.gz
RH
76 100 100 83 58 60 54 40 17 14 26 38 68 22 48 48 24 11 9 6 10 28 38 38 36 33 31 29 28 28 26 23 22 23 25 25 25 25 27 31 32 32 33 31 27
92 90 100 100 91 71 76 52 27 16 98 62 87 23 16 53 60 26 13 9 6 6 10 22 21 23 27 29 29 26 23 24 29 31 33 32 34 34 34 29 21 14 10 8 8
99 97 100 100 100 97 89 88 43 23 32 50 100 74 23 19 56 61 25 13 10 6 5 9 14 17 21 27 30 24 20 20 27 33 34 35 22 14 10 8 7 7 7 7 6
59 89 100 100 100 100 100 92 69 23 98 98 99 91 46 16 23 60 56 27 14 10 8 7 10 12 16 18 22 19 18 24 25 19 10 8 8 7 7 7 7 7 7 7 7
68 82 100 99 99 96 98 87 72 47 93 84 69 63 38 21 16 30 61 53 29 16 11 9 8 10 12 12 12 14 15 16 10 5 6 7 6 7 6 6 7 7 6 6 6
90 91 95 94 96 56 94 98 92 44 88 100 100 99 57 34 17 21 32 56 45 22 15 11 8 7 8 7 7 8 9 8 6 5 6 6 6 6 7 7 6 6 6 6 6
93 91 100 95 95 67 81 88 82 40 99 100 91 70 42 22 12 11 16 44 52 34 17 12 9 8 7 6 6 6 6 6 5 5 6 6 6 7 7 6 6 7 8 7 9
69 62 91 36 41 40 63 73 72 56 100 90 100 98 93 41 26 19 18 22 41 42 25 15 12 10 9 7 6 5 5 5 6 6 6 7 8 6 6 7 10 12 12 13 14
46 59 35 34 23 33 39 65 85 63 74 100 99 92 98 56 35 26 22 24 30 42 35 20 15 10 7 6 6 6 6 6 6 7 7 6 6 6 8 11 15 15 15 18 20
44 53 40 33 26 46 54 61 76 77 36 92 80 92 60 43 39 35 34 31 39 42 38 26 18 10 7 6 6 6 6 6 7 7 6 6 7 10 14 15 17 20 23 27 34
29 23 35 40 71 100 70 59 81 80 43 80 98 64 70 63 47 34 21 19 32 39 36 29 18 11 8 7 7 7 7 7 7 7 7 8 12 19 18 22 29 33 41 41 37
58 81 80 50 100 100 97 60 78 90 100 100 70 83 69 60 51 38 30 31 31 39 35 26 18 13 8 8 8 7 7 7 7 8 11 16 19 23 29 32 34 42 39 31 19
62 77 52 48 56 73 88 96 91 100 100 100 82 74 71 59 55 55 51 48 38 42 36 29 22 14 10 9 10 10 9 10 14 18 20 26 31 33 35 35 40 36 24 15 10
99 99 97 87 80 55 84 89 99 100 77 92 88 86 73 52 47 50 37 36 41 42 42 37 28 23 18 18 21 20 21 23 22 28 34 35 27 34 36 33 26 16 11 9 7
80 95 100 100 87 82 92 86 88 89 60 73 68 64 64 83 59 67 66 57 51 48 48 40 40 32 31 31 32 31 32 35 36 36 33 34 30 28 26 18 13 10 8 9 13
49 54 54 75 70 79 93 89 65 53 55 79 89 63 63 78 78 66 59 63 61 53 51 46 40 40 41 40 40 39 38 36 34 38 40 33 22 15 12 11 9 8 14 14 15
26 27 32 25 29 37 43 40 37 33 57 72 72 81 72 60 58 56 46 51 51 53 47 45 41 36 34 34 36 37 42 42 35 23 16 13 11 10 8 9 14 16 16 11 6
18 22 22 24 20 20 30 37 30 35 37 46 46 52 58 59 59 55 53 50 48 46 40 38 30 33 39 38 35 25 16 12 11 10 9 10 8 11 16 16 15 17 8 6 5
15 20 21 25 28 28 29 34 29 35 38 38 45 47 40 39 37 38 41 40 42 41 40 39 34 27 20 12 9 8 11 11 14 18 15 15 15 16 16 11 8 7 6 5 4
7 7 7 8 9 13 17 11 12 14 16 17 16 13 11 15 24 21 20 18 17 13 13 9 10 8 8 12 13 14 12 12 12 10 10 10 10 10 8 8 8 7 6 4 4
8 8 7 8 8 10 11 8 9 9 11 13 13 14 19 21 17 16 13 11 10 10 10 11 10 10 10 8 7 6 6 6 7 7 6 6 6 7 6 7 6 6 4 6 8
8 8 7 7 8 10 9 9 9 9 10 11 9 8 8 8 8 9 8 7 6 6 6 7 8 8 9 9 9 10 10 10 11 11 10 8 8 10 8 6 5 6 10 13 14
11 9 9 9 8 8 9 9 8 9 9 9 10 10 11 12 12 12 13 14 15 16 17 18 18 17 17 16 16 17 17 18 18 17 16 16 16 16 14 14 14 16 16 16 16
12 14 12 13 13 12 11 12 13 14 15 16 17 17 17 18 17 16 15 13 13 12 12 12 11 10 9 8 8 9 10 9 7 7 9 11 13 18 15 13 17 18 18 18 20
7 11 10 13 13 14 15 16 16 16 15 15 14 13 13 12 10 10 10 10 10 10 11 11 10 9 10 9 8 8 8 8 8 7 6 6 5 5 5 6 7 12 15 18 19
22 6 7 10 11 10 10 10 11 9 10 10 9 8 8 8 8 8 9 9 11 12 13 12 13 13 15 14 12 10 12 11 10 10 10 8 8 8 7 6 5 5 5 5 7
59 41 13 6 6 7 9 8 9 9 8 7 8 7 7 8 8 8 8 8 9 10 12 17 18 18 17 18 17 15 16 19 18 15 17 15 12 12 12 10 9 8 7 7 7